<?xml version="1.0" encoding="UTF-8" standalone="no" ?>
<gpx xmlns="http://www.topografix.com/GPX/1/1" xmlns:xsi="http://www.w3.org/2001/XMLSchema-instance" xsi:schemaLocation="http://www.topografix.com/GPX/1/1 http://www.topografix.com/GPX/1/1/gpx.xsd" version="1.1" creator="VisuGPX - https://www.visugpx.com">
  <metadata>
    <name>Le Cuchon et les dents d'Autane</name>
    <desc><![CDATA[Les copains randonneurs du 04
départ Ancelle, petit parking en rive gauche, poursuivre jusqu'au petit pont de bois à traverser et continuer en rive droite jusqu'au carrefour indiquant "Le Cuchon". grimper par le sentier caillouteux jusqu'au sommet à 2000 m environ et poursuivre en face par la sente qui monte jusqu'aux dents d'Autane. Passage câblé et parfois vertigineux . Redescendre par le sentier qui mène à la cabane des gardes puis prendre le GR 50 jusqu'au retour à Ancelle]]></desc>
  </metadata>
  <trk>
    <name><![CDATA[CUCHON6-12 16:02:46]]></name>
    <trkseg>
      <trkpt lat="44.62234" lon="6.21">
        <ele>1345.98</ele>
        <time>2019-06-12T06:15:08Z</time>
      </trkpt>
      <trkpt lat="44.62234" lon="6.21">
        <ele>1345.98</ele>
        <time>2019-06-12T06:15:09Z</time>
      </trkpt>
      <trkpt lat="44.62233" lon="6.20998">
        <ele>1347.43</ele>
        <time>2019-06-12T06:15:21Z</time>
      </trkpt>
      <trkpt lat="44.62232" lon="6.20996">
        <ele>1345.98</ele>
        <time>2019-06-12T06:15:38Z</time>
      </trkpt>
      <trkpt lat="44.62231" lon="6.20999">
        <ele>1345.98</ele>
        <time>2019-06-12T06:15:53Z</time>
      </trkpt>
      <trkpt lat="44.62234" lon="6.21001">
        <ele>1346.94</ele>
        <time>2019-06-12T06:16:12Z</time>
      </trkpt>
      <trkpt lat="44.62234" lon="6.21">
        <ele>1345.5</ele>
        <time>2019-06-12T06:16:41Z</time>
      </trkpt>
      <trkpt lat="44.62232" lon="6.21">
        <ele>1345.98</ele>
        <time>2019-06-12T06:17:17Z</time>
      </trkpt>
      <trkpt lat="44.62233" lon="6.20998">
        <ele>1345.98</ele>
        <time>2019-06-12T06:17:30Z</time>
      </trkpt>
      <trkpt lat="44.6223" lon="6.20997">
        <ele>1345.98</ele>
        <time>2019-06-12T06:17:46Z</time>
      </trkpt>
      <trkpt lat="44.62232" lon="6.21">
        <ele>1345.98</ele>
        <time>2019-06-12T06:18:01Z</time>
      </trkpt>
      <trkpt lat="44.6223" lon="6.20999">
        <ele>1345.5</ele>
        <time>2019-06-12T06:18:19Z</time>
      </trkpt>
      <trkpt lat="44.62229" lon="6.20992">
        <ele>1345.5</ele>
        <time>2019-06-12T06:18:38Z</time>
      </trkpt>
      <trkpt lat="44.62232" lon="6.20993">
        <ele>1345.5</ele>
        <time>2019-06-12T06:18:53Z</time>
      </trkpt>
      <trkpt lat="44.62235" lon="6.20997">
        <ele>1345.5</ele>
        <time>2019-06-12T06:19:14Z</time>
      </trkpt>
      <trkpt lat="44.62233" lon="6.20997">
        <ele>1345.5</ele>
        <time>2019-06-12T06:19:35Z</time>
      </trkpt>
      <trkpt lat="44.62235" lon="6.20995">
        <ele>1345.5</ele>
        <time>2019-06-12T06:19:52Z</time>
      </trkpt>
      <trkpt lat="44.62233" lon="6.20998">
        <ele>1345.98</ele>
        <time>2019-06-12T06:20:08Z</time>
      </trkpt>
      <trkpt lat="44.62232" lon="6.21002">
        <ele>1345.98</ele>
        <time>2019-06-12T06:20:25Z</time>
      </trkpt>
      <trkpt lat="44.6223" lon="6.21003">
        <ele>1345.98</ele>
        <time>2019-06-12T06:20:39Z</time>
      </trkpt>
      <trkpt lat="44.62226" lon="6.20992">
        <ele>1345.98</ele>
        <time>2019-06-12T06:20:50Z</time>
      </trkpt>
      <trkpt lat="44.62227" lon="6.20995">
        <ele>1345.98</ele>
        <time>2019-06-12T06:21:04Z</time>
      </trkpt>
      <trkpt lat="44.62227" lon="6.20998">
        <ele>1345.98</ele>
        <time>2019-06-12T06:21:13Z</time>
      </trkpt>
      <trkpt lat="44.62225" lon="6.21016">
        <ele>1345.98</ele>
        <time>2019-06-12T06:21:27Z</time>
      </trkpt>
      <trkpt lat="44.62223" lon="6.21031">
        <ele>1345.98</ele>
        <time>2019-06-12T06:21:40Z</time>
      </trkpt>
      <trkpt lat="44.62225" lon="6.21036">
        <ele>1345.98</ele>
        <time>2019-06-12T06:21:52Z</time>
      </trkpt>
      <trkpt lat="44.62226" lon="6.21042">
        <ele>1345.98</ele>
        <time>2019-06-12T06:22:05Z</time>
      </trkpt>
      <trkpt lat="44.62222" lon="6.21057">
        <ele>1347.43</ele>
        <time>2019-06-12T06:22:18Z</time>
      </trkpt>
      <trkpt lat="44.62219" lon="6.21074">
        <ele>1347.91</ele>
        <time>2019-06-12T06:22:33Z</time>
      </trkpt>
      <trkpt lat="44.6222" lon="6.21092">
        <ele>1348.39</ele>
        <time>2019-06-12T06:22:47Z</time>
      </trkpt>
      <trkpt lat="44.6222" lon="6.21102">
        <ele>1348.39</ele>
        <time>2019-06-12T06:22:55Z</time>
      </trkpt>
      <trkpt lat="44.62219" lon="6.21115">
        <ele>1348.87</ele>
        <time>2019-06-12T06:23:04Z</time>
      </trkpt>
      <trkpt lat="44.62217" lon="6.21126">
        <ele>1348.87</ele>
        <time>2019-06-12T06:23:13Z</time>
      </trkpt>
      <trkpt lat="44.62216" lon="6.21148">
        <ele>1349.35</ele>
        <time>2019-06-12T06:23:27Z</time>
      </trkpt>
      <trkpt lat="44.62216" lon="6.21152">
        <ele>1349.35</ele>
        <time>2019-06-12T06:23:30Z</time>
      </trkpt>
      <trkpt lat="44.62214" lon="6.2117">
        <ele>1349.35</ele>
        <time>2019-06-12T06:23:44Z</time>
      </trkpt>
      <trkpt lat="44.62208" lon="6.21188">
        <ele>1350.31</ele>
        <time>2019-06-12T06:23:59Z</time>
      </trkpt>
      <trkpt lat="44.62198" lon="6.21203">
        <ele>1350.79</ele>
        <time>2019-06-12T06:24:14Z</time>
      </trkpt>
      <trkpt lat="44.62188" lon="6.21208">
        <ele>1350.79</ele>
        <time>2019-06-12T06:24:24Z</time>
      </trkpt>
      <trkpt lat="44.6217" lon="6.21214">
        <ele>1351.27</ele>
        <time>2019-06-12T06:24:41Z</time>
      </trkpt>
      <trkpt lat="44.62171" lon="6.21222">
        <ele>1351.27</ele>
        <time>2019-06-12T06:24:58Z</time>
      </trkpt>
      <trkpt lat="44.62171" lon="6.21224">
        <ele>1351.27</ele>
        <time>2019-06-12T06:25:07Z</time>
      </trkpt>
      <trkpt lat="44.62171" lon="6.2124">
        <ele>1351.27</ele>
        <time>2019-06-12T06:25:19Z</time>
      </trkpt>
      <trkpt lat="44.6216" lon="6.21263">
        <ele>1351.27</ele>
        <time>2019-06-12T06:25:35Z</time>
      </trkpt>
      <trkpt lat="44.62148" lon="6.2129">
        <ele>1351.75</ele>
        <time>2019-06-12T06:25:53Z</time>
      </trkpt>
      <trkpt lat="44.62144" lon="6.213">
        <ele>1351.75</ele>
        <time>2019-06-12T06:26:01Z</time>
      </trkpt>
      <trkpt lat="44.62142" lon="6.21306">
        <ele>1352.23</ele>
        <time>2019-06-12T06:26:05Z</time>
      </trkpt>
      <trkpt lat="44.6214" lon="6.21316">
        <ele>1352.71</ele>
        <time>2019-06-12T06:26:11Z</time>
      </trkpt>
      <trkpt lat="44.62136" lon="6.2134">
        <ele>1353.19</ele>
        <time>2019-06-12T06:26:26Z</time>
      </trkpt>
      <trkpt lat="44.62135" lon="6.21352">
        <ele>1353.67</ele>
        <time>2019-06-12T06:26:33Z</time>
      </trkpt>
      <trkpt lat="44.62134" lon="6.21367">
        <ele>1354.15</ele>
        <time>2019-06-12T06:26:48Z</time>
      </trkpt>
      <trkpt lat="44.62135" lon="6.21385">
        <ele>1354.63</ele>
        <time>2019-06-12T06:27:02Z</time>
      </trkpt>
      <trkpt lat="44.62136" lon="6.21384">
        <ele>1354.63</ele>
        <time>2019-06-12T06:27:22Z</time>
      </trkpt>
      <trkpt lat="44.62134" lon="6.21383">
        <ele>1354.15</ele>
        <time>2019-06-12T06:27:44Z</time>
      </trkpt>
      <trkpt lat="44.62132" lon="6.21381">
        <ele>1354.15</ele>
        <time>2019-06-12T06:28:17Z</time>
      </trkpt>
      <trkpt lat="44.62136" lon="6.21379">
        <ele>1354.15</ele>
        <time>2019-06-12T06:28:48Z</time>
      </trkpt>
      <trkpt lat="44.62136" lon="6.21387">
        <ele>1354.15</ele>
        <time>2019-06-12T06:29:12Z</time>
      </trkpt>
      <trkpt lat="44.62137" lon="6.21389">
        <ele>1354.15</ele>
        <time>2019-06-12T06:29:39Z</time>
      </trkpt>
      <trkpt lat="44.62134" lon="6.21388">
        <ele>1354.15</ele>
        <time>2019-06-12T06:30:01Z</time>
      </trkpt>
      <trkpt lat="44.62132" lon="6.21396">
        <ele>1354.15</ele>
        <time>2019-06-12T06:30:37Z</time>
      </trkpt>
      <trkpt lat="44.62129" lon="6.21404">
        <ele>1354.15</ele>
        <time>2019-06-12T06:30:43Z</time>
      </trkpt>
      <trkpt lat="44.6212" lon="6.21424">
        <ele>1354.15</ele>
        <time>2019-06-12T06:30:59Z</time>
      </trkpt>
      <trkpt lat="44.62112" lon="6.21446">
        <ele>1355.12</ele>
        <time>2019-06-12T06:31:15Z</time>
      </trkpt>
      <trkpt lat="44.62104" lon="6.21467">
        <ele>1355.6</ele>
        <time>2019-06-12T06:31:31Z</time>
      </trkpt>
      <trkpt lat="44.621" lon="6.21488">
        <ele>1355.6</ele>
        <time>2019-06-12T06:31:47Z</time>
      </trkpt>
      <trkpt lat="44.62097" lon="6.21509">
        <ele>1356.56</ele>
        <time>2019-06-12T06:32:02Z</time>
      </trkpt>
      <trkpt lat="44.62097" lon="6.2151">
        <ele>1356.56</ele>
        <time>2019-06-12T06:32:03Z</time>
      </trkpt>
      <trkpt lat="44.62096" lon="6.21538">
        <ele>1357.04</ele>
        <time>2019-06-12T06:32:20Z</time>
      </trkpt>
      <trkpt lat="44.62097" lon="6.21553">
        <ele>1358</ele>
        <time>2019-06-12T06:32:32Z</time>
      </trkpt>
      <trkpt lat="44.62098" lon="6.21558">
        <ele>1358.48</ele>
        <time>2019-06-12T06:32:34Z</time>
      </trkpt>
      <trkpt lat="44.62099" lon="6.21569">
        <ele>1358.48</ele>
        <time>2019-06-12T06:32:44Z</time>
      </trkpt>
      <trkpt lat="44.621" lon="6.21574">
        <ele>1358.96</ele>
        <time>2019-06-12T06:32:47Z</time>
      </trkpt>
      <trkpt lat="44.621" lon="6.21576">
        <ele>1358.96</ele>
        <time>2019-06-12T06:32:48Z</time>
      </trkpt>
      <trkpt lat="44.62101" lon="6.21579">
        <ele>1358.96</ele>
        <time>2019-06-12T06:32:49Z</time>
      </trkpt>
      <trkpt lat="44.62105" lon="6.21601">
        <ele>1359.44</ele>
        <time>2019-06-12T06:33:00Z</time>
      </trkpt>
      <trkpt lat="44.62103" lon="6.21602">
        <ele>1359.44</ele>
        <time>2019-06-12T06:33:03Z</time>
      </trkpt>
      <trkpt lat="44.62103" lon="6.21604">
        <ele>1359.44</ele>
        <time>2019-06-12T06:33:04Z</time>
      </trkpt>
      <trkpt lat="44.62103" lon="6.21607">
        <ele>1359.92</ele>
        <time>2019-06-12T06:33:05Z</time>
      </trkpt>
      <trkpt lat="44.62103" lon="6.21609">
        <ele>1359.92</ele>
        <time>2019-06-12T06:33:06Z</time>
      </trkpt>
      <trkpt lat="44.62103" lon="6.21612">
        <ele>1359.92</ele>
        <time>2019-06-12T06:33:07Z</time>
      </trkpt>
      <trkpt lat="44.62101" lon="6.21624">
        <ele>1360.4</ele>
        <time>2019-06-12T06:33:17Z</time>
      </trkpt>
      <trkpt lat="44.62102" lon="6.21625">
        <ele>1360.4</ele>
        <time>2019-06-12T06:33:18Z</time>
      </trkpt>
      <trkpt lat="44.62102" lon="6.21627">
        <ele>1360.4</ele>
        <time>2019-06-12T06:33:19Z</time>
      </trkpt>
      <trkpt lat="44.62102" lon="6.2163">
        <ele>1360.4</ele>
        <time>2019-06-12T06:33:20Z</time>
      </trkpt>
      <trkpt lat="44.62102" lon="6.21632">
        <ele>1360.4</ele>
        <time>2019-06-12T06:33:21Z</time>
      </trkpt>
      <trkpt lat="44.62101" lon="6.21638">
        <ele>1360.88</ele>
        <time>2019-06-12T06:33:28Z</time>
      </trkpt>
      <trkpt lat="44.62102" lon="6.21641">
        <ele>1361.36</ele>
        <time>2019-06-12T06:33:30Z</time>
      </trkpt>
      <trkpt lat="44.621" lon="6.21652">
        <ele>1361.84</ele>
        <time>2019-06-12T06:33:37Z</time>
      </trkpt>
      <trkpt lat="44.62099" lon="6.21666">
        <ele>1361.84</ele>
        <time>2019-06-12T06:33:46Z</time>
      </trkpt>
      <trkpt lat="44.62099" lon="6.21668">
        <ele>1361.84</ele>
        <time>2019-06-12T06:33:47Z</time>
      </trkpt>
      <trkpt lat="44.62097" lon="6.21678">
        <ele>1362.33</ele>
        <time>2019-06-12T06:33:54Z</time>
      </trkpt>
      <trkpt lat="44.62097" lon="6.2168">
        <ele>1362.33</ele>
        <time>2019-06-12T06:33:56Z</time>
      </trkpt>
      <trkpt lat="44.62097" lon="6.21683">
        <ele>1362.33</ele>
        <time>2019-06-12T06:33:57Z</time>
      </trkpt>
      <trkpt lat="44.62097" lon="6.21686">
        <ele>1362.33</ele>
        <time>2019-06-12T06:33:58Z</time>
      </trkpt>
      <trkpt lat="44.62094" lon="6.21698">
        <ele>1362.81</ele>
        <time>2019-06-12T06:34:08Z</time>
      </trkpt>
      <trkpt lat="44.6209" lon="6.21715">
        <ele>1363.77</ele>
        <time>2019-06-12T06:34:20Z</time>
      </trkpt>
      <trkpt lat="44.62082" lon="6.21729">
        <ele>1363.77</ele>
        <time>2019-06-12T06:34:34Z</time>
      </trkpt>
      <trkpt lat="44.62077" lon="6.21739">
        <ele>1363.77</ele>
        <time>2019-06-12T06:34:50Z</time>
      </trkpt>
      <trkpt lat="44.62069" lon="6.21757">
        <ele>1364.25</ele>
        <time>2019-06-12T06:35:05Z</time>
      </trkpt>
      <trkpt lat="44.62063" lon="6.21767">
        <ele>1364.25</ele>
        <time>2019-06-12T06:35:11Z</time>
      </trkpt>
      <trkpt lat="44.62056" lon="6.21791">
        <ele>1365.69</ele>
        <time>2019-06-12T06:35:24Z</time>
      </trkpt>
      <trkpt lat="44.62051" lon="6.2181">
        <ele>1366.65</ele>
        <time>2019-06-12T06:35:40Z</time>
      </trkpt>
      <trkpt lat="44.62049" lon="6.21835">
        <ele>1366.65</ele>
        <time>2019-06-12T06:35:57Z</time>
      </trkpt>
      <trkpt lat="44.6205" lon="6.21854">
        <ele>1367.13</ele>
        <time>2019-06-12T06:36:12Z</time>
      </trkpt>
      <trkpt lat="44.62047" lon="6.21882">
        <ele>1367.61</ele>
        <time>2019-06-12T06:36:27Z</time>
      </trkpt>
      <trkpt lat="44.62047" lon="6.21906">
        <ele>1368.57</ele>
        <time>2019-06-12T06:36:46Z</time>
      </trkpt>
      <trkpt lat="44.62042" lon="6.21934">
        <ele>1370.02</ele>
        <time>2019-06-12T06:37:06Z</time>
      </trkpt>
      <trkpt lat="44.62036" lon="6.2197">
        <ele>1370.5</ele>
        <time>2019-06-12T06:37:24Z</time>
      </trkpt>
      <trkpt lat="44.62036" lon="6.21977">
        <ele>1370.98</ele>
        <time>2019-06-12T06:37:30Z</time>
      </trkpt>
      <trkpt lat="44.62033" lon="6.21991">
        <ele>1372.42</ele>
        <time>2019-06-12T06:37:42Z</time>
      </trkpt>
      <trkpt lat="44.62031" lon="6.22007">
        <ele>1372.42</ele>
        <time>2019-06-12T06:37:53Z</time>
      </trkpt>
      <trkpt lat="44.62027" lon="6.22032">
        <ele>1372.9</ele>
        <time>2019-06-12T06:38:09Z</time>
      </trkpt>
      <trkpt lat="44.62027" lon="6.22035">
        <ele>1373.38</ele>
        <time>2019-06-12T06:38:11Z</time>
      </trkpt>
      <trkpt lat="44.62027" lon="6.22037">
        <ele>1373.38</ele>
        <time>2019-06-12T06:38:12Z</time>
      </trkpt>
      <trkpt lat="44.62027" lon="6.22062">
        <ele>1373.38</ele>
        <time>2019-06-12T06:38:27Z</time>
      </trkpt>
      <trkpt lat="44.62028" lon="6.22069">
        <ele>1373.38</ele>
        <time>2019-06-12T06:38:33Z</time>
      </trkpt>
      <trkpt lat="44.62028" lon="6.22071">
        <ele>1373.38</ele>
        <time>2019-06-12T06:38:34Z</time>
      </trkpt>
      <trkpt lat="44.62035" lon="6.22093">
        <ele>1373.38</ele>
        <time>2019-06-12T06:38:48Z</time>
      </trkpt>
      <trkpt lat="44.62035" lon="6.22095">
        <ele>1373.38</ele>
        <time>2019-06-12T06:38:49Z</time>
      </trkpt>
      <trkpt lat="44.62036" lon="6.22096">
        <ele>1373.38</ele>
        <time>2019-06-12T06:38:50Z</time>
      </trkpt>
      <trkpt lat="44.62036" lon="6.22098">
        <ele>1373.38</ele>
        <time>2019-06-12T06:38:51Z</time>
      </trkpt>
      <trkpt lat="44.62039" lon="6.2211">
        <ele>1373.86</ele>
        <time>2019-06-12T06:38:59Z</time>
      </trkpt>
      <trkpt lat="44.62041" lon="6.22113">
        <ele>1373.86</ele>
        <time>2019-06-12T06:39:02Z</time>
      </trkpt>
      <trkpt lat="44.62044" lon="6.22126">
        <ele>1373.86</ele>
        <time>2019-06-12T06:39:10Z</time>
      </trkpt>
      <trkpt lat="44.62044" lon="6.22144">
        <ele>1374.34</ele>
        <time>2019-06-12T06:39:22Z</time>
      </trkpt>
      <trkpt lat="44.62038" lon="6.22169">
        <ele>1374.82</ele>
        <time>2019-06-12T06:39:38Z</time>
      </trkpt>
      <trkpt lat="44.62037" lon="6.22173">
        <ele>1374.82</ele>
        <time>2019-06-12T06:39:41Z</time>
      </trkpt>
      <trkpt lat="44.62038" lon="6.22175">
        <ele>1374.82</ele>
        <time>2019-06-12T06:39:42Z</time>
      </trkpt>
      <trkpt lat="44.62038" lon="6.22176">
        <ele>1374.82</ele>
        <time>2019-06-12T06:39:43Z</time>
      </trkpt>
      <trkpt lat="44.62039" lon="6.22177">
        <ele>1374.82</ele>
        <time>2019-06-12T06:39:44Z</time>
      </trkpt>
      <trkpt lat="44.62039" lon="6.22179">
        <ele>1374.82</ele>
        <time>2019-06-12T06:39:45Z</time>
      </trkpt>
      <trkpt lat="44.62039" lon="6.22189">
        <ele>1375.3</ele>
        <time>2019-06-12T06:39:51Z</time>
      </trkpt>
      <trkpt lat="44.62039" lon="6.2219">
        <ele>1375.3</ele>
        <time>2019-06-12T06:39:52Z</time>
      </trkpt>
      <trkpt lat="44.62038" lon="6.22209">
        <ele>1375.78</ele>
        <time>2019-06-12T06:40:06Z</time>
      </trkpt>
      <trkpt lat="44.62035" lon="6.22222">
        <ele>1376.26</ele>
        <time>2019-06-12T06:40:14Z</time>
      </trkpt>
      <trkpt lat="44.62035" lon="6.22224">
        <ele>1376.26</ele>
        <time>2019-06-12T06:40:16Z</time>
      </trkpt>
      <trkpt lat="44.62035" lon="6.22226">
        <ele>1376.26</ele>
        <time>2019-06-12T06:40:17Z</time>
      </trkpt>
      <trkpt lat="44.62034" lon="6.22227">
        <ele>1376.26</ele>
        <time>2019-06-12T06:40:18Z</time>
      </trkpt>
      <trkpt lat="44.62026" lon="6.2225">
        <ele>1377.71</ele>
        <time>2019-06-12T06:40:34Z</time>
      </trkpt>
      <trkpt lat="44.62027" lon="6.22277">
        <ele>1377.71</ele>
        <time>2019-06-12T06:40:50Z</time>
      </trkpt>
      <trkpt lat="44.62033" lon="6.22299">
        <ele>1378.19</ele>
        <time>2019-06-12T06:41:05Z</time>
      </trkpt>
      <trkpt lat="44.6203" lon="6.22317">
        <ele>1378.67</ele>
        <time>2019-06-12T06:41:18Z</time>
      </trkpt>
      <trkpt lat="44.62025" lon="6.22343">
        <ele>1380.11</ele>
        <time>2019-06-12T06:41:35Z</time>
      </trkpt>
      <trkpt lat="44.62018" lon="6.2237">
        <ele>1380.59</ele>
        <time>2019-06-12T06:41:52Z</time>
      </trkpt>
      <trkpt lat="44.62016" lon="6.2239">
        <ele>1381.55</ele>
        <time>2019-06-12T06:42:06Z</time>
      </trkpt>
      <trkpt lat="44.62011" lon="6.22408">
        <ele>1381.55</ele>
        <time>2019-06-12T06:42:18Z</time>
      </trkpt>
      <trkpt lat="44.62008" lon="6.22417">
        <ele>1382.03</ele>
        <time>2019-06-12T06:42:23Z</time>
      </trkpt>
      <trkpt lat="44.62008" lon="6.22419">
        <ele>1382.03</ele>
        <time>2019-06-12T06:42:24Z</time>
      </trkpt>
      <trkpt lat="44.62007" lon="6.22439">
        <ele>1382.99</ele>
        <time>2019-06-12T06:42:38Z</time>
      </trkpt>
      <trkpt lat="44.62007" lon="6.22461">
        <ele>1383.96</ele>
        <time>2019-06-12T06:42:54Z</time>
      </trkpt>
      <trkpt lat="44.62005" lon="6.22469">
        <ele>1383.96</ele>
        <time>2019-06-12T06:43:00Z</time>
      </trkpt>
      <trkpt lat="44.62005" lon="6.2247">
        <ele>1384.44</ele>
        <time>2019-06-12T06:43:01Z</time>
      </trkpt>
      <trkpt lat="44.6201" lon="6.22494">
        <ele>1386.36</ele>
        <time>2019-06-12T06:43:18Z</time>
      </trkpt>
      <trkpt lat="44.62013" lon="6.22516">
        <ele>1386.36</ele>
        <time>2019-06-12T06:43:34Z</time>
      </trkpt>
      <trkpt lat="44.62014" lon="6.22527">
        <ele>1386.84</ele>
        <time>2019-06-12T06:43:42Z</time>
      </trkpt>
      <trkpt lat="44.62011" lon="6.22549">
        <ele>1386.84</ele>
        <time>2019-06-12T06:43:55Z</time>
      </trkpt>
      <trkpt lat="44.62006" lon="6.2257">
        <ele>1387.8</ele>
        <time>2019-06-12T06:44:10Z</time>
      </trkpt>
      <trkpt lat="44.62003" lon="6.2258">
        <ele>1387.8</ele>
        <time>2019-06-12T06:44:17Z</time>
      </trkpt>
      <trkpt lat="44.61995" lon="6.22605">
        <ele>1388.76</ele>
        <time>2019-06-12T06:44:32Z</time>
      </trkpt>
      <trkpt lat="44.61994" lon="6.22607">
        <ele>1389.24</ele>
        <time>2019-06-12T06:44:34Z</time>
      </trkpt>
      <trkpt lat="44.61991" lon="6.22624">
        <ele>1389.72</ele>
        <time>2019-06-12T06:44:46Z</time>
      </trkpt>
      <trkpt lat="44.61991" lon="6.22648">
        <ele>1390.2</ele>
        <time>2019-06-12T06:45:00Z</time>
      </trkpt>
      <trkpt lat="44.61998" lon="6.2266">
        <ele>1390.68</ele>
        <time>2019-06-12T06:45:08Z</time>
      </trkpt>
      <trkpt lat="44.61998" lon="6.22662">
        <ele>1390.68</ele>
        <time>2019-06-12T06:45:09Z</time>
      </trkpt>
      <trkpt lat="44.62004" lon="6.22684">
        <ele>1391.17</ele>
        <time>2019-06-12T06:45:22Z</time>
      </trkpt>
      <trkpt lat="44.62006" lon="6.2269">
        <ele>1391.17</ele>
        <time>2019-06-12T06:45:27Z</time>
      </trkpt>
      <trkpt lat="44.62007" lon="6.2271">
        <ele>1392.13</ele>
        <time>2019-06-12T06:45:41Z</time>
      </trkpt>
      <trkpt lat="44.62006" lon="6.22716">
        <ele>1392.13</ele>
        <time>2019-06-12T06:45:45Z</time>
      </trkpt>
      <trkpt lat="44.62" lon="6.22733">
        <ele>1393.09</ele>
        <time>2019-06-12T06:45:57Z</time>
      </trkpt>
      <trkpt lat="44.62001" lon="6.2274">
        <ele>1392.61</ele>
        <time>2019-06-12T06:46:02Z</time>
      </trkpt>
      <trkpt lat="44.62006" lon="6.22761">
        <ele>1393.57</ele>
        <time>2019-06-12T06:46:15Z</time>
      </trkpt>
      <trkpt lat="44.62013" lon="6.22783">
        <ele>1394.05</ele>
        <time>2019-06-12T06:46:29Z</time>
      </trkpt>
      <trkpt lat="44.62022" lon="6.228">
        <ele>1395.49</ele>
        <time>2019-06-12T06:46:42Z</time>
      </trkpt>
      <trkpt lat="44.62023" lon="6.22813">
        <ele>1395.49</ele>
        <time>2019-06-12T06:46:50Z</time>
      </trkpt>
      <trkpt lat="44.62023" lon="6.22815">
        <ele>1395.49</ele>
        <time>2019-06-12T06:46:51Z</time>
      </trkpt>
      <trkpt lat="44.62031" lon="6.22833">
        <ele>1395.97</ele>
        <time>2019-06-12T06:47:04Z</time>
      </trkpt>
      <trkpt lat="44.6203" lon="6.22855">
        <ele>1396.93</ele>
        <time>2019-06-12T06:47:17Z</time>
      </trkpt>
      <trkpt lat="44.62034" lon="6.22868">
        <ele>1397.41</ele>
        <time>2019-06-12T06:47:24Z</time>
      </trkpt>
      <trkpt lat="44.62034" lon="6.2287">
        <ele>1397.41</ele>
        <time>2019-06-12T06:47:25Z</time>
      </trkpt>
      <trkpt lat="44.6204" lon="6.22872">
        <ele>1397.89</ele>
        <time>2019-06-12T06:47:29Z</time>
      </trkpt>
      <trkpt lat="44.62055" lon="6.2288">
        <ele>1398.37</ele>
        <time>2019-06-12T06:47:42Z</time>
      </trkpt>
      <trkpt lat="44.62058" lon="6.22896">
        <ele>1399.34</ele>
        <time>2019-06-12T06:47:52Z</time>
      </trkpt>
      <trkpt lat="44.6206" lon="6.22911">
        <ele>1399.82</ele>
        <time>2019-06-12T06:48:02Z</time>
      </trkpt>
      <trkpt lat="44.62059" lon="6.22912">
        <ele>1399.82</ele>
        <time>2019-06-12T06:48:04Z</time>
      </trkpt>
      <trkpt lat="44.62061" lon="6.22921">
        <ele>1400.78</ele>
        <time>2019-06-12T06:48:14Z</time>
      </trkpt>
      <trkpt lat="44.62062" lon="6.22924">
        <ele>1400.78</ele>
        <time>2019-06-12T06:48:15Z</time>
      </trkpt>
      <trkpt lat="44.62062" lon="6.22926">
        <ele>1400.78</ele>
        <time>2019-06-12T06:48:16Z</time>
      </trkpt>
      <trkpt lat="44.62063" lon="6.22929">
        <ele>1400.78</ele>
        <time>2019-06-12T06:48:17Z</time>
      </trkpt>
      <trkpt lat="44.62064" lon="6.22932">
        <ele>1400.78</ele>
        <time>2019-06-12T06:48:18Z</time>
      </trkpt>
      <trkpt lat="44.62065" lon="6.22935">
        <ele>1400.78</ele>
        <time>2019-06-12T06:48:19Z</time>
      </trkpt>
      <trkpt lat="44.62065" lon="6.22937">
        <ele>1401.26</ele>
        <time>2019-06-12T06:48:20Z</time>
      </trkpt>
      <trkpt lat="44.62065" lon="6.2294">
        <ele>1401.26</ele>
        <time>2019-06-12T06:48:21Z</time>
      </trkpt>
      <trkpt lat="44.62065" lon="6.22942">
        <ele>1401.26</ele>
        <time>2019-06-12T06:48:22Z</time>
      </trkpt>
      <trkpt lat="44.62065" lon="6.22947">
        <ele>1401.74</ele>
        <time>2019-06-12T06:48:29Z</time>
      </trkpt>
      <trkpt lat="44.62065" lon="6.22949">
        <ele>1401.74</ele>
        <time>2019-06-12T06:48:30Z</time>
      </trkpt>
      <trkpt lat="44.62065" lon="6.22951">
        <ele>1401.74</ele>
        <time>2019-06-12T06:48:31Z</time>
      </trkpt>
      <trkpt lat="44.62063" lon="6.22968">
        <ele>1402.7</ele>
        <time>2019-06-12T06:48:42Z</time>
      </trkpt>
      <trkpt lat="44.62064" lon="6.22971">
        <ele>1402.7</ele>
        <time>2019-06-12T06:48:43Z</time>
      </trkpt>
      <trkpt lat="44.62065" lon="6.22973">
        <ele>1402.7</ele>
        <time>2019-06-12T06:48:44Z</time>
      </trkpt>
      <trkpt lat="44.62068" lon="6.22984">
        <ele>1403.66</ele>
        <time>2019-06-12T06:48:55Z</time>
      </trkpt>
      <trkpt lat="44.6207" lon="6.23">
        <ele>1404.14</ele>
        <time>2019-06-12T06:49:05Z</time>
      </trkpt>
      <trkpt lat="44.62069" lon="6.23002">
        <ele>1404.62</ele>
        <time>2019-06-12T06:49:07Z</time>
      </trkpt>
      <trkpt lat="44.62069" lon="6.23004">
        <ele>1404.62</ele>
        <time>2019-06-12T06:49:08Z</time>
      </trkpt>
      <trkpt lat="44.6207" lon="6.23007">
        <ele>1404.62</ele>
        <time>2019-06-12T06:49:09Z</time>
      </trkpt>
      <trkpt lat="44.62071" lon="6.2301">
        <ele>1404.62</ele>
        <time>2019-06-12T06:49:10Z</time>
      </trkpt>
      <trkpt lat="44.62073" lon="6.23013">
        <ele>1404.62</ele>
        <time>2019-06-12T06:49:11Z</time>
      </trkpt>
      <trkpt lat="44.62073" lon="6.23016">
        <ele>1404.62</ele>
        <time>2019-06-12T06:49:12Z</time>
      </trkpt>
      <trkpt lat="44.62073" lon="6.23018">
        <ele>1404.62</ele>
        <time>2019-06-12T06:49:13Z</time>
      </trkpt>
      <trkpt lat="44.62074" lon="6.23019">
        <ele>1404.62</ele>
        <time>2019-06-12T06:49:14Z</time>
      </trkpt>
      <trkpt lat="44.62075" lon="6.23022">
        <ele>1404.62</ele>
        <time>2019-06-12T06:49:18Z</time>
      </trkpt>
      <trkpt lat="44.62077" lon="6.23023">
        <ele>1404.62</ele>
        <time>2019-06-12T06:49:19Z</time>
      </trkpt>
      <trkpt lat="44.62079" lon="6.23025">
        <ele>1404.62</ele>
        <time>2019-06-12T06:49:20Z</time>
      </trkpt>
      <trkpt lat="44.62086" lon="6.23043">
        <ele>1404.62</ele>
        <time>2019-06-12T06:49:31Z</time>
      </trkpt>
      <trkpt lat="44.62086" lon="6.2305">
        <ele>1405.1</ele>
        <time>2019-06-12T06:49:43Z</time>
      </trkpt>
      <trkpt lat="44.62086" lon="6.23051">
        <ele>1405.58</ele>
        <time>2019-06-12T06:49:44Z</time>
      </trkpt>
      <trkpt lat="44.62087" lon="6.23054">
        <ele>1405.58</ele>
        <time>2019-06-12T06:49:45Z</time>
      </trkpt>
      <trkpt lat="44.62088" lon="6.23057">
        <ele>1405.58</ele>
        <time>2019-06-12T06:49:46Z</time>
      </trkpt>
      <trkpt lat="44.62088" lon="6.2306">
        <ele>1405.58</ele>
        <time>2019-06-12T06:49:47Z</time>
      </trkpt>
      <trkpt lat="44.62088" lon="6.23062">
        <ele>1405.58</ele>
        <time>2019-06-12T06:49:48Z</time>
      </trkpt>
      <trkpt lat="44.62088" lon="6.23065">
        <ele>1405.58</ele>
        <time>2019-06-12T06:49:49Z</time>
      </trkpt>
      <trkpt lat="44.62088" lon="6.23074">
        <ele>1406.55</ele>
        <time>2019-06-12T06:49:58Z</time>
      </trkpt>
      <trkpt lat="44.62088" lon="6.23076">
        <ele>1406.55</ele>
        <time>2019-06-12T06:49:59Z</time>
      </trkpt>
      <trkpt lat="44.62089" lon="6.23079">
        <ele>1406.55</ele>
        <time>2019-06-12T06:50:00Z</time>
      </trkpt>
      <trkpt lat="44.62089" lon="6.23082">
        <ele>1406.55</ele>
        <time>2019-06-12T06:50:01Z</time>
      </trkpt>
      <trkpt lat="44.62089" lon="6.23085">
        <ele>1406.55</ele>
        <time>2019-06-12T06:50:02Z</time>
      </trkpt>
      <trkpt lat="44.6209" lon="6.23089">
        <ele>1406.55</ele>
        <time>2019-06-12T06:50:03Z</time>
      </trkpt>
      <trkpt lat="44.6209" lon="6.23091">
        <ele>1406.55</ele>
        <time>2019-06-12T06:50:04Z</time>
      </trkpt>
      <trkpt lat="44.6209" lon="6.23093">
        <ele>1406.55</ele>
        <time>2019-06-12T06:50:05Z</time>
      </trkpt>
      <trkpt lat="44.6209" lon="6.23095">
        <ele>1406.55</ele>
        <time>2019-06-12T06:50:06Z</time>
      </trkpt>
      <trkpt lat="44.6209" lon="6.23096">
        <ele>1406.55</ele>
        <time>2019-06-12T06:50:07Z</time>
      </trkpt>
      <trkpt lat="44.62088" lon="6.23107">
        <ele>1406.07</ele>
        <time>2019-06-12T06:50:20Z</time>
      </trkpt>
      <trkpt lat="44.62088" lon="6.2311">
        <ele>1406.55</ele>
        <time>2019-06-12T06:50:21Z</time>
      </trkpt>
      <trkpt lat="44.62088" lon="6.23112">
        <ele>1406.55</ele>
        <time>2019-06-12T06:50:22Z</time>
      </trkpt>
      <trkpt lat="44.62088" lon="6.23116">
        <ele>1406.07</ele>
        <time>2019-06-12T06:50:24Z</time>
      </trkpt>
      <trkpt lat="44.62088" lon="6.23118">
        <ele>1406.55</ele>
        <time>2019-06-12T06:50:25Z</time>
      </trkpt>
      <trkpt lat="44.62086" lon="6.23143">
        <ele>1406.55</ele>
        <time>2019-06-12T06:50:36Z</time>
      </trkpt>
      <trkpt lat="44.62084" lon="6.23157">
        <ele>1407.03</ele>
        <time>2019-06-12T06:50:46Z</time>
      </trkpt>
      <trkpt lat="44.62088" lon="6.23166">
        <ele>1407.51</ele>
        <time>2019-06-12T06:50:57Z</time>
      </trkpt>
      <trkpt lat="44.62088" lon="6.23177">
        <ele>1407.51</ele>
        <time>2019-06-12T06:51:08Z</time>
      </trkpt>
      <trkpt lat="44.62088" lon="6.23179">
        <ele>1407.51</ele>
        <time>2019-06-12T06:51:09Z</time>
      </trkpt>
      <trkpt lat="44.62085" lon="6.23197">
        <ele>1410.39</ele>
        <time>2019-06-12T06:51:23Z</time>
      </trkpt>
      <trkpt lat="44.62085" lon="6.23217">
        <ele>1408.47</ele>
        <time>2019-06-12T06:51:35Z</time>
      </trkpt>
      <trkpt lat="44.62085" lon="6.23219">
        <ele>1408.47</ele>
        <time>2019-06-12T06:51:36Z</time>
      </trkpt>
      <trkpt lat="44.62085" lon="6.23221">
        <ele>1408.47</ele>
        <time>2019-06-12T06:51:37Z</time>
      </trkpt>
      <trkpt lat="44.62085" lon="6.23223">
        <ele>1408.47</ele>
        <time>2019-06-12T06:51:38Z</time>
      </trkpt>
      <trkpt lat="44.62085" lon="6.23226">
        <ele>1408.47</ele>
        <time>2019-06-12T06:51:39Z</time>
      </trkpt>
      <trkpt lat="44.62086" lon="6.23229">
        <ele>1408.47</ele>
        <time>2019-06-12T06:51:40Z</time>
      </trkpt>
      <trkpt lat="44.62086" lon="6.23232">
        <ele>1408.47</ele>
        <time>2019-06-12T06:51:41Z</time>
      </trkpt>
      <trkpt lat="44.62086" lon="6.23235">
        <ele>1408.47</ele>
        <time>2019-06-12T06:51:42Z</time>
      </trkpt>
      <trkpt lat="44.62086" lon="6.23237">
        <ele>1409.91</ele>
        <time>2019-06-12T06:51:43Z</time>
      </trkpt>
      <trkpt lat="44.62085" lon="6.23245">
        <ele>1409.91</ele>
        <time>2019-06-12T06:51:52Z</time>
      </trkpt>
      <trkpt lat="44.62086" lon="6.23255">
        <ele>1409.91</ele>
        <time>2019-06-12T06:51:56Z</time>
      </trkpt>
      <trkpt lat="44.62085" lon="6.23258">
        <ele>1410.39</ele>
        <time>2019-06-12T06:51:57Z</time>
      </trkpt>
      <trkpt lat="44.62085" lon="6.23259">
        <ele>1410.39</ele>
        <time>2019-06-12T06:51:58Z</time>
      </trkpt>
      <trkpt lat="44.62084" lon="6.23265">
        <ele>1410.39</ele>
        <time>2019-06-12T06:52:05Z</time>
      </trkpt>
      <trkpt lat="44.62084" lon="6.23267">
        <ele>1410.39</ele>
        <time>2019-06-12T06:52:06Z</time>
      </trkpt>
      <trkpt lat="44.62085" lon="6.2327">
        <ele>1410.39</ele>
        <time>2019-06-12T06:52:07Z</time>
      </trkpt>
      <trkpt lat="44.62085" lon="6.23272">
        <ele>1410.87</ele>
        <time>2019-06-12T06:52:08Z</time>
      </trkpt>
      <trkpt lat="44.62086" lon="6.23275">
        <ele>1410.87</ele>
        <time>2019-06-12T06:52:09Z</time>
      </trkpt>
      <trkpt lat="44.62086" lon="6.23279">
        <ele>1410.87</ele>
        <time>2019-06-12T06:52:10Z</time>
      </trkpt>
      <trkpt lat="44.62086" lon="6.23282">
        <ele>1410.87</ele>
        <time>2019-06-12T06:52:11Z</time>
      </trkpt>
      <trkpt lat="44.62085" lon="6.23284">
        <ele>1410.87</ele>
        <time>2019-06-12T06:52:12Z</time>
      </trkpt>
      <trkpt lat="44.62082" lon="6.23294">
        <ele>1411.35</ele>
        <time>2019-06-12T06:52:21Z</time>
      </trkpt>
      <trkpt lat="44.62082" lon="6.23296">
        <ele>1412.31</ele>
        <time>2019-06-12T06:52:22Z</time>
      </trkpt>
      <trkpt lat="44.62082" lon="6.23297">
        <ele>1412.31</ele>
        <time>2019-06-12T06:52:23Z</time>
      </trkpt>
      <trkpt lat="44.62082" lon="6.23298">
        <ele>1411.83</ele>
        <time>2019-06-12T06:52:24Z</time>
      </trkpt>
      <trkpt lat="44.62083" lon="6.23308">
        <ele>1412.79</ele>
        <time>2019-06-12T06:52:34Z</time>
      </trkpt>
      <trkpt lat="44.62085" lon="6.23327">
        <ele>1413.28</ele>
        <time>2019-06-12T06:52:44Z</time>
      </trkpt>
      <trkpt lat="44.62089" lon="6.2334">
        <ele>1413.76</ele>
        <time>2019-06-12T06:52:57Z</time>
      </trkpt>
      <trkpt lat="44.6209" lon="6.23346">
        <ele>1414.24</ele>
        <time>2019-06-12T06:53:09Z</time>
      </trkpt>
      <trkpt lat="44.62092" lon="6.23362">
        <ele>1415.68</ele>
        <time>2019-06-12T06:53:21Z</time>
      </trkpt>
      <trkpt lat="44.62089" lon="6.23384">
        <ele>1417.12</ele>
        <time>2019-06-12T06:53:33Z</time>
      </trkpt>
      <trkpt lat="44.62088" lon="6.23392">
        <ele>1417.6</ele>
        <time>2019-06-12T06:53:38Z</time>
      </trkpt>
      <trkpt lat="44.62089" lon="6.2341">
        <ele>1419.04</ele>
        <time>2019-06-12T06:53:50Z</time>
      </trkpt>
      <trkpt lat="44.6209" lon="6.23421">
        <ele>1420.49</ele>
        <time>2019-06-12T06:53:57Z</time>
      </trkpt>
      <trkpt lat="44.6209" lon="6.23422">
        <ele>1420.49</ele>
        <time>2019-06-12T06:53:58Z</time>
      </trkpt>
      <trkpt lat="44.62093" lon="6.23436">
        <ele>1420.49</ele>
        <time>2019-06-12T06:54:11Z</time>
      </trkpt>
      <trkpt lat="44.62096" lon="6.23443">
        <ele>1420.49</ele>
        <time>2019-06-12T06:54:17Z</time>
      </trkpt>
      <trkpt lat="44.62097" lon="6.23446">
        <ele>1420.49</ele>
        <time>2019-06-12T06:54:18Z</time>
      </trkpt>
      <trkpt lat="44.62098" lon="6.23448">
        <ele>1420.49</ele>
        <time>2019-06-12T06:54:19Z</time>
      </trkpt>
      <trkpt lat="44.62101" lon="6.23456">
        <ele>1420.97</ele>
        <time>2019-06-12T06:54:24Z</time>
      </trkpt>
      <trkpt lat="44.62105" lon="6.23466">
        <ele>1421.45</ele>
        <time>2019-06-12T06:54:30Z</time>
      </trkpt>
      <trkpt lat="44.62106" lon="6.23468">
        <ele>1421.93</ele>
        <time>2019-06-12T06:54:31Z</time>
      </trkpt>
      <trkpt lat="44.62113" lon="6.23489">
        <ele>1422.41</ele>
        <time>2019-06-12T06:54:46Z</time>
      </trkpt>
      <trkpt lat="44.6212" lon="6.23515">
        <ele>1424.81</ele>
        <time>2019-06-12T06:55:04Z</time>
      </trkpt>
      <trkpt lat="44.62123" lon="6.23522">
        <ele>1425.29</ele>
        <time>2019-06-12T06:55:12Z</time>
      </trkpt>
      <trkpt lat="44.62127" lon="6.23523">
        <ele>1425.77</ele>
        <time>2019-06-12T06:55:16Z</time>
      </trkpt>
      <trkpt lat="44.62128" lon="6.23524">
        <ele>1425.77</ele>
        <time>2019-06-12T06:55:17Z</time>
      </trkpt>
      <trkpt lat="44.62133" lon="6.23535">
        <ele>1425.29</ele>
        <time>2019-06-12T06:55:25Z</time>
      </trkpt>
      <trkpt lat="44.62135" lon="6.23538">
        <ele>1424.33</ele>
        <time>2019-06-12T06:55:28Z</time>
      </trkpt>
      <trkpt lat="44.62138" lon="6.23542">
        <ele>1424.33</ele>
        <time>2019-06-12T06:55:31Z</time>
      </trkpt>
      <trkpt lat="44.6214" lon="6.23548">
        <ele>1423.85</ele>
        <time>2019-06-12T06:55:35Z</time>
      </trkpt>
      <trkpt lat="44.62141" lon="6.2355">
        <ele>1423.85</ele>
        <time>2019-06-12T06:55:36Z</time>
      </trkpt>
      <trkpt lat="44.62146" lon="6.23561">
        <ele>1423.85</ele>
        <time>2019-06-12T06:55:44Z</time>
      </trkpt>
      <trkpt lat="44.62148" lon="6.23567">
        <ele>1423.85</ele>
        <time>2019-06-12T06:55:48Z</time>
      </trkpt>
      <trkpt lat="44.62153" lon="6.23576">
        <ele>1424.81</ele>
        <time>2019-06-12T06:56:03Z</time>
      </trkpt>
      <trkpt lat="44.62164" lon="6.23592">
        <ele>1425.29</ele>
        <time>2019-06-12T06:56:20Z</time>
      </trkpt>
      <trkpt lat="44.62164" lon="6.23591">
        <ele>1425.29</ele>
        <time>2019-06-12T06:56:26Z</time>
      </trkpt>
      <trkpt lat="44.62163" lon="6.23585">
        <ele>1425.29</ele>
        <time>2019-06-12T06:56:30Z</time>
      </trkpt>
      <trkpt lat="44.62169" lon="6.23578">
        <ele>1426.25</ele>
        <time>2019-06-12T06:56:43Z</time>
      </trkpt>
      <trkpt lat="44.62169" lon="6.23575">
        <ele>1424.81</ele>
        <time>2019-06-12T06:56:59Z</time>
      </trkpt>
      <trkpt lat="44.6217" lon="6.23576">
        <ele>1424.81</ele>
        <time>2019-06-12T06:57:30Z</time>
      </trkpt>
      <trkpt lat="44.62171" lon="6.23575">
        <ele>1424.81</ele>
        <time>2019-06-12T06:58:00Z</time>
      </trkpt>
      <trkpt lat="44.6217" lon="6.23576">
        <ele>1426.25</ele>
        <time>2019-06-12T06:58:13Z</time>
      </trkpt>
      <trkpt lat="44.62173" lon="6.23577">
        <ele>1426.25</ele>
        <time>2019-06-12T06:58:31Z</time>
      </trkpt>
      <trkpt lat="44.62173" lon="6.23579">
        <ele>1426.25</ele>
        <time>2019-06-12T06:58:48Z</time>
      </trkpt>
      <trkpt lat="44.62167" lon="6.23574">
        <ele>1426.25</ele>
        <time>2019-06-12T06:59:01Z</time>
      </trkpt>
      <trkpt lat="44.62173" lon="6.23575">
        <ele>1426.25</ele>
        <time>2019-06-12T06:59:13Z</time>
      </trkpt>
      <trkpt lat="44.62176" lon="6.23562">
        <ele>1423.85</ele>
        <time>2019-06-12T06:59:28Z</time>
      </trkpt>
      <trkpt lat="44.6218" lon="6.2354">
        <ele>1423.85</ele>
        <time>2019-06-12T06:59:43Z</time>
      </trkpt>
      <trkpt lat="44.62189" lon="6.23524">
        <ele>1423.85</ele>
        <time>2019-06-12T06:59:56Z</time>
      </trkpt>
      <trkpt lat="44.62194" lon="6.23514">
        <ele>1425.29</ele>
        <time>2019-06-12T07:00:06Z</time>
      </trkpt>
      <trkpt lat="44.62192" lon="6.23491">
        <ele>1425.77</ele>
        <time>2019-06-12T07:00:22Z</time>
      </trkpt>
      <trkpt lat="44.62192" lon="6.23489">
        <ele>1425.77</ele>
        <time>2019-06-12T07:00:23Z</time>
      </trkpt>
      <trkpt lat="44.62186" lon="6.23468">
        <ele>1426.25</ele>
        <time>2019-06-12T07:00:38Z</time>
      </trkpt>
      <trkpt lat="44.62185" lon="6.23454">
        <ele>1426.25</ele>
        <time>2019-06-12T07:00:46Z</time>
      </trkpt>
      <trkpt lat="44.62183" lon="6.23431">
        <ele>1426.25</ele>
        <time>2019-06-12T07:01:01Z</time>
      </trkpt>
      <trkpt lat="44.62186" lon="6.23406">
        <ele>1427.7</ele>
        <time>2019-06-12T07:01:17Z</time>
      </trkpt>
      <trkpt lat="44.62192" lon="6.23401">
        <ele>1430.58</ele>
        <time>2019-06-12T07:01:32Z</time>
      </trkpt>
      <trkpt lat="44.62197" lon="6.23409">
        <ele>1433.46</ele>
        <time>2019-06-12T07:01:44Z</time>
      </trkpt>
      <trkpt lat="44.622" lon="6.2341">
        <ele>1433.94</ele>
        <time>2019-06-12T07:01:49Z</time>
      </trkpt>
      <trkpt lat="44.62201" lon="6.23409">
        <ele>1433.94</ele>
        <time>2019-06-12T07:01:50Z</time>
      </trkpt>
      <trkpt lat="44.62204" lon="6.23403">
        <ele>1435.39</ele>
        <time>2019-06-12T07:02:00Z</time>
      </trkpt>
      <trkpt lat="44.62206" lon="6.23385">
        <ele>1437.79</ele>
        <time>2019-06-12T07:02:16Z</time>
      </trkpt>
      <trkpt lat="44.62209" lon="6.23365">
        <ele>1440.67</ele>
        <time>2019-06-12T07:02:33Z</time>
      </trkpt>
      <trkpt lat="44.62212" lon="6.23348">
        <ele>1442.6</ele>
        <time>2019-06-12T07:02:48Z</time>
      </trkpt>
      <trkpt lat="44.62214" lon="6.23354">
        <ele>1443.08</ele>
        <time>2019-06-12T07:02:57Z</time>
      </trkpt>
      <trkpt lat="44.62218" lon="6.23365">
        <ele>1443.08</ele>
        <time>2019-06-12T07:03:09Z</time>
      </trkpt>
      <trkpt lat="44.62224" lon="6.23383">
        <ele>1444.52</ele>
        <time>2019-06-12T07:03:24Z</time>
      </trkpt>
      <trkpt lat="44.62228" lon="6.23406">
        <ele>1446.44</ele>
        <time>2019-06-12T07:03:42Z</time>
      </trkpt>
      <trkpt lat="44.62224" lon="6.23432">
        <ele>1447.88</ele>
        <time>2019-06-12T07:03:58Z</time>
      </trkpt>
      <trkpt lat="44.62227" lon="6.23452">
        <ele>1450.29</ele>
        <time>2019-06-12T07:04:14Z</time>
      </trkpt>
      <trkpt lat="44.62234" lon="6.23464">
        <ele>1452.69</ele>
        <time>2019-06-12T07:04:28Z</time>
      </trkpt>
      <trkpt lat="44.62242" lon="6.23453">
        <ele>1455.09</ele>
        <time>2019-06-12T07:04:44Z</time>
      </trkpt>
      <trkpt lat="44.62249" lon="6.23451">
        <ele>1457.5</ele>
        <time>2019-06-12T07:04:59Z</time>
      </trkpt>
      <trkpt lat="44.62251" lon="6.23449">
        <ele>1457.98</ele>
        <time>2019-06-12T07:05:12Z</time>
      </trkpt>
      <trkpt lat="44.6225" lon="6.23456">
        <ele>1458.46</ele>
        <time>2019-06-12T07:05:31Z</time>
      </trkpt>
      <trkpt lat="44.62251" lon="6.23449">
        <ele>1458.46</ele>
        <time>2019-06-12T07:05:46Z</time>
      </trkpt>
      <trkpt lat="44.62251" lon="6.23452">
        <ele>1458.46</ele>
        <time>2019-06-12T07:06:00Z</time>
      </trkpt>
      <trkpt lat="44.6225" lon="6.23452">
        <ele>1458.46</ele>
        <time>2019-06-12T07:06:13Z</time>
      </trkpt>
      <trkpt lat="44.62251" lon="6.23453">
        <ele>1458.46</ele>
        <time>2019-06-12T07:06:28Z</time>
      </trkpt>
      <trkpt lat="44.6225" lon="6.23453">
        <ele>1458.46</ele>
        <time>2019-06-12T07:06:29Z</time>
      </trkpt>
      <trkpt lat="44.62251" lon="6.23459">
        <ele>1458.94</ele>
        <time>2019-06-12T07:06:40Z</time>
      </trkpt>
      <trkpt lat="44.62253" lon="6.23461">
        <ele>1458.94</ele>
        <time>2019-06-12T07:06:41Z</time>
      </trkpt>
      <trkpt lat="44.62259" lon="6.2347">
        <ele>1460.38</ele>
        <time>2019-06-12T07:06:50Z</time>
      </trkpt>
      <trkpt lat="44.62266" lon="6.23485">
        <ele>1462.3</ele>
        <time>2019-06-12T07:07:04Z</time>
      </trkpt>
      <trkpt lat="44.62272" lon="6.235">
        <ele>1463.26</ele>
        <time>2019-06-12T07:07:17Z</time>
      </trkpt>
      <trkpt lat="44.6228" lon="6.23511">
        <ele>1464.23</ele>
        <time>2019-06-12T07:07:27Z</time>
      </trkpt>
      <trkpt lat="44.62282" lon="6.23512">
        <ele>1464.23</ele>
        <time>2019-06-12T07:07:28Z</time>
      </trkpt>
      <trkpt lat="44.62283" lon="6.23514">
        <ele>1464.23</ele>
        <time>2019-06-12T07:07:29Z</time>
      </trkpt>
      <trkpt lat="44.62289" lon="6.23526">
        <ele>1465.19</ele>
        <time>2019-06-12T07:07:38Z</time>
      </trkpt>
      <trkpt lat="44.6229" lon="6.23527">
        <ele>1465.67</ele>
        <time>2019-06-12T07:07:39Z</time>
      </trkpt>
      <trkpt lat="44.6229" lon="6.23528">
        <ele>1465.67</ele>
        <time>2019-06-12T07:07:43Z</time>
      </trkpt>
      <trkpt lat="44.62291" lon="6.2353">
        <ele>1465.67</ele>
        <time>2019-06-12T07:07:44Z</time>
      </trkpt>
      <trkpt lat="44.62292" lon="6.23531">
        <ele>1466.15</ele>
        <time>2019-06-12T07:07:45Z</time>
      </trkpt>
      <trkpt lat="44.62293" lon="6.23533">
        <ele>1466.15</ele>
        <time>2019-06-12T07:07:46Z</time>
      </trkpt>
      <trkpt lat="44.62296" lon="6.23544">
        <ele>1466.63</ele>
        <time>2019-06-12T07:07:56Z</time>
      </trkpt>
      <trkpt lat="44.62299" lon="6.23549">
        <ele>1467.11</ele>
        <time>2019-06-12T07:08:00Z</time>
      </trkpt>
      <trkpt lat="44.623" lon="6.23553">
        <ele>1467.11</ele>
        <time>2019-06-12T07:08:03Z</time>
      </trkpt>
      <trkpt lat="44.62301" lon="6.23555">
        <ele>1467.59</ele>
        <time>2019-06-12T07:08:04Z</time>
      </trkpt>
      <trkpt lat="44.62305" lon="6.23574">
        <ele>1468.55</ele>
        <time>2019-06-12T07:08:18Z</time>
      </trkpt>
      <trkpt lat="44.62309" lon="6.23589">
        <ele>1469.51</ele>
        <time>2019-06-12T07:08:30Z</time>
      </trkpt>
      <trkpt lat="44.62316" lon="6.23608">
        <ele>1470.47</ele>
        <time>2019-06-12T07:08:44Z</time>
      </trkpt>
      <trkpt lat="44.62321" lon="6.23615">
        <ele>1471.44</ele>
        <time>2019-06-12T07:08:51Z</time>
      </trkpt>
      <trkpt lat="44.62322" lon="6.23616">
        <ele>1471.44</ele>
        <time>2019-06-12T07:08:52Z</time>
      </trkpt>
      <trkpt lat="44.62334" lon="6.23629">
        <ele>1472.88</ele>
        <time>2019-06-12T07:09:07Z</time>
      </trkpt>
      <trkpt lat="44.62338" lon="6.23632">
        <ele>1473.36</ele>
        <time>2019-06-12T07:09:11Z</time>
      </trkpt>
      <trkpt lat="44.62353" lon="6.23641">
        <ele>1474.32</ele>
        <time>2019-06-12T07:09:26Z</time>
      </trkpt>
      <trkpt lat="44.62366" lon="6.23648">
        <ele>1475.76</ele>
        <time>2019-06-12T07:09:39Z</time>
      </trkpt>
      <trkpt lat="44.62377" lon="6.2365">
        <ele>1476.72</ele>
        <time>2019-06-12T07:09:49Z</time>
      </trkpt>
      <trkpt lat="44.62378" lon="6.2365">
        <ele>1477.2</ele>
        <time>2019-06-12T07:09:50Z</time>
      </trkpt>
      <trkpt lat="44.62392" lon="6.23655">
        <ele>1479.13</ele>
        <time>2019-06-12T07:10:04Z</time>
      </trkpt>
      <trkpt lat="44.62402" lon="6.23661">
        <ele>1480.57</ele>
        <time>2019-06-12T07:10:19Z</time>
      </trkpt>
      <trkpt lat="44.62407" lon="6.2366">
        <ele>1481.05</ele>
        <time>2019-06-12T07:10:25Z</time>
      </trkpt>
      <trkpt lat="44.62408" lon="6.2366">
        <ele>1481.05</ele>
        <time>2019-06-12T07:10:26Z</time>
      </trkpt>
      <trkpt lat="44.6241" lon="6.2366">
        <ele>1481.05</ele>
        <time>2019-06-12T07:10:27Z</time>
      </trkpt>
      <trkpt lat="44.62412" lon="6.23663">
        <ele>1481.05</ele>
        <time>2019-06-12T07:10:30Z</time>
      </trkpt>
      <trkpt lat="44.62413" lon="6.23663">
        <ele>1481.05</ele>
        <time>2019-06-12T07:10:31Z</time>
      </trkpt>
      <trkpt lat="44.62415" lon="6.23663">
        <ele>1481.05</ele>
        <time>2019-06-12T07:10:32Z</time>
      </trkpt>
      <trkpt lat="44.62427" lon="6.23668">
        <ele>1482.97</ele>
        <time>2019-06-12T07:10:45Z</time>
      </trkpt>
      <trkpt lat="44.62435" lon="6.23682">
        <ele>1483.45</ele>
        <time>2019-06-12T07:10:58Z</time>
      </trkpt>
      <trkpt lat="44.62433" lon="6.23696">
        <ele>1483.93</ele>
        <time>2019-06-12T07:11:10Z</time>
      </trkpt>
      <trkpt lat="44.6242" lon="6.23697">
        <ele>1483.93</ele>
        <time>2019-06-12T07:11:22Z</time>
      </trkpt>
      <trkpt lat="44.62408" lon="6.23699">
        <ele>1482.97</ele>
        <time>2019-06-12T07:11:35Z</time>
      </trkpt>
      <trkpt lat="44.62392" lon="6.2371">
        <ele>1482.97</ele>
        <time>2019-06-12T07:11:50Z</time>
      </trkpt>
      <trkpt lat="44.62387" lon="6.23716">
        <ele>1484.41</ele>
        <time>2019-06-12T07:11:55Z</time>
      </trkpt>
      <trkpt lat="44.62379" lon="6.23738">
        <ele>1485.85</ele>
        <time>2019-06-12T07:12:11Z</time>
      </trkpt>
      <trkpt lat="44.6238" lon="6.23749">
        <ele>1486.82</ele>
        <time>2019-06-12T07:12:25Z</time>
      </trkpt>
      <trkpt lat="44.62387" lon="6.23767">
        <ele>1488.26</ele>
        <time>2019-06-12T07:12:40Z</time>
      </trkpt>
      <trkpt lat="44.62401" lon="6.23788">
        <ele>1490.18</ele>
        <time>2019-06-12T07:12:59Z</time>
      </trkpt>
      <trkpt lat="44.62405" lon="6.23799">
        <ele>1490.66</ele>
        <time>2019-06-12T07:13:13Z</time>
      </trkpt>
      <trkpt lat="44.62416" lon="6.23809">
        <ele>1491.62</ele>
        <time>2019-06-12T07:13:28Z</time>
      </trkpt>
      <trkpt lat="44.62426" lon="6.23824">
        <ele>1493.06</ele>
        <time>2019-06-12T07:13:44Z</time>
      </trkpt>
      <trkpt lat="44.62434" lon="6.23842">
        <ele>1494.03</ele>
        <time>2019-06-12T07:13:58Z</time>
      </trkpt>
      <trkpt lat="44.62435" lon="6.23849">
        <ele>1494.03</ele>
        <time>2019-06-12T07:14:03Z</time>
      </trkpt>
      <trkpt lat="44.62437" lon="6.2386">
        <ele>1494.03</ele>
        <time>2019-06-12T07:14:10Z</time>
      </trkpt>
      <trkpt lat="44.62437" lon="6.23863">
        <ele>1494.03</ele>
        <time>2019-06-12T07:14:12Z</time>
      </trkpt>
      <trkpt lat="44.62435" lon="6.23867">
        <ele>1494.03</ele>
        <time>2019-06-12T07:14:15Z</time>
      </trkpt>
      <trkpt lat="44.62434" lon="6.23872">
        <ele>1494.03</ele>
        <time>2019-06-12T07:14:18Z</time>
      </trkpt>
      <trkpt lat="44.62432" lon="6.2389">
        <ele>1496.43</ele>
        <time>2019-06-12T07:14:35Z</time>
      </trkpt>
      <trkpt lat="44.62433" lon="6.23894">
        <ele>1497.39</ele>
        <time>2019-06-12T07:14:40Z</time>
      </trkpt>
      <trkpt lat="44.62438" lon="6.23911">
        <ele>1498.83</ele>
        <time>2019-06-12T07:14:54Z</time>
      </trkpt>
      <trkpt lat="44.6244" lon="6.23919">
        <ele>1499.31</ele>
        <time>2019-06-12T07:14:59Z</time>
      </trkpt>
      <trkpt lat="44.62445" lon="6.23929">
        <ele>1499.79</ele>
        <time>2019-06-12T07:15:06Z</time>
      </trkpt>
      <trkpt lat="44.62448" lon="6.23948">
        <ele>1500.76</ele>
        <time>2019-06-12T07:15:17Z</time>
      </trkpt>
      <trkpt lat="44.62456" lon="6.23966">
        <ele>1501.24</ele>
        <time>2019-06-12T07:15:31Z</time>
      </trkpt>
      <trkpt lat="44.6246" lon="6.23988">
        <ele>1502.2</ele>
        <time>2019-06-12T07:15:46Z</time>
      </trkpt>
      <trkpt lat="44.62459" lon="6.24014">
        <ele>1503.64</ele>
        <time>2019-06-12T07:16:01Z</time>
      </trkpt>
      <trkpt lat="44.62453" lon="6.24036">
        <ele>1504.12</ele>
        <time>2019-06-12T07:16:19Z</time>
      </trkpt>
      <trkpt lat="44.62453" lon="6.24041">
        <ele>1505.56</ele>
        <time>2019-06-12T07:16:34Z</time>
      </trkpt>
      <trkpt lat="44.62452" lon="6.24042">
        <ele>1505.56</ele>
        <time>2019-06-12T07:16:39Z</time>
      </trkpt>
      <trkpt lat="44.62451" lon="6.24044">
        <ele>1505.56</ele>
        <time>2019-06-12T07:16:40Z</time>
      </trkpt>
      <trkpt lat="44.62444" lon="6.24065">
        <ele>1505.56</ele>
        <time>2019-06-12T07:16:55Z</time>
      </trkpt>
      <trkpt lat="44.62441" lon="6.24076">
        <ele>1505.56</ele>
        <time>2019-06-12T07:17:08Z</time>
      </trkpt>
      <trkpt lat="44.62445" lon="6.24077">
        <ele>1505.56</ele>
        <time>2019-06-12T07:17:26Z</time>
      </trkpt>
      <trkpt lat="44.62445" lon="6.24081">
        <ele>1505.56</ele>
        <time>2019-06-12T07:17:51Z</time>
      </trkpt>
      <trkpt lat="44.62439" lon="6.24078">
        <ele>1505.56</ele>
        <time>2019-06-12T07:18:11Z</time>
      </trkpt>
      <trkpt lat="44.62439" lon="6.2408">
        <ele>1505.56</ele>
        <time>2019-06-12T07:18:29Z</time>
      </trkpt>
      <trkpt lat="44.6244" lon="6.2408">
        <ele>1505.56</ele>
        <time>2019-06-12T07:18:35Z</time>
      </trkpt>
      <trkpt lat="44.62441" lon="6.24081">
        <ele>1505.56</ele>
        <time>2019-06-12T07:18:36Z</time>
      </trkpt>
      <trkpt lat="44.62446" lon="6.24085">
        <ele>1506.04</ele>
        <time>2019-06-12T07:18:45Z</time>
      </trkpt>
      <trkpt lat="44.62455" lon="6.24078">
        <ele>1508.93</ele>
        <time>2019-06-12T07:18:59Z</time>
      </trkpt>
      <trkpt lat="44.62462" lon="6.24065">
        <ele>1511.33</ele>
        <time>2019-06-12T07:19:13Z</time>
      </trkpt>
      <trkpt lat="44.62465" lon="6.24058">
        <ele>1512.77</ele>
        <time>2019-06-12T07:19:23Z</time>
      </trkpt>
      <trkpt lat="44.62474" lon="6.24042">
        <ele>1516.14</ele>
        <time>2019-06-12T07:19:39Z</time>
      </trkpt>
      <trkpt lat="44.62478" lon="6.24033">
        <ele>1517.1</ele>
        <time>2019-06-12T07:19:49Z</time>
      </trkpt>
      <trkpt lat="44.62486" lon="6.24022">
        <ele>1519.02</ele>
        <time>2019-06-12T07:20:02Z</time>
      </trkpt>
      <trkpt lat="44.62488" lon="6.24015">
        <ele>1520.46</ele>
        <time>2019-06-12T07:20:16Z</time>
      </trkpt>
      <trkpt lat="44.6249" lon="6.24014">
        <ele>1519.5</ele>
        <time>2019-06-12T07:20:38Z</time>
      </trkpt>
      <trkpt lat="44.62498" lon="6.23998">
        <ele>1521.9</ele>
        <time>2019-06-12T07:20:53Z</time>
      </trkpt>
      <trkpt lat="44.62501" lon="6.23983">
        <ele>1523.35</ele>
        <time>2019-06-12T07:21:08Z</time>
      </trkpt>
      <trkpt lat="44.62506" lon="6.2397">
        <ele>1524.79</ele>
        <time>2019-06-12T07:21:23Z</time>
      </trkpt>
      <trkpt lat="44.62515" lon="6.23959">
        <ele>1526.23</ele>
        <time>2019-06-12T07:21:40Z</time>
      </trkpt>
      <trkpt lat="44.62517" lon="6.23959">
        <ele>1526.23</ele>
        <time>2019-06-12T07:21:42Z</time>
      </trkpt>
      <trkpt lat="44.62522" lon="6.23954">
        <ele>1526.71</ele>
        <time>2019-06-12T07:21:48Z</time>
      </trkpt>
      <trkpt lat="44.62533" lon="6.23943">
        <ele>1527.67</ele>
        <time>2019-06-12T07:22:02Z</time>
      </trkpt>
      <trkpt lat="44.62541" lon="6.23937">
        <ele>1529.59</ele>
        <time>2019-06-12T07:22:14Z</time>
      </trkpt>
      <trkpt lat="44.62536" lon="6.23952">
        <ele>1530.56</ele>
        <time>2019-06-12T07:22:30Z</time>
      </trkpt>
      <trkpt lat="44.62526" lon="6.23971">
        <ele>1532.48</ele>
        <time>2019-06-12T07:22:48Z</time>
      </trkpt>
      <trkpt lat="44.62523" lon="6.23977">
        <ele>1533.44</ele>
        <time>2019-06-12T07:22:54Z</time>
      </trkpt>
      <trkpt lat="44.62522" lon="6.23979">
        <ele>1533.44</ele>
        <time>2019-06-12T07:22:55Z</time>
      </trkpt>
      <trkpt lat="44.62521" lon="6.23984">
        <ele>1533.92</ele>
        <time>2019-06-12T07:22:59Z</time>
      </trkpt>
      <trkpt lat="44.62515" lon="6.24009">
        <ele>1537.29</ele>
        <time>2019-06-12T07:23:17Z</time>
      </trkpt>
      <trkpt lat="44.6252" lon="6.24018">
        <ele>1539.21</ele>
        <time>2019-06-12T07:23:29Z</time>
      </trkpt>
      <trkpt lat="44.62529" lon="6.24007">
        <ele>1540.65</ele>
        <time>2019-06-12T07:23:41Z</time>
      </trkpt>
      <trkpt lat="44.62539" lon="6.23995">
        <ele>1541.61</ele>
        <time>2019-06-12T07:23:56Z</time>
      </trkpt>
      <trkpt lat="44.62547" lon="6.23986">
        <ele>1542.57</ele>
        <time>2019-06-12T07:24:05Z</time>
      </trkpt>
      <trkpt lat="44.62555" lon="6.23977">
        <ele>1544.01</ele>
        <time>2019-06-12T07:24:15Z</time>
      </trkpt>
      <trkpt lat="44.62567" lon="6.23965">
        <ele>1545.94</ele>
        <time>2019-06-12T07:24:29Z</time>
      </trkpt>
      <trkpt lat="44.62571" lon="6.23963">
        <ele>1545.94</ele>
        <time>2019-06-12T07:24:33Z</time>
      </trkpt>
      <trkpt lat="44.6259" lon="6.2395">
        <ele>1547.86</ele>
        <time>2019-06-12T07:24:52Z</time>
      </trkpt>
      <trkpt lat="44.62602" lon="6.23939">
        <ele>1550.26</ele>
        <time>2019-06-12T07:25:05Z</time>
      </trkpt>
      <trkpt lat="44.62614" lon="6.23927">
        <ele>1552.19</ele>
        <time>2019-06-12T07:25:21Z</time>
      </trkpt>
      <trkpt lat="44.6262" lon="6.23921">
        <ele>1552.67</ele>
        <time>2019-06-12T07:25:29Z</time>
      </trkpt>
      <trkpt lat="44.62627" lon="6.23907">
        <ele>1554.59</ele>
        <time>2019-06-12T07:25:42Z</time>
      </trkpt>
      <trkpt lat="44.62633" lon="6.23894">
        <ele>1556.51</ele>
        <time>2019-06-12T07:25:57Z</time>
      </trkpt>
      <trkpt lat="44.62635" lon="6.23893">
        <ele>1556.51</ele>
        <time>2019-06-12T07:26:03Z</time>
      </trkpt>
      <trkpt lat="44.62637" lon="6.2391">
        <ele>1558.92</ele>
        <time>2019-06-12T07:26:18Z</time>
      </trkpt>
      <trkpt lat="44.62632" lon="6.23927">
        <ele>1561.32</ele>
        <time>2019-06-12T07:26:34Z</time>
      </trkpt>
      <trkpt lat="44.62624" lon="6.23944">
        <ele>1562.76</ele>
        <time>2019-06-12T07:26:50Z</time>
      </trkpt>
      <trkpt lat="44.62619" lon="6.23952">
        <ele>1563.72</ele>
        <time>2019-06-12T07:27:02Z</time>
      </trkpt>
      <trkpt lat="44.62614" lon="6.23966">
        <ele>1566.61</ele>
        <time>2019-06-12T07:27:17Z</time>
      </trkpt>
      <trkpt lat="44.62611" lon="6.23977">
        <ele>1568.53</ele>
        <time>2019-06-12T07:27:31Z</time>
      </trkpt>
      <trkpt lat="44.62609" lon="6.23984">
        <ele>1569.97</ele>
        <time>2019-06-12T07:27:41Z</time>
      </trkpt>
      <trkpt lat="44.62619" lon="6.23977">
        <ele>1571.89</ele>
        <time>2019-06-12T07:27:55Z</time>
      </trkpt>
      <trkpt lat="44.62629" lon="6.23968">
        <ele>1573.33</ele>
        <time>2019-06-12T07:28:08Z</time>
      </trkpt>
      <trkpt lat="44.62641" lon="6.23958">
        <ele>1574.78</ele>
        <time>2019-06-12T07:28:22Z</time>
      </trkpt>
      <trkpt lat="44.62652" lon="6.23945">
        <ele>1576.22</ele>
        <time>2019-06-12T07:28:37Z</time>
      </trkpt>
      <trkpt lat="44.62661" lon="6.23929">
        <ele>1578.62</ele>
        <time>2019-06-12T07:28:53Z</time>
      </trkpt>
      <trkpt lat="44.62672" lon="6.23916">
        <ele>1581.03</ele>
        <time>2019-06-12T07:29:07Z</time>
      </trkpt>
      <trkpt lat="44.62675" lon="6.23911">
        <ele>1581.51</ele>
        <time>2019-06-12T07:29:10Z</time>
      </trkpt>
      <trkpt lat="44.62684" lon="6.23898">
        <ele>1582.95</ele>
        <time>2019-06-12T07:29:22Z</time>
      </trkpt>
      <trkpt lat="44.62695" lon="6.23887">
        <ele>1584.87</ele>
        <time>2019-06-12T07:29:38Z</time>
      </trkpt>
      <trkpt lat="44.62706" lon="6.23877">
        <ele>1586.31</ele>
        <time>2019-06-12T07:29:53Z</time>
      </trkpt>
      <trkpt lat="44.62716" lon="6.23868">
        <ele>1588.72</ele>
        <time>2019-06-12T07:30:05Z</time>
      </trkpt>
      <trkpt lat="44.62725" lon="6.23866">
        <ele>1590.64</ele>
        <time>2019-06-12T07:30:19Z</time>
      </trkpt>
      <trkpt lat="44.6273" lon="6.23864">
        <ele>1591.6</ele>
        <time>2019-06-12T07:30:32Z</time>
      </trkpt>
      <trkpt lat="44.62729" lon="6.23863">
        <ele>1591.6</ele>
        <time>2019-06-12T07:30:45Z</time>
      </trkpt>
      <trkpt lat="44.62727" lon="6.23864">
        <ele>1591.6</ele>
        <time>2019-06-12T07:31:00Z</time>
      </trkpt>
      <trkpt lat="44.62725" lon="6.23868">
        <ele>1591.6</ele>
        <time>2019-06-12T07:31:10Z</time>
      </trkpt>
      <trkpt lat="44.62719" lon="6.23878">
        <ele>1593.52</ele>
        <time>2019-06-12T07:31:22Z</time>
      </trkpt>
      <trkpt lat="44.62718" lon="6.2388">
        <ele>1593.52</ele>
        <time>2019-06-12T07:31:24Z</time>
      </trkpt>
      <trkpt lat="44.62714" lon="6.23893">
        <ele>1594.48</ele>
        <time>2019-06-12T07:31:35Z</time>
      </trkpt>
      <trkpt lat="44.62718" lon="6.23889">
        <ele>1595.93</ele>
        <time>2019-06-12T07:31:44Z</time>
      </trkpt>
      <trkpt lat="44.62727" lon="6.2388">
        <ele>1597.85</ele>
        <time>2019-06-12T07:31:58Z</time>
      </trkpt>
      <trkpt lat="44.6274" lon="6.23872">
        <ele>1598.81</ele>
        <time>2019-06-12T07:32:13Z</time>
      </trkpt>
      <trkpt lat="44.62757" lon="6.23869">
        <ele>1601.21</ele>
        <time>2019-06-12T07:32:31Z</time>
      </trkpt>
      <trkpt lat="44.62759" lon="6.23867">
        <ele>1601.69</ele>
        <time>2019-06-12T07:32:34Z</time>
      </trkpt>
      <trkpt lat="44.62768" lon="6.23862">
        <ele>1602.66</ele>
        <time>2019-06-12T07:32:43Z</time>
      </trkpt>
      <trkpt lat="44.62775" lon="6.23858">
        <ele>1603.62</ele>
        <time>2019-06-12T07:32:52Z</time>
      </trkpt>
      <trkpt lat="44.62789" lon="6.23849">
        <ele>1606.02</ele>
        <time>2019-06-12T07:33:07Z</time>
      </trkpt>
      <trkpt lat="44.62797" lon="6.23845">
        <ele>1607.46</ele>
        <time>2019-06-12T07:33:22Z</time>
      </trkpt>
      <trkpt lat="44.62797" lon="6.23845">
        <ele>1607.46</ele>
        <time>2019-06-12T07:33:23Z</time>
      </trkpt>
      <trkpt lat="44.62801" lon="6.23841">
        <ele>1607.46</ele>
        <time>2019-06-12T07:33:27Z</time>
      </trkpt>
      <trkpt lat="44.62806" lon="6.23836">
        <ele>1607.94</ele>
        <time>2019-06-12T07:33:33Z</time>
      </trkpt>
      <trkpt lat="44.62819" lon="6.23827">
        <ele>1609.86</ele>
        <time>2019-06-12T07:33:49Z</time>
      </trkpt>
      <trkpt lat="44.6282" lon="6.23827">
        <ele>1610.35</ele>
        <time>2019-06-12T07:33:50Z</time>
      </trkpt>
      <trkpt lat="44.62823" lon="6.23825">
        <ele>1610.83</ele>
        <time>2019-06-12T07:33:55Z</time>
      </trkpt>
      <trkpt lat="44.62834" lon="6.23818">
        <ele>1612.75</ele>
        <time>2019-06-12T07:34:08Z</time>
      </trkpt>
      <trkpt lat="44.6285" lon="6.23812">
        <ele>1615.15</ele>
        <time>2019-06-12T07:34:26Z</time>
      </trkpt>
      <trkpt lat="44.62861" lon="6.23803">
        <ele>1617.07</ele>
        <time>2019-06-12T07:34:40Z</time>
      </trkpt>
      <trkpt lat="44.62868" lon="6.23799">
        <ele>1619.48</ele>
        <time>2019-06-12T07:34:54Z</time>
      </trkpt>
      <trkpt lat="44.62869" lon="6.23799">
        <ele>1619.48</ele>
        <time>2019-06-12T07:34:55Z</time>
      </trkpt>
      <trkpt lat="44.6288" lon="6.23793">
        <ele>1620.92</ele>
        <time>2019-06-12T07:35:09Z</time>
      </trkpt>
      <trkpt lat="44.62884" lon="6.23785">
        <ele>1621.4</ele>
        <time>2019-06-12T07:35:21Z</time>
      </trkpt>
      <trkpt lat="44.62888" lon="6.2378">
        <ele>1622.36</ele>
        <time>2019-06-12T07:35:37Z</time>
      </trkpt>
      <trkpt lat="44.62887" lon="6.23782">
        <ele>1620.92</ele>
        <time>2019-06-12T07:35:48Z</time>
      </trkpt>
      <trkpt lat="44.62888" lon="6.23786">
        <ele>1621.4</ele>
        <time>2019-06-12T07:36:01Z</time>
      </trkpt>
      <trkpt lat="44.62888" lon="6.23788">
        <ele>1621.4</ele>
        <time>2019-06-12T07:36:27Z</time>
      </trkpt>
      <trkpt lat="44.62885" lon="6.23787">
        <ele>1621.4</ele>
        <time>2019-06-12T07:36:46Z</time>
      </trkpt>
      <trkpt lat="44.62882" lon="6.23793">
        <ele>1622.36</ele>
        <time>2019-06-12T07:37:02Z</time>
      </trkpt>
      <trkpt lat="44.62873" lon="6.23804">
        <ele>1624.77</ele>
        <time>2019-06-12T07:37:19Z</time>
      </trkpt>
      <trkpt lat="44.62868" lon="6.23816">
        <ele>1626.21</ele>
        <time>2019-06-12T07:37:34Z</time>
      </trkpt>
      <trkpt lat="44.6287" lon="6.23816">
        <ele>1628.13</ele>
        <time>2019-06-12T07:37:47Z</time>
      </trkpt>
      <trkpt lat="44.62871" lon="6.23816">
        <ele>1628.13</ele>
        <time>2019-06-12T07:38:03Z</time>
      </trkpt>
      <trkpt lat="44.62874" lon="6.23813">
        <ele>1628.61</ele>
        <time>2019-06-12T07:38:07Z</time>
      </trkpt>
      <trkpt lat="44.62878" lon="6.23812">
        <ele>1629.09</ele>
        <time>2019-06-12T07:38:11Z</time>
      </trkpt>
      <trkpt lat="44.62888" lon="6.23811">
        <ele>1631.01</ele>
        <time>2019-06-12T07:38:22Z</time>
      </trkpt>
      <trkpt lat="44.62899" lon="6.23805">
        <ele>1631.98</ele>
        <time>2019-06-12T07:38:34Z</time>
      </trkpt>
      <trkpt lat="44.62898" lon="6.23813">
        <ele>1634.86</ele>
        <time>2019-06-12T07:38:48Z</time>
      </trkpt>
      <trkpt lat="44.62892" lon="6.23823">
        <ele>1637.74</ele>
        <time>2019-06-12T07:39:00Z</time>
      </trkpt>
      <trkpt lat="44.62891" lon="6.23824">
        <ele>1637.74</ele>
        <time>2019-06-12T07:39:01Z</time>
      </trkpt>
      <trkpt lat="44.62887" lon="6.23829">
        <ele>1639.67</ele>
        <time>2019-06-12T07:39:15Z</time>
      </trkpt>
      <trkpt lat="44.62889" lon="6.23829">
        <ele>1640.15</ele>
        <time>2019-06-12T07:39:28Z</time>
      </trkpt>
      <trkpt lat="44.62889" lon="6.23827">
        <ele>1640.15</ele>
        <time>2019-06-12T07:39:52Z</time>
      </trkpt>
      <trkpt lat="44.62888" lon="6.23827">
        <ele>1641.11</ele>
        <time>2019-06-12T07:40:10Z</time>
      </trkpt>
      <trkpt lat="44.62894" lon="6.23826">
        <ele>1641.11</ele>
        <time>2019-06-12T07:40:26Z</time>
      </trkpt>
      <trkpt lat="44.62898" lon="6.23824">
        <ele>1641.59</ele>
        <time>2019-06-12T07:40:35Z</time>
      </trkpt>
      <trkpt lat="44.62902" lon="6.23822">
        <ele>1641.59</ele>
        <time>2019-06-12T07:40:39Z</time>
      </trkpt>
      <trkpt lat="44.62906" lon="6.23823">
        <ele>1642.55</ele>
        <time>2019-06-12T07:40:43Z</time>
      </trkpt>
      <trkpt lat="44.62909" lon="6.23823">
        <ele>1643.03</ele>
        <time>2019-06-12T07:40:46Z</time>
      </trkpt>
      <trkpt lat="44.62907" lon="6.2383">
        <ele>1644.95</ele>
        <time>2019-06-12T07:40:58Z</time>
      </trkpt>
      <trkpt lat="44.62903" lon="6.23834">
        <ele>1645.43</ele>
        <time>2019-06-12T07:41:03Z</time>
      </trkpt>
      <trkpt lat="44.62891" lon="6.23845">
        <ele>1647.36</ele>
        <time>2019-06-12T07:41:20Z</time>
      </trkpt>
      <trkpt lat="44.62887" lon="6.23843">
        <ele>1647.36</ele>
        <time>2019-06-12T07:41:43Z</time>
      </trkpt>
      <trkpt lat="44.62889" lon="6.23843">
        <ele>1647.84</ele>
        <time>2019-06-12T07:42:07Z</time>
      </trkpt>
      <trkpt lat="44.62879" lon="6.23849">
        <ele>1648.8</ele>
        <time>2019-06-12T07:42:24Z</time>
      </trkpt>
      <trkpt lat="44.62875" lon="6.23855">
        <ele>1649.76</ele>
        <time>2019-06-12T07:42:37Z</time>
      </trkpt>
      <trkpt lat="44.62875" lon="6.23857">
        <ele>1650.24</ele>
        <time>2019-06-12T07:43:03Z</time>
      </trkpt>
      <trkpt lat="44.62875" lon="6.23857">
        <ele>1650.72</ele>
        <time>2019-06-12T07:43:24Z</time>
      </trkpt>
      <trkpt lat="44.62876" lon="6.23857">
        <ele>1650.72</ele>
        <time>2019-06-12T07:43:50Z</time>
      </trkpt>
      <trkpt lat="44.62875" lon="6.23858">
        <ele>1650.72</ele>
        <time>2019-06-12T07:44:11Z</time>
      </trkpt>
      <trkpt lat="44.62882" lon="6.23858">
        <ele>1652.64</ele>
        <time>2019-06-12T07:44:18Z</time>
      </trkpt>
      <trkpt lat="44.62896" lon="6.23859">
        <ele>1655.05</ele>
        <time>2019-06-12T07:44:32Z</time>
      </trkpt>
      <trkpt lat="44.62903" lon="6.23859">
        <ele>1656.49</ele>
        <time>2019-06-12T07:44:39Z</time>
      </trkpt>
      <trkpt lat="44.62906" lon="6.23862">
        <ele>1656.97</ele>
        <time>2019-06-12T07:44:43Z</time>
      </trkpt>
      <trkpt lat="44.62906" lon="6.2387">
        <ele>1658.41</ele>
        <time>2019-06-12T07:44:50Z</time>
      </trkpt>
      <trkpt lat="44.6289" lon="6.23879">
        <ele>1660.81</ele>
        <time>2019-06-12T07:45:05Z</time>
      </trkpt>
      <trkpt lat="44.62886" lon="6.23899">
        <ele>1662.74</ele>
        <time>2019-06-12T07:45:21Z</time>
      </trkpt>
      <trkpt lat="44.62881" lon="6.23917">
        <ele>1664.18</ele>
        <time>2019-06-12T07:45:37Z</time>
      </trkpt>
      <trkpt lat="44.62873" lon="6.2392">
        <ele>1664.66</ele>
        <time>2019-06-12T07:45:46Z</time>
      </trkpt>
      <trkpt lat="44.62868" lon="6.2392">
        <ele>1665.14</ele>
        <time>2019-06-12T07:45:50Z</time>
      </trkpt>
      <trkpt lat="44.62856" lon="6.23937">
        <ele>1666.58</ele>
        <time>2019-06-12T07:46:07Z</time>
      </trkpt>
      <trkpt lat="44.62847" lon="6.23957">
        <ele>1667.06</ele>
        <time>2019-06-12T07:46:24Z</time>
      </trkpt>
      <trkpt lat="44.62836" lon="6.23973">
        <ele>1667.54</ele>
        <time>2019-06-12T07:46:39Z</time>
      </trkpt>
      <trkpt lat="44.62826" lon="6.2399">
        <ele>1668.51</ele>
        <time>2019-06-12T07:46:54Z</time>
      </trkpt>
      <trkpt lat="44.62815" lon="6.24002">
        <ele>1669.95</ele>
        <time>2019-06-12T07:47:07Z</time>
      </trkpt>
      <trkpt lat="44.62803" lon="6.24016">
        <ele>1672.83</ele>
        <time>2019-06-12T07:47:24Z</time>
      </trkpt>
      <trkpt lat="44.62792" lon="6.24025">
        <ele>1674.27</ele>
        <time>2019-06-12T07:47:39Z</time>
      </trkpt>
      <trkpt lat="44.62782" lon="6.24035">
        <ele>1675.72</ele>
        <time>2019-06-12T07:47:54Z</time>
      </trkpt>
      <trkpt lat="44.62776" lon="6.24055">
        <ele>1677.64</ele>
        <time>2019-06-12T07:48:09Z</time>
      </trkpt>
      <trkpt lat="44.6277" lon="6.24063">
        <ele>1679.08</ele>
        <time>2019-06-12T07:48:21Z</time>
      </trkpt>
      <trkpt lat="44.62763" lon="6.24058">
        <ele>1680.52</ele>
        <time>2019-06-12T07:48:35Z</time>
      </trkpt>
      <trkpt lat="44.62763" lon="6.24057">
        <ele>1680.52</ele>
        <time>2019-06-12T07:48:46Z</time>
      </trkpt>
      <trkpt lat="44.62747" lon="6.24054">
        <ele>1681.48</ele>
        <time>2019-06-12T07:49:02Z</time>
      </trkpt>
      <trkpt lat="44.62739" lon="6.24061">
        <ele>1682.44</ele>
        <time>2019-06-12T07:49:19Z</time>
      </trkpt>
      <trkpt lat="44.6274" lon="6.24065">
        <ele>1683.89</ele>
        <time>2019-06-12T07:49:22Z</time>
      </trkpt>
      <trkpt lat="44.62746" lon="6.24073">
        <ele>1685.33</ele>
        <time>2019-06-12T07:49:33Z</time>
      </trkpt>
      <trkpt lat="44.62749" lon="6.24082">
        <ele>1686.77</ele>
        <time>2019-06-12T07:49:45Z</time>
      </trkpt>
      <trkpt lat="44.62745" lon="6.24086">
        <ele>1688.69</ele>
        <time>2019-06-12T07:49:58Z</time>
      </trkpt>
      <trkpt lat="44.62739" lon="6.24091">
        <ele>1690.62</ele>
        <time>2019-06-12T07:50:09Z</time>
      </trkpt>
      <trkpt lat="44.62743" lon="6.24098">
        <ele>1692.06</ele>
        <time>2019-06-12T07:50:20Z</time>
      </trkpt>
      <trkpt lat="44.62746" lon="6.24099">
        <ele>1692.54</ele>
        <time>2019-06-12T07:50:24Z</time>
      </trkpt>
      <trkpt lat="44.62756" lon="6.24104">
        <ele>1694.94</ele>
        <time>2019-06-12T07:50:38Z</time>
      </trkpt>
      <trkpt lat="44.62751" lon="6.24108">
        <ele>1695.9</ele>
        <time>2019-06-12T07:50:48Z</time>
      </trkpt>
      <trkpt lat="44.62743" lon="6.24114">
        <ele>1697.83</ele>
        <time>2019-06-12T07:51:00Z</time>
      </trkpt>
      <trkpt lat="44.62744" lon="6.24118">
        <ele>1699.75</ele>
        <time>2019-06-12T07:51:11Z</time>
      </trkpt>
      <trkpt lat="44.62744" lon="6.24126">
        <ele>1701.67</ele>
        <time>2019-06-12T07:51:24Z</time>
      </trkpt>
      <trkpt lat="44.62739" lon="6.24133">
        <ele>1703.11</ele>
        <time>2019-06-12T07:51:38Z</time>
      </trkpt>
      <trkpt lat="44.62744" lon="6.24135">
        <ele>1705.52</ele>
        <time>2019-06-12T07:51:51Z</time>
      </trkpt>
      <trkpt lat="44.62738" lon="6.24141">
        <ele>1706.48</ele>
        <time>2019-06-12T07:52:01Z</time>
      </trkpt>
      <trkpt lat="44.62736" lon="6.24144">
        <ele>1708.4</ele>
        <time>2019-06-12T07:52:13Z</time>
      </trkpt>
      <trkpt lat="44.6274" lon="6.24147">
        <ele>1710.32</ele>
        <time>2019-06-12T07:52:30Z</time>
      </trkpt>
      <trkpt lat="44.62743" lon="6.24144">
        <ele>1710.32</ele>
        <time>2019-06-12T07:52:46Z</time>
      </trkpt>
      <trkpt lat="44.62744" lon="6.24146">
        <ele>1710.8</ele>
        <time>2019-06-12T07:53:04Z</time>
      </trkpt>
      <trkpt lat="44.6274" lon="6.24145">
        <ele>1710.8</ele>
        <time>2019-06-12T07:53:24Z</time>
      </trkpt>
      <trkpt lat="44.62742" lon="6.24148">
        <ele>1710.8</ele>
        <time>2019-06-12T07:53:44Z</time>
      </trkpt>
      <trkpt lat="44.62742" lon="6.24144">
        <ele>1711.28</ele>
        <time>2019-06-12T07:54:03Z</time>
      </trkpt>
      <trkpt lat="44.62745" lon="6.24147">
        <ele>1711.28</ele>
        <time>2019-06-12T07:54:24Z</time>
      </trkpt>
      <trkpt lat="44.62749" lon="6.24148">
        <ele>1711.76</ele>
        <time>2019-06-12T07:54:42Z</time>
      </trkpt>
      <trkpt lat="44.62743" lon="6.24154">
        <ele>1713.21</ele>
        <time>2019-06-12T07:54:51Z</time>
      </trkpt>
      <trkpt lat="44.62742" lon="6.24154">
        <ele>1713.21</ele>
        <time>2019-06-12T07:54:52Z</time>
      </trkpt>
      <trkpt lat="44.62738" lon="6.2417">
        <ele>1715.13</ele>
        <time>2019-06-12T07:55:03Z</time>
      </trkpt>
      <trkpt lat="44.62744" lon="6.2417">
        <ele>1717.05</ele>
        <time>2019-06-12T07:55:15Z</time>
      </trkpt>
      <trkpt lat="44.62746" lon="6.24166">
        <ele>1717.53</ele>
        <time>2019-06-12T07:55:18Z</time>
      </trkpt>
      <trkpt lat="44.62755" lon="6.24165">
        <ele>1719.46</ele>
        <time>2019-06-12T07:55:33Z</time>
      </trkpt>
      <trkpt lat="44.62756" lon="6.24175">
        <ele>1720.9</ele>
        <time>2019-06-12T07:55:41Z</time>
      </trkpt>
      <trkpt lat="44.62763" lon="6.24181">
        <ele>1722.34</ele>
        <time>2019-06-12T07:55:52Z</time>
      </trkpt>
      <trkpt lat="44.62768" lon="6.24178">
        <ele>1722.82</ele>
        <time>2019-06-12T07:55:58Z</time>
      </trkpt>
      <trkpt lat="44.62777" lon="6.24171">
        <ele>1725.22</ele>
        <time>2019-06-12T07:56:10Z</time>
      </trkpt>
      <trkpt lat="44.62785" lon="6.24162">
        <ele>1727.15</ele>
        <time>2019-06-12T07:56:23Z</time>
      </trkpt>
      <trkpt lat="44.62786" lon="6.24159">
        <ele>1727.63</ele>
        <time>2019-06-12T07:56:26Z</time>
      </trkpt>
      <trkpt lat="44.62798" lon="6.24156">
        <ele>1729.55</ele>
        <time>2019-06-12T07:56:42Z</time>
      </trkpt>
      <trkpt lat="44.62798" lon="6.24158">
        <ele>1729.55</ele>
        <time>2019-06-12T07:57:03Z</time>
      </trkpt>
      <trkpt lat="44.62797" lon="6.24157">
        <ele>1729.55</ele>
        <time>2019-06-12T07:57:21Z</time>
      </trkpt>
      <trkpt lat="44.62798" lon="6.24159">
        <ele>1730.51</ele>
        <time>2019-06-12T07:57:38Z</time>
      </trkpt>
      <trkpt lat="44.62798" lon="6.24156">
        <ele>1730.51</ele>
        <time>2019-06-12T07:58:01Z</time>
      </trkpt>
      <trkpt lat="44.62796" lon="6.24159">
        <ele>1730.51</ele>
        <time>2019-06-12T07:58:20Z</time>
      </trkpt>
      <trkpt lat="44.62796" lon="6.24156">
        <ele>1730.51</ele>
        <time>2019-06-12T07:58:37Z</time>
      </trkpt>
      <trkpt lat="44.62795" lon="6.24158">
        <ele>1729.07</ele>
        <time>2019-06-12T07:58:51Z</time>
      </trkpt>
      <trkpt lat="44.62794" lon="6.24154">
        <ele>1730.51</ele>
        <time>2019-06-12T07:59:07Z</time>
      </trkpt>
      <trkpt lat="44.62794" lon="6.24154">
        <ele>1730.51</ele>
        <time>2019-06-12T07:59:33Z</time>
      </trkpt>
      <trkpt lat="44.62793" lon="6.24154">
        <ele>1730.51</ele>
        <time>2019-06-12T07:59:58Z</time>
      </trkpt>
      <trkpt lat="44.62793" lon="6.24155">
        <ele>1730.99</ele>
        <time>2019-06-12T08:00:27Z</time>
      </trkpt>
      <trkpt lat="44.62797" lon="6.24155">
        <ele>1730.99</ele>
        <time>2019-06-12T08:00:53Z</time>
      </trkpt>
      <trkpt lat="44.62801" lon="6.24159">
        <ele>1730.99</ele>
        <time>2019-06-12T08:01:08Z</time>
      </trkpt>
      <trkpt lat="44.62806" lon="6.24155">
        <ele>1730.99</ele>
        <time>2019-06-12T08:01:22Z</time>
      </trkpt>
      <trkpt lat="44.62811" lon="6.24151">
        <ele>1729.55</ele>
        <time>2019-06-12T08:01:36Z</time>
      </trkpt>
      <trkpt lat="44.62819" lon="6.24146">
        <ele>1728.59</ele>
        <time>2019-06-12T08:01:49Z</time>
      </trkpt>
      <trkpt lat="44.62824" lon="6.24143">
        <ele>1727.63</ele>
        <time>2019-06-12T08:01:56Z</time>
      </trkpt>
      <trkpt lat="44.62834" lon="6.24138">
        <ele>1727.63</ele>
        <time>2019-06-12T08:02:10Z</time>
      </trkpt>
      <trkpt lat="44.62841" lon="6.24131">
        <ele>1727.15</ele>
        <time>2019-06-12T08:02:24Z</time>
      </trkpt>
      <trkpt lat="44.62842" lon="6.2413">
        <ele>1727.15</ele>
        <time>2019-06-12T08:02:25Z</time>
      </trkpt>
      <trkpt lat="44.62848" lon="6.24126">
        <ele>1727.15</ele>
        <time>2019-06-12T08:02:33Z</time>
      </trkpt>
      <trkpt lat="44.62857" lon="6.24114">
        <ele>1726.67</ele>
        <time>2019-06-12T08:02:47Z</time>
      </trkpt>
      <trkpt lat="44.62859" lon="6.24112">
        <ele>1726.18</ele>
        <time>2019-06-12T08:02:52Z</time>
      </trkpt>
      <trkpt lat="44.62865" lon="6.24105">
        <ele>1726.67</ele>
        <time>2019-06-12T08:03:03Z</time>
      </trkpt>
      <trkpt lat="44.62871" lon="6.24095">
        <ele>1726.67</ele>
        <time>2019-06-12T08:03:13Z</time>
      </trkpt>
      <trkpt lat="44.62879" lon="6.24081">
        <ele>1726.67</ele>
        <time>2019-06-12T08:03:25Z</time>
      </trkpt>
      <trkpt lat="44.62883" lon="6.24075">
        <ele>1726.67</ele>
        <time>2019-06-12T08:03:31Z</time>
      </trkpt>
      <trkpt lat="44.62894" lon="6.24067">
        <ele>1726.67</ele>
        <time>2019-06-12T08:03:46Z</time>
      </trkpt>
      <trkpt lat="44.62897" lon="6.24065">
        <ele>1728.11</ele>
        <time>2019-06-12T08:03:49Z</time>
      </trkpt>
      <trkpt lat="44.62912" lon="6.24063">
        <ele>1728.11</ele>
        <time>2019-06-12T08:04:05Z</time>
      </trkpt>
      <trkpt lat="44.62923" lon="6.24061">
        <ele>1730.03</ele>
        <time>2019-06-12T08:04:18Z</time>
      </trkpt>
      <trkpt lat="44.62937" lon="6.24055">
        <ele>1731.47</ele>
        <time>2019-06-12T08:04:34Z</time>
      </trkpt>
      <trkpt lat="44.62949" lon="6.24054">
        <ele>1732.91</ele>
        <time>2019-06-12T08:04:48Z</time>
      </trkpt>
      <trkpt lat="44.62956" lon="6.24057">
        <ele>1733.88</ele>
        <time>2019-06-12T08:05:01Z</time>
      </trkpt>
      <trkpt lat="44.62966" lon="6.24049">
        <ele>1734.36</ele>
        <time>2019-06-12T08:05:12Z</time>
      </trkpt>
      <trkpt lat="44.62976" lon="6.24041">
        <ele>1735.32</ele>
        <time>2019-06-12T08:05:26Z</time>
      </trkpt>
      <trkpt lat="44.62982" lon="6.24037">
        <ele>1735.8</ele>
        <time>2019-06-12T08:05:32Z</time>
      </trkpt>
      <trkpt lat="44.62986" lon="6.24034">
        <ele>1735.8</ele>
        <time>2019-06-12T08:05:37Z</time>
      </trkpt>
      <trkpt lat="44.62999" lon="6.24033">
        <ele>1737.24</ele>
        <time>2019-06-12T08:05:51Z</time>
      </trkpt>
      <trkpt lat="44.63006" lon="6.24033">
        <ele>1738.2</ele>
        <time>2019-06-12T08:06:00Z</time>
      </trkpt>
      <trkpt lat="44.6302" lon="6.24026">
        <ele>1739.64</ele>
        <time>2019-06-12T08:06:15Z</time>
      </trkpt>
      <trkpt lat="44.63021" lon="6.24025">
        <ele>1739.64</ele>
        <time>2019-06-12T08:06:16Z</time>
      </trkpt>
      <trkpt lat="44.63028" lon="6.2402">
        <ele>1740.12</ele>
        <time>2019-06-12T08:06:23Z</time>
      </trkpt>
      <trkpt lat="44.63045" lon="6.24016">
        <ele>1741.57</ele>
        <time>2019-06-12T08:06:39Z</time>
      </trkpt>
      <trkpt lat="44.6306" lon="6.24009">
        <ele>1743.01</ele>
        <time>2019-06-12T08:06:55Z</time>
      </trkpt>
      <trkpt lat="44.63062" lon="6.24008">
        <ele>1743.01</ele>
        <time>2019-06-12T08:06:57Z</time>
      </trkpt>
      <trkpt lat="44.63076" lon="6.23994">
        <ele>1744.93</ele>
        <time>2019-06-12T08:07:14Z</time>
      </trkpt>
      <trkpt lat="44.63089" lon="6.2398">
        <ele>1744.45</ele>
        <time>2019-06-12T08:07:27Z</time>
      </trkpt>
      <trkpt lat="44.63096" lon="6.23977">
        <ele>1743.49</ele>
        <time>2019-06-12T08:07:35Z</time>
      </trkpt>
      <trkpt lat="44.63111" lon="6.23975">
        <ele>1744.93</ele>
        <time>2019-06-12T08:07:49Z</time>
      </trkpt>
      <trkpt lat="44.63115" lon="6.23973">
        <ele>1744.93</ele>
        <time>2019-06-12T08:07:53Z</time>
      </trkpt>
      <trkpt lat="44.63126" lon="6.23963">
        <ele>1746.85</ele>
        <time>2019-06-12T08:08:07Z</time>
      </trkpt>
      <trkpt lat="44.63134" lon="6.23956">
        <ele>1746.85</ele>
        <time>2019-06-12T08:08:16Z</time>
      </trkpt>
      <trkpt lat="44.63136" lon="6.23951">
        <ele>1747.81</ele>
        <time>2019-06-12T08:08:22Z</time>
      </trkpt>
      <trkpt lat="44.63154" lon="6.23932">
        <ele>1748.29</ele>
        <time>2019-06-12T08:08:42Z</time>
      </trkpt>
      <trkpt lat="44.63167" lon="6.23925">
        <ele>1750.22</ele>
        <time>2019-06-12T08:08:57Z</time>
      </trkpt>
      <trkpt lat="44.6318" lon="6.23921">
        <ele>1750.7</ele>
        <time>2019-06-12T08:09:11Z</time>
      </trkpt>
      <trkpt lat="44.63192" lon="6.23913">
        <ele>1752.14</ele>
        <time>2019-06-12T08:09:24Z</time>
      </trkpt>
      <trkpt lat="44.63203" lon="6.23904">
        <ele>1754.06</ele>
        <time>2019-06-12T08:09:37Z</time>
      </trkpt>
      <trkpt lat="44.63215" lon="6.23895">
        <ele>1755.02</ele>
        <time>2019-06-12T08:09:51Z</time>
      </trkpt>
      <trkpt lat="44.63217" lon="6.23889">
        <ele>1755.99</ele>
        <time>2019-06-12T08:10:05Z</time>
      </trkpt>
      <trkpt lat="44.63222" lon="6.23879">
        <ele>1755.99</ele>
        <time>2019-06-12T08:10:21Z</time>
      </trkpt>
      <trkpt lat="44.63225" lon="6.23875">
        <ele>1755.99</ele>
        <time>2019-06-12T08:10:34Z</time>
      </trkpt>
      <trkpt lat="44.63226" lon="6.23872">
        <ele>1755.99</ele>
        <time>2019-06-12T08:10:58Z</time>
      </trkpt>
      <trkpt lat="44.6323" lon="6.23862">
        <ele>1756.95</ele>
        <time>2019-06-12T08:11:12Z</time>
      </trkpt>
      <trkpt lat="44.6324" lon="6.23858">
        <ele>1758.87</ele>
        <time>2019-06-12T08:11:27Z</time>
      </trkpt>
      <trkpt lat="44.63242" lon="6.23858">
        <ele>1759.35</ele>
        <time>2019-06-12T08:11:47Z</time>
      </trkpt>
      <trkpt lat="44.63248" lon="6.23857">
        <ele>1759.35</ele>
        <time>2019-06-12T08:12:06Z</time>
      </trkpt>
      <trkpt lat="44.63259" lon="6.23847">
        <ele>1759.35</ele>
        <time>2019-06-12T08:12:18Z</time>
      </trkpt>
      <trkpt lat="44.63263" lon="6.23828">
        <ele>1762.23</ele>
        <time>2019-06-12T08:12:33Z</time>
      </trkpt>
      <trkpt lat="44.63264" lon="6.23823">
        <ele>1762.23</ele>
        <time>2019-06-12T08:12:47Z</time>
      </trkpt>
      <trkpt lat="44.63262" lon="6.23822">
        <ele>1762.71</ele>
        <time>2019-06-12T08:12:52Z</time>
      </trkpt>
      <trkpt lat="44.63262" lon="6.23807">
        <ele>1763.2</ele>
        <time>2019-06-12T08:13:08Z</time>
      </trkpt>
      <trkpt lat="44.63266" lon="6.23802">
        <ele>1763.2</ele>
        <time>2019-06-12T08:13:14Z</time>
      </trkpt>
      <trkpt lat="44.63269" lon="6.23801">
        <ele>1763.2</ele>
        <time>2019-06-12T08:13:17Z</time>
      </trkpt>
      <trkpt lat="44.63277" lon="6.23792">
        <ele>1764.16</ele>
        <time>2019-06-12T08:13:26Z</time>
      </trkpt>
      <trkpt lat="44.63278" lon="6.23788">
        <ele>1764.16</ele>
        <time>2019-06-12T08:13:29Z</time>
      </trkpt>
      <trkpt lat="44.6329" lon="6.23774">
        <ele>1766.08</ele>
        <time>2019-06-12T08:13:46Z</time>
      </trkpt>
      <trkpt lat="44.63305" lon="6.23783">
        <ele>1767.52</ele>
        <time>2019-06-12T08:14:03Z</time>
      </trkpt>
      <trkpt lat="44.63315" lon="6.23776">
        <ele>1768.96</ele>
        <time>2019-06-12T08:14:13Z</time>
      </trkpt>
      <trkpt lat="44.63318" lon="6.23771">
        <ele>1768.96</ele>
        <time>2019-06-12T08:14:20Z</time>
      </trkpt>
      <trkpt lat="44.6332" lon="6.23768">
        <ele>1768.96</ele>
        <time>2019-06-12T08:14:22Z</time>
      </trkpt>
      <trkpt lat="44.63321" lon="6.23766">
        <ele>1768.96</ele>
        <time>2019-06-12T08:14:23Z</time>
      </trkpt>
      <trkpt lat="44.63323" lon="6.23763">
        <ele>1768.96</ele>
        <time>2019-06-12T08:14:27Z</time>
      </trkpt>
      <trkpt lat="44.63324" lon="6.23761">
        <ele>1769.92</ele>
        <time>2019-06-12T08:14:28Z</time>
      </trkpt>
      <trkpt lat="44.63324" lon="6.23759">
        <ele>1769.92</ele>
        <time>2019-06-12T08:14:29Z</time>
      </trkpt>
      <trkpt lat="44.63325" lon="6.23751">
        <ele>1770.41</ele>
        <time>2019-06-12T08:14:38Z</time>
      </trkpt>
      <trkpt lat="44.63327" lon="6.23748">
        <ele>1771.37</ele>
        <time>2019-06-12T08:14:54Z</time>
      </trkpt>
      <trkpt lat="44.63326" lon="6.23748">
        <ele>1771.37</ele>
        <time>2019-06-12T08:14:56Z</time>
      </trkpt>
      <trkpt lat="44.63325" lon="6.23747">
        <ele>1771.37</ele>
        <time>2019-06-12T08:15:11Z</time>
      </trkpt>
      <trkpt lat="44.63326" lon="6.23744">
        <ele>1771.37</ele>
        <time>2019-06-12T08:15:14Z</time>
      </trkpt>
      <trkpt lat="44.63327" lon="6.23742">
        <ele>1771.85</ele>
        <time>2019-06-12T08:15:15Z</time>
      </trkpt>
      <trkpt lat="44.63328" lon="6.23739">
        <ele>1771.85</ele>
        <time>2019-06-12T08:15:16Z</time>
      </trkpt>
      <trkpt lat="44.63329" lon="6.23737">
        <ele>1771.85</ele>
        <time>2019-06-12T08:15:17Z</time>
      </trkpt>
      <trkpt lat="44.6333" lon="6.23735">
        <ele>1772.33</ele>
        <time>2019-06-12T08:15:21Z</time>
      </trkpt>
      <trkpt lat="44.6333" lon="6.23732">
        <ele>1772.33</ele>
        <time>2019-06-12T08:15:22Z</time>
      </trkpt>
      <trkpt lat="44.63331" lon="6.23722">
        <ele>1773.29</ele>
        <time>2019-06-12T08:15:31Z</time>
      </trkpt>
      <trkpt lat="44.63331" lon="6.2372">
        <ele>1773.29</ele>
        <time>2019-06-12T08:15:32Z</time>
      </trkpt>
      <trkpt lat="44.63333" lon="6.23709">
        <ele>1773.77</ele>
        <time>2019-06-12T08:15:46Z</time>
      </trkpt>
      <trkpt lat="44.63336" lon="6.23708">
        <ele>1773.77</ele>
        <time>2019-06-12T08:15:53Z</time>
      </trkpt>
      <trkpt lat="44.6334" lon="6.23704">
        <ele>1773.77</ele>
        <time>2019-06-12T08:16:05Z</time>
      </trkpt>
      <trkpt lat="44.63342" lon="6.237">
        <ele>1774.73</ele>
        <time>2019-06-12T08:16:09Z</time>
      </trkpt>
      <trkpt lat="44.63348" lon="6.23693">
        <ele>1775.69</ele>
        <time>2019-06-12T08:16:18Z</time>
      </trkpt>
      <trkpt lat="44.63349" lon="6.23692">
        <ele>1775.69</ele>
        <time>2019-06-12T08:16:19Z</time>
      </trkpt>
      <trkpt lat="44.63354" lon="6.2369">
        <ele>1775.69</ele>
        <time>2019-06-12T08:16:25Z</time>
      </trkpt>
      <trkpt lat="44.63353" lon="6.23693">
        <ele>1775.69</ele>
        <time>2019-06-12T08:16:27Z</time>
      </trkpt>
      <trkpt lat="44.63348" lon="6.23713">
        <ele>1777.61</ele>
        <time>2019-06-12T08:16:42Z</time>
      </trkpt>
      <trkpt lat="44.63349" lon="6.23719">
        <ele>1778.1</ele>
        <time>2019-06-12T08:16:54Z</time>
      </trkpt>
      <trkpt lat="44.63352" lon="6.23718">
        <ele>1779.06</ele>
        <time>2019-06-12T08:17:13Z</time>
      </trkpt>
      <trkpt lat="44.63356" lon="6.23724">
        <ele>1779.06</ele>
        <time>2019-06-12T08:17:27Z</time>
      </trkpt>
      <trkpt lat="44.63357" lon="6.23725">
        <ele>1779.06</ele>
        <time>2019-06-12T08:17:28Z</time>
      </trkpt>
      <trkpt lat="44.63358" lon="6.23726">
        <ele>1779.06</ele>
        <time>2019-06-12T08:17:29Z</time>
      </trkpt>
      <trkpt lat="44.63361" lon="6.23733">
        <ele>1779.54</ele>
        <time>2019-06-12T08:17:35Z</time>
      </trkpt>
      <trkpt lat="44.63369" lon="6.23746">
        <ele>1781.46</ele>
        <time>2019-06-12T08:17:49Z</time>
      </trkpt>
      <trkpt lat="44.6337" lon="6.23739">
        <ele>1782.42</ele>
        <time>2019-06-12T08:18:01Z</time>
      </trkpt>
      <trkpt lat="44.63371" lon="6.23736">
        <ele>1782.9</ele>
        <time>2019-06-12T08:18:04Z</time>
      </trkpt>
      <trkpt lat="44.63372" lon="6.23734">
        <ele>1782.9</ele>
        <time>2019-06-12T08:18:05Z</time>
      </trkpt>
      <trkpt lat="44.63375" lon="6.2372">
        <ele>1783.86</ele>
        <time>2019-06-12T08:18:18Z</time>
      </trkpt>
      <trkpt lat="44.63381" lon="6.23707">
        <ele>1784.82</ele>
        <time>2019-06-12T08:18:31Z</time>
      </trkpt>
      <trkpt lat="44.63388" lon="6.23695">
        <ele>1785.79</ele>
        <time>2019-06-12T08:18:47Z</time>
      </trkpt>
      <trkpt lat="44.63387" lon="6.23695">
        <ele>1786.75</ele>
        <time>2019-06-12T08:19:04Z</time>
      </trkpt>
      <trkpt lat="44.63388" lon="6.23696">
        <ele>1785.79</ele>
        <time>2019-06-12T08:19:28Z</time>
      </trkpt>
      <trkpt lat="44.63388" lon="6.23696">
        <ele>1784.82</ele>
        <time>2019-06-12T08:30:11Z</time>
      </trkpt>
      <trkpt lat="44.63388" lon="6.23698">
        <ele>1784.82</ele>
        <time>2019-06-12T08:30:12Z</time>
      </trkpt>
      <trkpt lat="44.63385" lon="6.23696">
        <ele>1786.27</ele>
        <time>2019-06-12T08:30:28Z</time>
      </trkpt>
      <trkpt lat="44.63388" lon="6.23694">
        <ele>1788.67</ele>
        <time>2019-06-12T08:30:46Z</time>
      </trkpt>
      <trkpt lat="44.63387" lon="6.23695">
        <ele>1791.55</ele>
        <time>2019-06-12T08:30:57Z</time>
      </trkpt>
      <trkpt lat="44.63387" lon="6.23692">
        <ele>1791.55</ele>
        <time>2019-06-12T08:31:13Z</time>
      </trkpt>
      <trkpt lat="44.63392" lon="6.23697">
        <ele>1792.52</ele>
        <time>2019-06-12T08:31:26Z</time>
      </trkpt>
      <trkpt lat="44.63391" lon="6.23701">
        <ele>1792.52</ele>
        <time>2019-06-12T08:31:29Z</time>
      </trkpt>
      <trkpt lat="44.63392" lon="6.23712">
        <ele>1793.96</ele>
        <time>2019-06-12T08:31:42Z</time>
      </trkpt>
      <trkpt lat="44.63402" lon="6.23722">
        <ele>1795.88</ele>
        <time>2019-06-12T08:31:56Z</time>
      </trkpt>
      <trkpt lat="44.63402" lon="6.2372">
        <ele>1795.88</ele>
        <time>2019-06-12T08:31:58Z</time>
      </trkpt>
      <trkpt lat="44.63402" lon="6.23709">
        <ele>1797.32</ele>
        <time>2019-06-12T08:32:13Z</time>
      </trkpt>
      <trkpt lat="44.63409" lon="6.237">
        <ele>1797.32</ele>
        <time>2019-06-12T08:32:21Z</time>
      </trkpt>
      <trkpt lat="44.63411" lon="6.23697">
        <ele>1797.32</ele>
        <time>2019-06-12T08:32:24Z</time>
      </trkpt>
      <trkpt lat="44.63414" lon="6.23683">
        <ele>1798.76</ele>
        <time>2019-06-12T08:32:38Z</time>
      </trkpt>
      <trkpt lat="44.63415" lon="6.23688">
        <ele>1799.24</ele>
        <time>2019-06-12T08:32:42Z</time>
      </trkpt>
      <trkpt lat="44.63425" lon="6.23708">
        <ele>1801.17</ele>
        <time>2019-06-12T08:32:59Z</time>
      </trkpt>
      <trkpt lat="44.63429" lon="6.23724">
        <ele>1802.61</ele>
        <time>2019-06-12T08:33:12Z</time>
      </trkpt>
      <trkpt lat="44.6342" lon="6.23742">
        <ele>1803.57</ele>
        <time>2019-06-12T08:33:27Z</time>
      </trkpt>
      <trkpt lat="44.63413" lon="6.23759">
        <ele>1805.01</ele>
        <time>2019-06-12T08:33:43Z</time>
      </trkpt>
      <trkpt lat="44.63414" lon="6.23772">
        <ele>1807.42</ele>
        <time>2019-06-12T08:33:59Z</time>
      </trkpt>
      <trkpt lat="44.6342" lon="6.23758">
        <ele>1808.38</ele>
        <time>2019-06-12T08:34:13Z</time>
      </trkpt>
      <trkpt lat="44.63429" lon="6.23748">
        <ele>1809.82</ele>
        <time>2019-06-12T08:34:25Z</time>
      </trkpt>
      <trkpt lat="44.63438" lon="6.23737">
        <ele>1810.78</ele>
        <time>2019-06-12T08:34:39Z</time>
      </trkpt>
      <trkpt lat="44.63438" lon="6.23741">
        <ele>1812.7</ele>
        <time>2019-06-12T08:34:54Z</time>
      </trkpt>
      <trkpt lat="44.63434" lon="6.23762">
        <ele>1815.11</ele>
        <time>2019-06-12T08:35:11Z</time>
      </trkpt>
      <trkpt lat="44.63444" lon="6.23777">
        <ele>1816.07</ele>
        <time>2019-06-12T08:35:27Z</time>
      </trkpt>
      <trkpt lat="44.63447" lon="6.23785">
        <ele>1817.99</ele>
        <time>2019-06-12T08:35:42Z</time>
      </trkpt>
      <trkpt lat="44.63458" lon="6.2377">
        <ele>1819.43</ele>
        <time>2019-06-12T08:35:58Z</time>
      </trkpt>
      <trkpt lat="44.6346" lon="6.23766">
        <ele>1820.87</ele>
        <time>2019-06-12T08:36:02Z</time>
      </trkpt>
      <trkpt lat="44.63459" lon="6.23748">
        <ele>1822.32</ele>
        <time>2019-06-12T08:36:16Z</time>
      </trkpt>
      <trkpt lat="44.63462" lon="6.23732">
        <ele>1824.24</ele>
        <time>2019-06-12T08:36:31Z</time>
      </trkpt>
      <trkpt lat="44.63469" lon="6.23721">
        <ele>1825.68</ele>
        <time>2019-06-12T08:36:45Z</time>
      </trkpt>
      <trkpt lat="44.63474" lon="6.23714">
        <ele>1826.16</ele>
        <time>2019-06-12T08:36:58Z</time>
      </trkpt>
      <trkpt lat="44.63478" lon="6.23709">
        <ele>1826.64</ele>
        <time>2019-06-12T08:37:04Z</time>
      </trkpt>
      <trkpt lat="44.63481" lon="6.23693">
        <ele>1827.6</ele>
        <time>2019-06-12T08:37:19Z</time>
      </trkpt>
      <trkpt lat="44.63487" lon="6.23678">
        <ele>1828.08</ele>
        <time>2019-06-12T08:37:34Z</time>
      </trkpt>
      <trkpt lat="44.63491" lon="6.2367">
        <ele>1829.53</ele>
        <time>2019-06-12T08:37:46Z</time>
      </trkpt>
      <trkpt lat="44.63493" lon="6.23657">
        <ele>1832.89</ele>
        <time>2019-06-12T08:37:58Z</time>
      </trkpt>
      <trkpt lat="44.63495" lon="6.23648">
        <ele>1833.37</ele>
        <time>2019-06-12T08:38:07Z</time>
      </trkpt>
      <trkpt lat="44.63495" lon="6.23643">
        <ele>1833.85</ele>
        <time>2019-06-12T08:38:12Z</time>
      </trkpt>
      <trkpt lat="44.63482" lon="6.23636">
        <ele>1835.29</ele>
        <time>2019-06-12T08:38:27Z</time>
      </trkpt>
      <trkpt lat="44.63481" lon="6.23631">
        <ele>1835.77</ele>
        <time>2019-06-12T08:38:39Z</time>
      </trkpt>
      <trkpt lat="44.63479" lon="6.23624">
        <ele>1836.26</ele>
        <time>2019-06-12T08:38:53Z</time>
      </trkpt>
      <trkpt lat="44.63477" lon="6.23611">
        <ele>1837.22</ele>
        <time>2019-06-12T08:39:09Z</time>
      </trkpt>
      <trkpt lat="44.63473" lon="6.23595">
        <ele>1837.22</ele>
        <time>2019-06-12T08:39:23Z</time>
      </trkpt>
      <trkpt lat="44.63469" lon="6.23584">
        <ele>1838.18</ele>
        <time>2019-06-12T08:39:39Z</time>
      </trkpt>
      <trkpt lat="44.63471" lon="6.23574">
        <ele>1839.14</ele>
        <time>2019-06-12T08:39:52Z</time>
      </trkpt>
      <trkpt lat="44.6348" lon="6.23591">
        <ele>1841.06</ele>
        <time>2019-06-12T08:40:08Z</time>
      </trkpt>
      <trkpt lat="44.63483" lon="6.23599">
        <ele>1841.54</ele>
        <time>2019-06-12T08:40:15Z</time>
      </trkpt>
      <trkpt lat="44.63492" lon="6.23612">
        <ele>1842.98</ele>
        <time>2019-06-12T08:40:30Z</time>
      </trkpt>
      <trkpt lat="44.63494" lon="6.23607">
        <ele>1843.95</ele>
        <time>2019-06-12T08:40:37Z</time>
      </trkpt>
      <trkpt lat="44.63489" lon="6.2359">
        <ele>1845.87</ele>
        <time>2019-06-12T08:40:51Z</time>
      </trkpt>
      <trkpt lat="44.63489" lon="6.23589">
        <ele>1845.87</ele>
        <time>2019-06-12T08:40:52Z</time>
      </trkpt>
      <trkpt lat="44.63486" lon="6.23571">
        <ele>1846.83</ele>
        <time>2019-06-12T08:41:06Z</time>
      </trkpt>
      <trkpt lat="44.63481" lon="6.23555">
        <ele>1847.79</ele>
        <time>2019-06-12T08:41:18Z</time>
      </trkpt>
      <trkpt lat="44.6348" lon="6.23543">
        <ele>1847.79</ele>
        <time>2019-06-12T08:41:26Z</time>
      </trkpt>
      <trkpt lat="44.63483" lon="6.23543">
        <ele>1849.23</ele>
        <time>2019-06-12T08:41:39Z</time>
      </trkpt>
      <trkpt lat="44.63486" lon="6.23546">
        <ele>1850.19</ele>
        <time>2019-06-12T08:41:44Z</time>
      </trkpt>
      <trkpt lat="44.63494" lon="6.23551">
        <ele>1852.12</ele>
        <time>2019-06-12T08:42:00Z</time>
      </trkpt>
      <trkpt lat="44.63495" lon="6.23549">
        <ele>1853.56</ele>
        <time>2019-06-12T08:42:07Z</time>
      </trkpt>
      <trkpt lat="44.63487" lon="6.23529">
        <ele>1855</ele>
        <time>2019-06-12T08:42:23Z</time>
      </trkpt>
      <trkpt lat="44.63484" lon="6.23511">
        <ele>1855.96</ele>
        <time>2019-06-12T08:42:37Z</time>
      </trkpt>
      <trkpt lat="44.6348" lon="6.23495">
        <ele>1856.92</ele>
        <time>2019-06-12T08:42:50Z</time>
      </trkpt>
      <trkpt lat="44.63479" lon="6.23493">
        <ele>1856.92</ele>
        <time>2019-06-12T08:42:52Z</time>
      </trkpt>
      <trkpt lat="44.63476" lon="6.2347">
        <ele>1857.89</ele>
        <time>2019-06-12T08:43:09Z</time>
      </trkpt>
      <trkpt lat="44.63474" lon="6.23456">
        <ele>1859.33</ele>
        <time>2019-06-12T08:43:23Z</time>
      </trkpt>
      <trkpt lat="44.63473" lon="6.23442">
        <ele>1861.73</ele>
        <time>2019-06-12T08:43:39Z</time>
      </trkpt>
      <trkpt lat="44.63473" lon="6.23427">
        <ele>1864.13</ele>
        <time>2019-06-12T08:43:55Z</time>
      </trkpt>
      <trkpt lat="44.63472" lon="6.23411">
        <ele>1865.58</ele>
        <time>2019-06-12T08:44:08Z</time>
      </trkpt>
      <trkpt lat="44.63473" lon="6.23395">
        <ele>1866.54</ele>
        <time>2019-06-12T08:44:24Z</time>
      </trkpt>
      <trkpt lat="44.63471" lon="6.23382">
        <ele>1867.98</ele>
        <time>2019-06-12T08:44:36Z</time>
      </trkpt>
      <trkpt lat="44.63472" lon="6.23375">
        <ele>1868.94</ele>
        <time>2019-06-12T08:44:45Z</time>
      </trkpt>
      <trkpt lat="44.63472" lon="6.23369">
        <ele>1869.9</ele>
        <time>2019-06-12T08:44:50Z</time>
      </trkpt>
      <trkpt lat="44.63473" lon="6.23355">
        <ele>1869.42</ele>
        <time>2019-06-12T08:44:58Z</time>
      </trkpt>
      <trkpt lat="44.6347" lon="6.23343">
        <ele>1871.34</ele>
        <time>2019-06-12T08:45:08Z</time>
      </trkpt>
      <trkpt lat="44.63468" lon="6.23337">
        <ele>1871.82</ele>
        <time>2019-06-12T08:45:15Z</time>
      </trkpt>
      <trkpt lat="44.63469" lon="6.23326">
        <ele>1873.75</ele>
        <time>2019-06-12T08:45:25Z</time>
      </trkpt>
      <trkpt lat="44.6347" lon="6.23324">
        <ele>1873.75</ele>
        <time>2019-06-12T08:45:27Z</time>
      </trkpt>
      <trkpt lat="44.63471" lon="6.2332">
        <ele>1874.23</ele>
        <time>2019-06-12T08:45:30Z</time>
      </trkpt>
      <trkpt lat="44.63472" lon="6.23303">
        <ele>1876.15</ele>
        <time>2019-06-12T08:45:44Z</time>
      </trkpt>
      <trkpt lat="44.63472" lon="6.23298">
        <ele>1876.15</ele>
        <time>2019-06-12T08:45:48Z</time>
      </trkpt>
      <trkpt lat="44.63471" lon="6.23285">
        <ele>1878.07</ele>
        <time>2019-06-12T08:46:00Z</time>
      </trkpt>
      <trkpt lat="44.63474" lon="6.23272">
        <ele>1880.96</ele>
        <time>2019-06-12T08:46:15Z</time>
      </trkpt>
      <trkpt lat="44.63477" lon="6.23272">
        <ele>1882.4</ele>
        <time>2019-06-12T08:46:28Z</time>
      </trkpt>
      <trkpt lat="44.63478" lon="6.23281">
        <ele>1883.84</ele>
        <time>2019-06-12T08:46:35Z</time>
      </trkpt>
      <trkpt lat="44.63489" lon="6.23299">
        <ele>1884.8</ele>
        <time>2019-06-12T08:46:52Z</time>
      </trkpt>
      <trkpt lat="44.63489" lon="6.2329">
        <ele>1886.72</ele>
        <time>2019-06-12T08:47:02Z</time>
      </trkpt>
      <trkpt lat="44.63487" lon="6.23279">
        <ele>1888.17</ele>
        <time>2019-06-12T08:47:17Z</time>
      </trkpt>
      <trkpt lat="44.6349" lon="6.23271">
        <ele>1890.57</ele>
        <time>2019-06-12T08:47:33Z</time>
      </trkpt>
      <trkpt lat="44.63491" lon="6.23273">
        <ele>1890.57</ele>
        <time>2019-06-12T08:47:35Z</time>
      </trkpt>
      <trkpt lat="44.63501" lon="6.23284">
        <ele>1892.01</ele>
        <time>2019-06-12T08:47:49Z</time>
      </trkpt>
      <trkpt lat="44.63509" lon="6.23289">
        <ele>1893.93</ele>
        <time>2019-06-12T08:48:01Z</time>
      </trkpt>
      <trkpt lat="44.63513" lon="6.23291">
        <ele>1895.38</ele>
        <time>2019-06-12T08:48:12Z</time>
      </trkpt>
      <trkpt lat="44.63514" lon="6.23291">
        <ele>1895.38</ele>
        <time>2019-06-12T08:48:24Z</time>
      </trkpt>
      <trkpt lat="44.63513" lon="6.23288">
        <ele>1895.38</ele>
        <time>2019-06-12T08:48:46Z</time>
      </trkpt>
      <trkpt lat="44.63514" lon="6.23285">
        <ele>1895.38</ele>
        <time>2019-06-12T08:49:12Z</time>
      </trkpt>
      <trkpt lat="44.63512" lon="6.23284">
        <ele>1895.38</ele>
        <time>2019-06-12T08:49:15Z</time>
      </trkpt>
      <trkpt lat="44.63499" lon="6.23273">
        <ele>1897.3</ele>
        <time>2019-06-12T08:49:30Z</time>
      </trkpt>
      <trkpt lat="44.63497" lon="6.23262">
        <ele>1899.22</ele>
        <time>2019-06-12T08:49:40Z</time>
      </trkpt>
      <trkpt lat="44.63491" lon="6.23247">
        <ele>1900.66</ele>
        <time>2019-06-12T08:49:54Z</time>
      </trkpt>
      <trkpt lat="44.63488" lon="6.23231">
        <ele>1902.59</ele>
        <time>2019-06-12T08:50:08Z</time>
      </trkpt>
      <trkpt lat="44.63482" lon="6.23213">
        <ele>1903.55</ele>
        <time>2019-06-12T08:50:25Z</time>
      </trkpt>
      <trkpt lat="44.63482" lon="6.23194">
        <ele>1905.95</ele>
        <time>2019-06-12T08:50:41Z</time>
      </trkpt>
      <trkpt lat="44.63488" lon="6.23185">
        <ele>1907.39</ele>
        <time>2019-06-12T08:50:56Z</time>
      </trkpt>
      <trkpt lat="44.63488" lon="6.23196">
        <ele>1907.87</ele>
        <time>2019-06-12T08:51:05Z</time>
      </trkpt>
      <trkpt lat="44.63497" lon="6.23211">
        <ele>1909.8</ele>
        <time>2019-06-12T08:51:20Z</time>
      </trkpt>
      <trkpt lat="44.63507" lon="6.23226">
        <ele>1911.72</ele>
        <time>2019-06-12T08:51:37Z</time>
      </trkpt>
      <trkpt lat="44.63509" lon="6.23242">
        <ele>1913.16</ele>
        <time>2019-06-12T08:51:50Z</time>
      </trkpt>
      <trkpt lat="44.63511" lon="6.23247">
        <ele>1913.64</ele>
        <time>2019-06-12T08:51:55Z</time>
      </trkpt>
      <trkpt lat="44.63514" lon="6.23243">
        <ele>1913.64</ele>
        <time>2019-06-12T08:51:59Z</time>
      </trkpt>
      <trkpt lat="44.63515" lon="6.23221">
        <ele>1916.04</ele>
        <time>2019-06-12T08:52:15Z</time>
      </trkpt>
      <trkpt lat="44.63514" lon="6.23202">
        <ele>1917.01</ele>
        <time>2019-06-12T08:52:30Z</time>
      </trkpt>
      <trkpt lat="44.63519" lon="6.23201">
        <ele>1917.97</ele>
        <time>2019-06-12T08:52:37Z</time>
      </trkpt>
      <trkpt lat="44.63526" lon="6.23202">
        <ele>1918.45</ele>
        <time>2019-06-12T08:52:45Z</time>
      </trkpt>
      <trkpt lat="44.63534" lon="6.23189">
        <ele>1919.41</ele>
        <time>2019-06-12T08:52:57Z</time>
      </trkpt>
      <trkpt lat="44.63534" lon="6.23186">
        <ele>1919.41</ele>
        <time>2019-06-12T08:52:59Z</time>
      </trkpt>
      <trkpt lat="44.63534" lon="6.23182">
        <ele>1919.89</ele>
        <time>2019-06-12T08:53:02Z</time>
      </trkpt>
      <trkpt lat="44.63537" lon="6.23162">
        <ele>1921.33</ele>
        <time>2019-06-12T08:53:18Z</time>
      </trkpt>
      <trkpt lat="44.63539" lon="6.23154">
        <ele>1921.81</ele>
        <time>2019-06-12T08:53:24Z</time>
      </trkpt>
      <trkpt lat="44.63543" lon="6.23146">
        <ele>1921.81</ele>
        <time>2019-06-12T08:53:31Z</time>
      </trkpt>
      <trkpt lat="44.63547" lon="6.23123">
        <ele>1923.25</ele>
        <time>2019-06-12T08:53:48Z</time>
      </trkpt>
      <trkpt lat="44.63551" lon="6.23102">
        <ele>1924.7</ele>
        <time>2019-06-12T08:54:04Z</time>
      </trkpt>
      <trkpt lat="44.63557" lon="6.23087">
        <ele>1925.66</ele>
        <time>2019-06-12T08:54:18Z</time>
      </trkpt>
      <trkpt lat="44.6356" lon="6.23078">
        <ele>1926.14</ele>
        <time>2019-06-12T08:54:26Z</time>
      </trkpt>
      <trkpt lat="44.63561" lon="6.23059">
        <ele>1927.58</ele>
        <time>2019-06-12T08:54:40Z</time>
      </trkpt>
      <trkpt lat="44.63566" lon="6.23041">
        <ele>1928.54</ele>
        <time>2019-06-12T08:54:56Z</time>
      </trkpt>
      <trkpt lat="44.6357" lon="6.23043">
        <ele>1929.98</ele>
        <time>2019-06-12T08:55:06Z</time>
      </trkpt>
      <trkpt lat="44.63578" lon="6.2306">
        <ele>1931.91</ele>
        <time>2019-06-12T08:55:22Z</time>
      </trkpt>
      <trkpt lat="44.6358" lon="6.23082">
        <ele>1933.83</ele>
        <time>2019-06-12T08:55:39Z</time>
      </trkpt>
      <trkpt lat="44.63583" lon="6.23104">
        <ele>1935.75</ele>
        <time>2019-06-12T08:55:57Z</time>
      </trkpt>
      <trkpt lat="44.63582" lon="6.23119">
        <ele>1936.71</ele>
        <time>2019-06-12T08:56:10Z</time>
      </trkpt>
      <trkpt lat="44.63574" lon="6.23139">
        <ele>1939.6</ele>
        <time>2019-06-12T08:56:29Z</time>
      </trkpt>
      <trkpt lat="44.63571" lon="6.23156">
        <ele>1941.04</ele>
        <time>2019-06-12T08:56:45Z</time>
      </trkpt>
      <trkpt lat="44.63575" lon="6.23174">
        <ele>1942.96</ele>
        <time>2019-06-12T08:57:00Z</time>
      </trkpt>
      <trkpt lat="44.63583" lon="6.23184">
        <ele>1945.36</ele>
        <time>2019-06-12T08:57:16Z</time>
      </trkpt>
      <trkpt lat="44.63586" lon="6.23184">
        <ele>1945.85</ele>
        <time>2019-06-12T08:57:19Z</time>
      </trkpt>
      <trkpt lat="44.63595" lon="6.23182">
        <ele>1947.77</ele>
        <time>2019-06-12T08:57:35Z</time>
      </trkpt>
      <trkpt lat="44.63595" lon="6.23179">
        <ele>1947.77</ele>
        <time>2019-06-12T08:57:38Z</time>
      </trkpt>
      <trkpt lat="44.63599" lon="6.23161">
        <ele>1949.69</ele>
        <time>2019-06-12T08:57:54Z</time>
      </trkpt>
      <trkpt lat="44.63608" lon="6.23141">
        <ele>1951.61</ele>
        <time>2019-06-12T08:58:14Z</time>
      </trkpt>
      <trkpt lat="44.63614" lon="6.23124">
        <ele>1953.54</ele>
        <time>2019-06-12T08:58:30Z</time>
      </trkpt>
      <trkpt lat="44.63615" lon="6.2311">
        <ele>1954.5</ele>
        <time>2019-06-12T08:58:41Z</time>
      </trkpt>
      <trkpt lat="44.6362" lon="6.23085">
        <ele>1956.42</ele>
        <time>2019-06-12T08:59:01Z</time>
      </trkpt>
      <trkpt lat="44.63625" lon="6.23065">
        <ele>1957.86</ele>
        <time>2019-06-12T08:59:18Z</time>
      </trkpt>
      <trkpt lat="44.63629" lon="6.23046">
        <ele>1959.3</ele>
        <time>2019-06-12T08:59:34Z</time>
      </trkpt>
      <trkpt lat="44.63637" lon="6.23031">
        <ele>1960.75</ele>
        <time>2019-06-12T08:59:48Z</time>
      </trkpt>
      <trkpt lat="44.63646" lon="6.23015">
        <ele>1961.23</ele>
        <time>2019-06-12T09:00:03Z</time>
      </trkpt>
      <trkpt lat="44.63654" lon="6.22995">
        <ele>1961.71</ele>
        <time>2019-06-12T09:00:20Z</time>
      </trkpt>
      <trkpt lat="44.63656" lon="6.22971">
        <ele>1962.19</ele>
        <time>2019-06-12T09:00:36Z</time>
      </trkpt>
      <trkpt lat="44.63664" lon="6.22959">
        <ele>1963.15</ele>
        <time>2019-06-12T09:00:53Z</time>
      </trkpt>
      <trkpt lat="44.63663" lon="6.22957">
        <ele>1963.15</ele>
        <time>2019-06-12T09:01:05Z</time>
      </trkpt>
      <trkpt lat="44.63666" lon="6.22945">
        <ele>1963.15</ele>
        <time>2019-06-12T09:01:15Z</time>
      </trkpt>
      <trkpt lat="44.63664" lon="6.22932">
        <ele>1963.15</ele>
        <time>2019-06-12T09:01:30Z</time>
      </trkpt>
      <trkpt lat="44.63667" lon="6.22931">
        <ele>1962.67</ele>
        <time>2019-06-12T09:01:48Z</time>
      </trkpt>
      <trkpt lat="44.63665" lon="6.22932">
        <ele>1963.15</ele>
        <time>2019-06-12T09:02:04Z</time>
      </trkpt>
      <trkpt lat="44.63668" lon="6.22922">
        <ele>1963.15</ele>
        <time>2019-06-12T09:02:17Z</time>
      </trkpt>
      <trkpt lat="44.63669" lon="6.22916">
        <ele>1963.63</ele>
        <time>2019-06-12T09:02:34Z</time>
      </trkpt>
      <trkpt lat="44.63669" lon="6.22917">
        <ele>1962.19</ele>
        <time>2019-06-12T09:02:51Z</time>
      </trkpt>
      <trkpt lat="44.63671" lon="6.2292">
        <ele>1962.19</ele>
        <time>2019-06-12T09:03:09Z</time>
      </trkpt>
      <trkpt lat="44.63675" lon="6.22914">
        <ele>1962.19</ele>
        <time>2019-06-12T09:03:23Z</time>
      </trkpt>
      <trkpt lat="44.63675" lon="6.22915">
        <ele>1963.63</ele>
        <time>2019-06-12T09:03:26Z</time>
      </trkpt>
      <trkpt lat="44.63674" lon="6.22917">
        <ele>1964.11</ele>
        <time>2019-06-12T09:03:44Z</time>
      </trkpt>
      <trkpt lat="44.63678" lon="6.22915">
        <ele>1964.11</ele>
        <time>2019-06-12T09:04:08Z</time>
      </trkpt>
      <trkpt lat="44.63675" lon="6.22913">
        <ele>1964.11</ele>
        <time>2019-06-12T09:04:12Z</time>
      </trkpt>
      <trkpt lat="44.63672" lon="6.22904">
        <ele>1964.11</ele>
        <time>2019-06-12T09:04:26Z</time>
      </trkpt>
      <trkpt lat="44.63673" lon="6.22899">
        <ele>1964.59</ele>
        <time>2019-06-12T09:04:39Z</time>
      </trkpt>
      <trkpt lat="44.63674" lon="6.22897">
        <ele>1964.59</ele>
        <time>2019-06-12T09:04:56Z</time>
      </trkpt>
      <trkpt lat="44.63677" lon="6.22886">
        <ele>1965.07</ele>
        <time>2019-06-12T09:05:10Z</time>
      </trkpt>
      <trkpt lat="44.63677" lon="6.22879">
        <ele>1966.51</ele>
        <time>2019-06-12T09:05:22Z</time>
      </trkpt>
      <trkpt lat="44.63677" lon="6.22879">
        <ele>1965.07</ele>
        <time>2019-06-12T09:05:26Z</time>
      </trkpt>
      <trkpt lat="44.63676" lon="6.22872">
        <ele>1965.07</ele>
        <time>2019-06-12T09:05:41Z</time>
      </trkpt>
      <trkpt lat="44.63674" lon="6.22867">
        <ele>1963.63</ele>
        <time>2019-06-12T09:05:49Z</time>
      </trkpt>
      <trkpt lat="44.6367" lon="6.22862">
        <ele>1961.71</ele>
        <time>2019-06-12T09:05:59Z</time>
      </trkpt>
      <trkpt lat="44.63669" lon="6.22861">
        <ele>1961.71</ele>
        <time>2019-06-12T09:06:14Z</time>
      </trkpt>
      <trkpt lat="44.63668" lon="6.22862">
        <ele>1961.71</ele>
        <time>2019-06-12T09:06:34Z</time>
      </trkpt>
      <trkpt lat="44.63667" lon="6.22861">
        <ele>1961.71</ele>
        <time>2019-06-12T09:06:57Z</time>
      </trkpt>
      <trkpt lat="44.63666" lon="6.22858">
        <ele>1961.71</ele>
        <time>2019-06-12T09:07:15Z</time>
      </trkpt>
      <trkpt lat="44.63662" lon="6.2285">
        <ele>1961.23</ele>
        <time>2019-06-12T09:07:29Z</time>
      </trkpt>
      <trkpt lat="44.63659" lon="6.2284">
        <ele>1960.27</ele>
        <time>2019-06-12T09:07:44Z</time>
      </trkpt>
      <trkpt lat="44.63656" lon="6.22835">
        <ele>1959.78</ele>
        <time>2019-06-12T09:08:02Z</time>
      </trkpt>
      <trkpt lat="44.63657" lon="6.22828">
        <ele>1960.27</ele>
        <time>2019-06-12T09:08:23Z</time>
      </trkpt>
      <trkpt lat="44.63657" lon="6.22823">
        <ele>1958.82</ele>
        <time>2019-06-12T09:08:31Z</time>
      </trkpt>
      <trkpt lat="44.63656" lon="6.2282">
        <ele>1958.82</ele>
        <time>2019-06-12T09:08:33Z</time>
      </trkpt>
      <trkpt lat="44.63654" lon="6.22812">
        <ele>1958.82</ele>
        <time>2019-06-12T09:08:38Z</time>
      </trkpt>
      <trkpt lat="44.6365" lon="6.22803">
        <ele>1958.82</ele>
        <time>2019-06-12T09:08:47Z</time>
      </trkpt>
      <trkpt lat="44.63643" lon="6.22785">
        <ele>1958.34</ele>
        <time>2019-06-12T09:09:01Z</time>
      </trkpt>
      <trkpt lat="44.63641" lon="6.22765">
        <ele>1958.34</ele>
        <time>2019-06-12T09:09:15Z</time>
      </trkpt>
      <trkpt lat="44.63644" lon="6.22749">
        <ele>1959.78</ele>
        <time>2019-06-12T09:09:30Z</time>
      </trkpt>
      <trkpt lat="44.63648" lon="6.22734">
        <ele>1960.75</ele>
        <time>2019-06-12T09:09:43Z</time>
      </trkpt>
      <trkpt lat="44.63647" lon="6.22733">
        <ele>1960.75</ele>
        <time>2019-06-12T09:09:44Z</time>
      </trkpt>
      <trkpt lat="44.63645" lon="6.22711">
        <ele>1960.75</ele>
        <time>2019-06-12T09:10:01Z</time>
      </trkpt>
      <trkpt lat="44.63642" lon="6.22702">
        <ele>1960.75</ele>
        <time>2019-06-12T09:10:06Z</time>
      </trkpt>
      <trkpt lat="44.63639" lon="6.22681">
        <ele>1959.78</ele>
        <time>2019-06-12T09:10:19Z</time>
      </trkpt>
      <trkpt lat="44.63638" lon="6.22675">
        <ele>1960.75</ele>
        <time>2019-06-12T09:10:23Z</time>
      </trkpt>
      <trkpt lat="44.63632" lon="6.22658">
        <ele>1961.71</ele>
        <time>2019-06-12T09:10:38Z</time>
      </trkpt>
      <trkpt lat="44.63631" lon="6.22654">
        <ele>1961.71</ele>
        <time>2019-06-12T09:10:41Z</time>
      </trkpt>
      <trkpt lat="44.63631" lon="6.2264">
        <ele>1962.19</ele>
        <time>2019-06-12T09:10:52Z</time>
      </trkpt>
      <trkpt lat="44.63623" lon="6.22612">
        <ele>1962.19</ele>
        <time>2019-06-12T09:11:11Z</time>
      </trkpt>
      <trkpt lat="44.63613" lon="6.226">
        <ele>1961.23</ele>
        <time>2019-06-12T09:11:23Z</time>
      </trkpt>
      <trkpt lat="44.63604" lon="6.22583">
        <ele>1962.67</ele>
        <time>2019-06-12T09:11:39Z</time>
      </trkpt>
      <trkpt lat="44.63605" lon="6.22578">
        <ele>1963.15</ele>
        <time>2019-06-12T09:11:43Z</time>
      </trkpt>
      <trkpt lat="44.63605" lon="6.22575">
        <ele>1963.15</ele>
        <time>2019-06-12T09:11:49Z</time>
      </trkpt>
      <trkpt lat="44.63602" lon="6.22568">
        <ele>1963.63</ele>
        <time>2019-06-12T09:11:52Z</time>
      </trkpt>
      <trkpt lat="44.63601" lon="6.22564">
        <ele>1963.63</ele>
        <time>2019-06-12T09:11:54Z</time>
      </trkpt>
      <trkpt lat="44.636" lon="6.22561">
        <ele>1964.11</ele>
        <time>2019-06-12T09:11:58Z</time>
      </trkpt>
      <trkpt lat="44.636" lon="6.22559">
        <ele>1964.11</ele>
        <time>2019-06-12T09:11:59Z</time>
      </trkpt>
      <trkpt lat="44.63597" lon="6.22546">
        <ele>1965.55</ele>
        <time>2019-06-12T09:12:10Z</time>
      </trkpt>
      <trkpt lat="44.63597" lon="6.22543">
        <ele>1965.55</ele>
        <time>2019-06-12T09:12:12Z</time>
      </trkpt>
      <trkpt lat="44.63596" lon="6.22541">
        <ele>1965.55</ele>
        <time>2019-06-12T09:12:13Z</time>
      </trkpt>
      <trkpt lat="44.63596" lon="6.22539">
        <ele>1966.51</ele>
        <time>2019-06-12T09:12:17Z</time>
      </trkpt>
      <trkpt lat="44.63595" lon="6.22538">
        <ele>1966.51</ele>
        <time>2019-06-12T09:12:18Z</time>
      </trkpt>
      <trkpt lat="44.63588" lon="6.22532">
        <ele>1967.48</ele>
        <time>2019-06-12T09:12:27Z</time>
      </trkpt>
      <trkpt lat="44.63586" lon="6.22531">
        <ele>1967.48</ele>
        <time>2019-06-12T09:12:30Z</time>
      </trkpt>
      <trkpt lat="44.63578" lon="6.22525">
        <ele>1969.4</ele>
        <time>2019-06-12T09:12:40Z</time>
      </trkpt>
      <trkpt lat="44.63573" lon="6.22514">
        <ele>1970.36</ele>
        <time>2019-06-12T09:12:53Z</time>
      </trkpt>
      <trkpt lat="44.63568" lon="6.22504">
        <ele>1971.32</ele>
        <time>2019-06-12T09:13:10Z</time>
      </trkpt>
      <trkpt lat="44.63567" lon="6.22498">
        <ele>1971.32</ele>
        <time>2019-06-12T09:13:26Z</time>
      </trkpt>
      <trkpt lat="44.63566" lon="6.22496">
        <ele>1971.32</ele>
        <time>2019-06-12T09:13:27Z</time>
      </trkpt>
      <trkpt lat="44.63562" lon="6.22479">
        <ele>1971.8</ele>
        <time>2019-06-12T09:13:41Z</time>
      </trkpt>
      <trkpt lat="44.63558" lon="6.22468">
        <ele>1972.76</ele>
        <time>2019-06-12T09:13:50Z</time>
      </trkpt>
      <trkpt lat="44.63564" lon="6.2245">
        <ele>1974.69</ele>
        <time>2019-06-12T09:14:05Z</time>
      </trkpt>
      <trkpt lat="44.63567" lon="6.22439">
        <ele>1975.65</ele>
        <time>2019-06-12T09:14:21Z</time>
      </trkpt>
      <trkpt lat="44.63577" lon="6.22443">
        <ele>1976.61</ele>
        <time>2019-06-12T09:14:37Z</time>
      </trkpt>
      <trkpt lat="44.63577" lon="6.22443">
        <ele>1977.09</ele>
        <time>2019-06-12T09:14:38Z</time>
      </trkpt>
      <trkpt lat="44.63589" lon="6.22453">
        <ele>1976.61</ele>
        <time>2019-06-12T09:14:52Z</time>
      </trkpt>
      <trkpt lat="44.63594" lon="6.22458">
        <ele>1975.65</ele>
        <time>2019-06-12T09:14:58Z</time>
      </trkpt>
      <trkpt lat="44.63596" lon="6.22458">
        <ele>1975.65</ele>
        <time>2019-06-12T09:14:59Z</time>
      </trkpt>
      <trkpt lat="44.63601" lon="6.22461">
        <ele>1977.09</ele>
        <time>2019-06-12T09:15:05Z</time>
      </trkpt>
      <trkpt lat="44.63605" lon="6.22462">
        <ele>1978.05</ele>
        <time>2019-06-12T09:15:20Z</time>
      </trkpt>
      <trkpt lat="44.63603" lon="6.22463">
        <ele>1978.53</ele>
        <time>2019-06-12T09:15:39Z</time>
      </trkpt>
      <trkpt lat="44.63604" lon="6.22461">
        <ele>1978.53</ele>
        <time>2019-06-12T09:15:57Z</time>
      </trkpt>
      <trkpt lat="44.63607" lon="6.22462">
        <ele>1978.05</ele>
        <time>2019-06-12T09:16:19Z</time>
      </trkpt>
      <trkpt lat="44.63615" lon="6.22453">
        <ele>1979.49</ele>
        <time>2019-06-12T09:16:32Z</time>
      </trkpt>
      <trkpt lat="44.63614" lon="6.22451">
        <ele>1980.45</ele>
        <time>2019-06-12T09:16:47Z</time>
      </trkpt>
      <trkpt lat="44.6361" lon="6.22446">
        <ele>1981.9</ele>
        <time>2019-06-12T09:17:07Z</time>
      </trkpt>
      <trkpt lat="44.63608" lon="6.22436">
        <ele>1985.26</ele>
        <time>2019-06-12T09:17:18Z</time>
      </trkpt>
      <trkpt lat="44.63606" lon="6.22428">
        <ele>1988.14</ele>
        <time>2019-06-12T09:17:30Z</time>
      </trkpt>
      <trkpt lat="44.63604" lon="6.2242">
        <ele>1990.55</ele>
        <time>2019-06-12T09:17:45Z</time>
      </trkpt>
      <trkpt lat="44.63598" lon="6.22411">
        <ele>1993.43</ele>
        <time>2019-06-12T09:18:01Z</time>
      </trkpt>
      <trkpt lat="44.63594" lon="6.22405">
        <ele>1995.83</ele>
        <time>2019-06-12T09:18:14Z</time>
      </trkpt>
      <trkpt lat="44.63591" lon="6.22401">
        <ele>1997.28</ele>
        <time>2019-06-12T09:18:28Z</time>
      </trkpt>
      <trkpt lat="44.63589" lon="6.22389">
        <ele>1997.28</ele>
        <time>2019-06-12T09:18:46Z</time>
      </trkpt>
      <trkpt lat="44.6359" lon="6.22383">
        <ele>1995.83</ele>
        <time>2019-06-12T09:19:03Z</time>
      </trkpt>
      <trkpt lat="44.63589" lon="6.22384">
        <ele>1995.83</ele>
        <time>2019-06-12T09:19:14Z</time>
      </trkpt>
      <trkpt lat="44.63589" lon="6.22388">
        <ele>1996.32</ele>
        <time>2019-06-12T09:19:32Z</time>
      </trkpt>
      <trkpt lat="44.63591" lon="6.22386">
        <ele>1996.32</ele>
        <time>2019-06-12T09:19:55Z</time>
      </trkpt>
      <trkpt lat="44.63591" lon="6.22384">
        <ele>1995.83</ele>
        <time>2019-06-12T09:20:09Z</time>
      </trkpt>
      <trkpt lat="44.63591" lon="6.22383">
        <ele>1995.83</ele>
        <time>2019-06-12T09:20:36Z</time>
      </trkpt>
      <trkpt lat="44.63591" lon="6.22383">
        <ele>1995.83</ele>
        <time>2019-06-12T09:21:02Z</time>
      </trkpt>
      <trkpt lat="44.63588" lon="6.22386">
        <ele>1996.32</ele>
        <time>2019-06-12T09:21:26Z</time>
      </trkpt>
      <trkpt lat="44.63587" lon="6.22387">
        <ele>1995.83</ele>
        <time>2019-06-12T09:21:51Z</time>
      </trkpt>
      <trkpt lat="44.63588" lon="6.22386">
        <ele>1995.83</ele>
        <time>2019-06-12T09:22:10Z</time>
      </trkpt>
      <trkpt lat="44.63588" lon="6.22389">
        <ele>1995.83</ele>
        <time>2019-06-12T09:22:31Z</time>
      </trkpt>
      <trkpt lat="44.63587" lon="6.2239">
        <ele>1995.83</ele>
        <time>2019-06-12T09:22:56Z</time>
      </trkpt>
      <trkpt lat="44.63587" lon="6.22388">
        <ele>1995.83</ele>
        <time>2019-06-12T09:23:23Z</time>
      </trkpt>
      <trkpt lat="44.63586" lon="6.22391">
        <ele>1995.83</ele>
        <time>2019-06-12T09:23:45Z</time>
      </trkpt>
      <trkpt lat="44.63588" lon="6.22394">
        <ele>1996.32</ele>
        <time>2019-06-12T09:24:03Z</time>
      </trkpt>
      <trkpt lat="44.63589" lon="6.22399">
        <ele>1997.28</ele>
        <time>2019-06-12T09:24:08Z</time>
      </trkpt>
      <trkpt lat="44.6359" lon="6.22402">
        <ele>1997.28</ele>
        <time>2019-06-12T09:24:27Z</time>
      </trkpt>
      <trkpt lat="44.6359" lon="6.22399">
        <ele>1997.28</ele>
        <time>2019-06-12T09:24:39Z</time>
      </trkpt>
      <trkpt lat="44.6359" lon="6.22397">
        <ele>1997.28</ele>
        <time>2019-06-12T09:24:40Z</time>
      </trkpt>
      <trkpt lat="44.6359" lon="6.22396">
        <ele>1997.28</ele>
        <time>2019-06-12T09:24:41Z</time>
      </trkpt>
      <trkpt lat="44.63589" lon="6.22395">
        <ele>1997.28</ele>
        <time>2019-06-12T09:24:42Z</time>
      </trkpt>
      <trkpt lat="44.63589" lon="6.22393">
        <ele>1997.28</ele>
        <time>2019-06-12T09:24:43Z</time>
      </trkpt>
      <trkpt lat="44.63588" lon="6.22392">
        <ele>1997.28</ele>
        <time>2019-06-12T09:24:44Z</time>
      </trkpt>
      <trkpt lat="44.63588" lon="6.2239">
        <ele>1997.28</ele>
        <time>2019-06-12T09:24:45Z</time>
      </trkpt>
      <trkpt lat="44.63589" lon="6.22384">
        <ele>1996.32</ele>
        <time>2019-06-12T09:24:56Z</time>
      </trkpt>
      <trkpt lat="44.63588" lon="6.22385">
        <ele>1996.32</ele>
        <time>2019-06-12T09:25:17Z</time>
      </trkpt>
      <trkpt lat="44.63588" lon="6.22382">
        <ele>1996.32</ele>
        <time>2019-06-12T09:25:34Z</time>
      </trkpt>
      <trkpt lat="44.63589" lon="6.22395">
        <ele>1996.32</ele>
        <time>2019-06-12T09:25:46Z</time>
      </trkpt>
      <trkpt lat="44.63589" lon="6.22403">
        <ele>1997.76</ele>
        <time>2019-06-12T09:26:01Z</time>
      </trkpt>
      <trkpt lat="44.63593" lon="6.22409">
        <ele>1997.76</ele>
        <time>2019-06-12T09:26:13Z</time>
      </trkpt>
      <trkpt lat="44.63598" lon="6.22415">
        <ele>1994.87</ele>
        <time>2019-06-12T09:26:27Z</time>
      </trkpt>
      <trkpt lat="44.63602" lon="6.22422">
        <ele>1992.47</ele>
        <time>2019-06-12T09:26:42Z</time>
      </trkpt>
      <trkpt lat="44.63605" lon="6.22429">
        <ele>1989.59</ele>
        <time>2019-06-12T09:26:56Z</time>
      </trkpt>
      <trkpt lat="44.63607" lon="6.22434">
        <ele>1987.66</ele>
        <time>2019-06-12T09:27:08Z</time>
      </trkpt>
      <trkpt lat="44.63609" lon="6.22441">
        <ele>1985.26</ele>
        <time>2019-06-12T09:27:23Z</time>
      </trkpt>
      <trkpt lat="44.6361" lon="6.22446">
        <ele>1984.3</ele>
        <time>2019-06-12T09:27:29Z</time>
      </trkpt>
      <trkpt lat="44.63613" lon="6.22452">
        <ele>1980.93</ele>
        <time>2019-06-12T09:27:41Z</time>
      </trkpt>
      <trkpt lat="44.63615" lon="6.22459">
        <ele>1979.01</ele>
        <time>2019-06-12T09:27:49Z</time>
      </trkpt>
      <trkpt lat="44.63617" lon="6.22465">
        <ele>1979.01</ele>
        <time>2019-06-12T09:27:59Z</time>
      </trkpt>
      <trkpt lat="44.63619" lon="6.22467">
        <ele>1979.01</ele>
        <time>2019-06-12T09:28:05Z</time>
      </trkpt>
      <trkpt lat="44.63627" lon="6.2248">
        <ele>1978.53</ele>
        <time>2019-06-12T09:28:19Z</time>
      </trkpt>
      <trkpt lat="44.6363" lon="6.22484">
        <ele>1978.53</ele>
        <time>2019-06-12T09:28:29Z</time>
      </trkpt>
      <trkpt lat="44.63631" lon="6.2249">
        <ele>1979.97</ele>
        <time>2019-06-12T09:28:47Z</time>
      </trkpt>
      <trkpt lat="44.63633" lon="6.22503">
        <ele>1983.34</ele>
        <time>2019-06-12T09:29:02Z</time>
      </trkpt>
      <trkpt lat="44.63634" lon="6.22508">
        <ele>1983.82</ele>
        <time>2019-06-12T09:29:17Z</time>
      </trkpt>
      <trkpt lat="44.6364" lon="6.22512">
        <ele>1985.26</ele>
        <time>2019-06-12T09:29:36Z</time>
      </trkpt>
      <trkpt lat="44.63643" lon="6.22522">
        <ele>1987.18</ele>
        <time>2019-06-12T09:29:49Z</time>
      </trkpt>
      <trkpt lat="44.63647" lon="6.22531">
        <ele>1987.18</ele>
        <time>2019-06-12T09:30:00Z</time>
      </trkpt>
      <trkpt lat="44.63651" lon="6.22539">
        <ele>1987.18</ele>
        <time>2019-06-12T09:30:16Z</time>
      </trkpt>
      <trkpt lat="44.63656" lon="6.22548">
        <ele>1987.18</ele>
        <time>2019-06-12T09:30:25Z</time>
      </trkpt>
      <trkpt lat="44.63664" lon="6.22562">
        <ele>1988.14</ele>
        <time>2019-06-12T09:30:38Z</time>
      </trkpt>
      <trkpt lat="44.6367" lon="6.2257">
        <ele>1988.14</ele>
        <time>2019-06-12T09:30:52Z</time>
      </trkpt>
      <trkpt lat="44.63671" lon="6.22572">
        <ele>1987.18</ele>
        <time>2019-06-12T09:30:54Z</time>
      </trkpt>
      <trkpt lat="44.63673" lon="6.22577">
        <ele>1985.26</ele>
        <time>2019-06-12T09:31:01Z</time>
      </trkpt>
      <trkpt lat="44.6368" lon="6.2258">
        <ele>1985.26</ele>
        <time>2019-06-12T09:31:10Z</time>
      </trkpt>
      <trkpt lat="44.63682" lon="6.22586">
        <ele>1985.26</ele>
        <time>2019-06-12T09:31:16Z</time>
      </trkpt>
      <trkpt lat="44.63688" lon="6.22592">
        <ele>1985.26</ele>
        <time>2019-06-12T09:31:23Z</time>
      </trkpt>
      <trkpt lat="44.63695" lon="6.22595">
        <ele>1984.78</ele>
        <time>2019-06-12T09:31:32Z</time>
      </trkpt>
      <trkpt lat="44.63695" lon="6.22603">
        <ele>1984.78</ele>
        <time>2019-06-12T09:31:35Z</time>
      </trkpt>
      <trkpt lat="44.63704" lon="6.2263">
        <ele>1984.78</ele>
        <time>2019-06-12T09:31:49Z</time>
      </trkpt>
      <trkpt lat="44.6371" lon="6.22639">
        <ele>1986.22</ele>
        <time>2019-06-12T09:32:04Z</time>
      </trkpt>
      <trkpt lat="44.63711" lon="6.22642">
        <ele>1986.22</ele>
        <time>2019-06-12T09:32:09Z</time>
      </trkpt>
      <trkpt lat="44.63717" lon="6.22662">
        <ele>1986.7</ele>
        <time>2019-06-12T09:32:23Z</time>
      </trkpt>
      <trkpt lat="44.6372" lon="6.22671">
        <ele>1987.18</ele>
        <time>2019-06-12T09:32:34Z</time>
      </trkpt>
      <trkpt lat="44.63722" lon="6.22674">
        <ele>1987.66</ele>
        <time>2019-06-12T09:32:45Z</time>
      </trkpt>
      <trkpt lat="44.63729" lon="6.22688">
        <ele>1990.07</ele>
        <time>2019-06-12T09:33:00Z</time>
      </trkpt>
      <trkpt lat="44.63732" lon="6.22701">
        <ele>1992.47</ele>
        <time>2019-06-12T09:33:13Z</time>
      </trkpt>
      <trkpt lat="44.63736" lon="6.22713">
        <ele>1994.87</ele>
        <time>2019-06-12T09:33:27Z</time>
      </trkpt>
      <trkpt lat="44.63737" lon="6.22724">
        <ele>1997.76</ele>
        <time>2019-06-12T09:33:39Z</time>
      </trkpt>
      <trkpt lat="44.63739" lon="6.22731">
        <ele>1999.68</ele>
        <time>2019-06-12T09:33:51Z</time>
      </trkpt>
      <trkpt lat="44.63739" lon="6.22732">
        <ele>1999.68</ele>
        <time>2019-06-12T09:34:12Z</time>
      </trkpt>
      <trkpt lat="44.63739" lon="6.22738">
        <ele>2000.16</ele>
        <time>2019-06-12T09:34:34Z</time>
      </trkpt>
      <trkpt lat="44.63742" lon="6.22743">
        <ele>2000.64</ele>
        <time>2019-06-12T09:34:50Z</time>
      </trkpt>
      <trkpt lat="44.63746" lon="6.22753">
        <ele>2003.04</ele>
        <time>2019-06-12T09:35:05Z</time>
      </trkpt>
      <trkpt lat="44.63747" lon="6.22762">
        <ele>2004.01</ele>
        <time>2019-06-12T09:35:30Z</time>
      </trkpt>
      <trkpt lat="44.63748" lon="6.22769">
        <ele>2004.97</ele>
        <time>2019-06-12T09:35:36Z</time>
      </trkpt>
      <trkpt lat="44.63755" lon="6.22785">
        <ele>2008.33</ele>
        <time>2019-06-12T09:35:51Z</time>
      </trkpt>
      <trkpt lat="44.6376" lon="6.22795">
        <ele>2010.73</ele>
        <time>2019-06-12T09:36:04Z</time>
      </trkpt>
      <trkpt lat="44.63762" lon="6.22805">
        <ele>2014.1</ele>
        <time>2019-06-12T09:36:18Z</time>
      </trkpt>
      <trkpt lat="44.63766" lon="6.22811">
        <ele>2016.02</ele>
        <time>2019-06-12T09:36:31Z</time>
      </trkpt>
      <trkpt lat="44.63768" lon="6.22817">
        <ele>2018.43</ele>
        <time>2019-06-12T09:36:42Z</time>
      </trkpt>
      <trkpt lat="44.63766" lon="6.22818">
        <ele>2018.91</ele>
        <time>2019-06-12T09:37:00Z</time>
      </trkpt>
      <trkpt lat="44.63771" lon="6.22824">
        <ele>2020.35</ele>
        <time>2019-06-12T09:37:13Z</time>
      </trkpt>
      <trkpt lat="44.63773" lon="6.22832">
        <ele>2023.23</ele>
        <time>2019-06-12T09:37:25Z</time>
      </trkpt>
      <trkpt lat="44.63777" lon="6.22841">
        <ele>2026.12</ele>
        <time>2019-06-12T09:37:37Z</time>
      </trkpt>
      <trkpt lat="44.63782" lon="6.2285">
        <ele>2028.52</ele>
        <time>2019-06-12T09:37:50Z</time>
      </trkpt>
      <trkpt lat="44.63786" lon="6.22857">
        <ele>2030.44</ele>
        <time>2019-06-12T09:38:03Z</time>
      </trkpt>
      <trkpt lat="44.63791" lon="6.22863">
        <ele>2033.81</ele>
        <time>2019-06-12T09:38:14Z</time>
      </trkpt>
      <trkpt lat="44.63795" lon="6.22868">
        <ele>2035.25</ele>
        <time>2019-06-12T09:38:28Z</time>
      </trkpt>
      <trkpt lat="44.63792" lon="6.2287">
        <ele>2037.65</ele>
        <time>2019-06-12T09:38:41Z</time>
      </trkpt>
      <trkpt lat="44.63791" lon="6.22868">
        <ele>2037.65</ele>
        <time>2019-06-12T09:39:03Z</time>
      </trkpt>
      <trkpt lat="44.63789" lon="6.22871">
        <ele>2038.61</ele>
        <time>2019-06-12T09:39:19Z</time>
      </trkpt>
      <trkpt lat="44.63794" lon="6.22872">
        <ele>2039.57</ele>
        <time>2019-06-12T09:39:34Z</time>
      </trkpt>
      <trkpt lat="44.63798" lon="6.22876">
        <ele>2041.02</ele>
        <time>2019-06-12T09:39:48Z</time>
      </trkpt>
      <trkpt lat="44.63801" lon="6.22881">
        <ele>2041.98</ele>
        <time>2019-06-12T09:40:00Z</time>
      </trkpt>
      <trkpt lat="44.63802" lon="6.22882">
        <ele>2041.98</ele>
        <time>2019-06-12T09:40:13Z</time>
      </trkpt>
      <trkpt lat="44.63803" lon="6.22881">
        <ele>2041.98</ele>
        <time>2019-06-12T09:40:37Z</time>
      </trkpt>
      <trkpt lat="44.63802" lon="6.2288">
        <ele>2041.98</ele>
        <time>2019-06-12T09:40:59Z</time>
      </trkpt>
      <trkpt lat="44.638" lon="6.22885">
        <ele>2042.46</ele>
        <time>2019-06-12T09:41:27Z</time>
      </trkpt>
      <trkpt lat="44.63804" lon="6.22883">
        <ele>2042.46</ele>
        <time>2019-06-12T09:41:52Z</time>
      </trkpt>
      <trkpt lat="44.63803" lon="6.22883">
        <ele>2042.94</ele>
        <time>2019-06-12T09:42:14Z</time>
      </trkpt>
      <trkpt lat="44.63802" lon="6.22883">
        <ele>2042.94</ele>
        <time>2019-06-12T09:42:40Z</time>
      </trkpt>
      <trkpt lat="44.63803" lon="6.22882">
        <ele>2042.94</ele>
        <time>2019-06-12T09:43:05Z</time>
      </trkpt>
      <trkpt lat="44.63803" lon="6.22885">
        <ele>2044.86</ele>
        <time>2019-06-12T09:43:21Z</time>
      </trkpt>
      <trkpt lat="44.63804" lon="6.22893">
        <ele>2046.78</ele>
        <time>2019-06-12T09:43:35Z</time>
      </trkpt>
      <trkpt lat="44.63804" lon="6.229">
        <ele>2048.71</ele>
        <time>2019-06-12T09:43:48Z</time>
      </trkpt>
      <trkpt lat="44.63804" lon="6.22901">
        <ele>2049.19</ele>
        <time>2019-06-12T09:44:06Z</time>
      </trkpt>
      <trkpt lat="44.63804" lon="6.22901">
        <ele>2049.19</ele>
        <time>2019-06-12T09:44:42Z</time>
      </trkpt>
      <trkpt lat="44.63804" lon="6.229">
        <ele>2049.19</ele>
        <time>2019-06-12T09:45:01Z</time>
      </trkpt>
      <trkpt lat="44.63802" lon="6.229">
        <ele>2049.19</ele>
        <time>2019-06-12T09:45:21Z</time>
      </trkpt>
      <trkpt lat="44.63803" lon="6.22898">
        <ele>2049.19</ele>
        <time>2019-06-12T09:45:46Z</time>
      </trkpt>
      <trkpt lat="44.63802" lon="6.22901">
        <ele>2049.19</ele>
        <time>2019-06-12T09:46:14Z</time>
      </trkpt>
      <trkpt lat="44.63804" lon="6.22899">
        <ele>2049.19</ele>
        <time>2019-06-12T09:46:38Z</time>
      </trkpt>
      <trkpt lat="44.63804" lon="6.22901">
        <ele>2049.19</ele>
        <time>2019-06-12T09:46:57Z</time>
      </trkpt>
      <trkpt lat="44.63804" lon="6.22901">
        <ele>2049.67</ele>
        <time>2019-06-12T09:47:22Z</time>
      </trkpt>
      <trkpt lat="44.63807" lon="6.22902">
        <ele>2049.67</ele>
        <time>2019-06-12T09:47:58Z</time>
      </trkpt>
      <trkpt lat="44.63805" lon="6.22902">
        <ele>2049.67</ele>
        <time>2019-06-12T09:48:23Z</time>
      </trkpt>
      <trkpt lat="44.63805" lon="6.22911">
        <ele>2051.59</ele>
        <time>2019-06-12T09:48:38Z</time>
      </trkpt>
      <trkpt lat="44.63806" lon="6.22917">
        <ele>2054.47</ele>
        <time>2019-06-12T09:48:49Z</time>
      </trkpt>
      <trkpt lat="44.6381" lon="6.22922">
        <ele>2055.44</ele>
        <time>2019-06-12T09:49:04Z</time>
      </trkpt>
      <trkpt lat="44.63814" lon="6.22929">
        <ele>2058.8</ele>
        <time>2019-06-12T09:49:14Z</time>
      </trkpt>
      <trkpt lat="44.63817" lon="6.22939">
        <ele>2061.68</ele>
        <time>2019-06-12T09:49:29Z</time>
      </trkpt>
      <trkpt lat="44.63814" lon="6.22941">
        <ele>2062.65</ele>
        <time>2019-06-12T09:49:41Z</time>
      </trkpt>
      <trkpt lat="44.63815" lon="6.22941">
        <ele>2063.13</ele>
        <time>2019-06-12T09:50:07Z</time>
      </trkpt>
      <trkpt lat="44.63817" lon="6.22945">
        <ele>2064.09</ele>
        <time>2019-06-12T09:50:34Z</time>
      </trkpt>
      <trkpt lat="44.63819" lon="6.22947">
        <ele>2064.57</ele>
        <time>2019-06-12T09:50:37Z</time>
      </trkpt>
      <trkpt lat="44.63824" lon="6.22952">
        <ele>2068.41</ele>
        <time>2019-06-12T09:50:49Z</time>
      </trkpt>
      <trkpt lat="44.63827" lon="6.22958">
        <ele>2070.34</ele>
        <time>2019-06-12T09:51:03Z</time>
      </trkpt>
      <trkpt lat="44.63835" lon="6.22961">
        <ele>2073.22</ele>
        <time>2019-06-12T09:51:18Z</time>
      </trkpt>
      <trkpt lat="44.63846" lon="6.22968">
        <ele>2076.59</ele>
        <time>2019-06-12T09:51:32Z</time>
      </trkpt>
      <trkpt lat="44.63842" lon="6.22974">
        <ele>2079.47</ele>
        <time>2019-06-12T09:51:46Z</time>
      </trkpt>
      <trkpt lat="44.6384" lon="6.22977">
        <ele>2080.43</ele>
        <time>2019-06-12T09:52:02Z</time>
      </trkpt>
      <trkpt lat="44.6384" lon="6.22992">
        <ele>2080.43</ele>
        <time>2019-06-12T09:52:22Z</time>
      </trkpt>
      <trkpt lat="44.63841" lon="6.23">
        <ele>2081.39</ele>
        <time>2019-06-12T09:52:40Z</time>
      </trkpt>
      <trkpt lat="44.63841" lon="6.23004">
        <ele>2083.31</ele>
        <time>2019-06-12T09:53:00Z</time>
      </trkpt>
      <trkpt lat="44.63842" lon="6.23011">
        <ele>2084.76</ele>
        <time>2019-06-12T09:53:14Z</time>
      </trkpt>
      <trkpt lat="44.63843" lon="6.23016">
        <ele>2085.24</ele>
        <time>2019-06-12T09:53:33Z</time>
      </trkpt>
      <trkpt lat="44.63844" lon="6.23018">
        <ele>2086.2</ele>
        <time>2019-06-12T09:53:50Z</time>
      </trkpt>
      <trkpt lat="44.63842" lon="6.2302">
        <ele>2086.68</ele>
        <time>2019-06-12T09:54:11Z</time>
      </trkpt>
      <trkpt lat="44.63841" lon="6.23019">
        <ele>2086.68</ele>
        <time>2019-06-12T09:54:32Z</time>
      </trkpt>
      <trkpt lat="44.63842" lon="6.23015">
        <ele>2085.72</ele>
        <time>2019-06-12T09:54:51Z</time>
      </trkpt>
      <trkpt lat="44.63842" lon="6.23015">
        <ele>2084.76</ele>
        <time>2019-06-12T09:55:05Z</time>
      </trkpt>
      <trkpt lat="44.63846" lon="6.23013">
        <ele>2084.28</ele>
        <time>2019-06-12T09:55:23Z</time>
      </trkpt>
      <trkpt lat="44.63849" lon="6.23014">
        <ele>2084.28</ele>
        <time>2019-06-12T09:55:39Z</time>
      </trkpt>
      <trkpt lat="44.6385" lon="6.23017">
        <ele>2084.76</ele>
        <time>2019-06-12T09:56:01Z</time>
      </trkpt>
      <trkpt lat="44.63855" lon="6.2302">
        <ele>2084.28</ele>
        <time>2019-06-12T09:56:16Z</time>
      </trkpt>
      <trkpt lat="44.63856" lon="6.23021">
        <ele>2084.28</ele>
        <time>2019-06-12T09:56:20Z</time>
      </trkpt>
      <trkpt lat="44.63862" lon="6.23026">
        <ele>2084.28</ele>
        <time>2019-06-12T09:56:32Z</time>
      </trkpt>
      <trkpt lat="44.63865" lon="6.23027">
        <ele>2083.31</ele>
        <time>2019-06-12T09:56:45Z</time>
      </trkpt>
      <trkpt lat="44.63871" lon="6.23033">
        <ele>2083.31</ele>
        <time>2019-06-12T09:57:09Z</time>
      </trkpt>
      <trkpt lat="44.6387" lon="6.23041">
        <ele>2085.72</ele>
        <time>2019-06-12T09:57:21Z</time>
      </trkpt>
      <trkpt lat="44.6387" lon="6.2305">
        <ele>2088.12</ele>
        <time>2019-06-12T09:57:35Z</time>
      </trkpt>
      <trkpt lat="44.63868" lon="6.23055">
        <ele>2090.52</ele>
        <time>2019-06-12T09:57:48Z</time>
      </trkpt>
      <trkpt lat="44.63869" lon="6.23061">
        <ele>2093.89</ele>
        <time>2019-06-12T09:58:02Z</time>
      </trkpt>
      <trkpt lat="44.63869" lon="6.23066">
        <ele>2095.81</ele>
        <time>2019-06-12T09:58:18Z</time>
      </trkpt>
      <trkpt lat="44.6387" lon="6.23067">
        <ele>2096.29</ele>
        <time>2019-06-12T09:58:29Z</time>
      </trkpt>
      <trkpt lat="44.63871" lon="6.23071">
        <ele>2096.29</ele>
        <time>2019-06-12T09:58:47Z</time>
      </trkpt>
      <trkpt lat="44.63875" lon="6.23075">
        <ele>2098.21</ele>
        <time>2019-06-12T09:59:02Z</time>
      </trkpt>
      <trkpt lat="44.6387" lon="6.23072">
        <ele>2100.14</ele>
        <time>2019-06-12T09:59:17Z</time>
      </trkpt>
      <trkpt lat="44.63866" lon="6.23073">
        <ele>2102.06</ele>
        <time>2019-06-12T09:59:31Z</time>
      </trkpt>
      <trkpt lat="44.63865" lon="6.23076">
        <ele>2103.5</ele>
        <time>2019-06-12T09:59:46Z</time>
      </trkpt>
      <trkpt lat="44.63869" lon="6.2308">
        <ele>2104.94</ele>
        <time>2019-06-12T09:59:59Z</time>
      </trkpt>
      <trkpt lat="44.63871" lon="6.23078">
        <ele>2104.94</ele>
        <time>2019-06-12T10:00:22Z</time>
      </trkpt>
      <trkpt lat="44.63874" lon="6.23081">
        <ele>2105.91</ele>
        <time>2019-06-12T10:00:39Z</time>
      </trkpt>
      <trkpt lat="44.63878" lon="6.23087">
        <ele>2108.31</ele>
        <time>2019-06-12T10:00:52Z</time>
      </trkpt>
      <trkpt lat="44.63876" lon="6.23084">
        <ele>2108.79</ele>
        <time>2019-06-12T10:01:10Z</time>
      </trkpt>
      <trkpt lat="44.63878" lon="6.23087">
        <ele>2109.75</ele>
        <time>2019-06-12T10:01:39Z</time>
      </trkpt>
      <trkpt lat="44.63882" lon="6.23101">
        <ele>2112.15</ele>
        <time>2019-06-12T10:01:52Z</time>
      </trkpt>
      <trkpt lat="44.6388" lon="6.23099">
        <ele>2113.12</ele>
        <time>2019-06-12T10:02:08Z</time>
      </trkpt>
      <trkpt lat="44.63876" lon="6.23092">
        <ele>2115.04</ele>
        <time>2019-06-12T10:02:21Z</time>
      </trkpt>
      <trkpt lat="44.63874" lon="6.23092">
        <ele>2115.04</ele>
        <time>2019-06-12T10:02:36Z</time>
      </trkpt>
      <trkpt lat="44.6387" lon="6.23092">
        <ele>2116</ele>
        <time>2019-06-12T10:02:58Z</time>
      </trkpt>
      <trkpt lat="44.63871" lon="6.23092">
        <ele>2116.48</ele>
        <time>2019-06-12T10:03:12Z</time>
      </trkpt>
      <trkpt lat="44.63866" lon="6.23098">
        <ele>2118.88</ele>
        <time>2019-06-12T10:03:30Z</time>
      </trkpt>
      <trkpt lat="44.63865" lon="6.23095">
        <ele>2120.32</ele>
        <time>2019-06-12T10:03:44Z</time>
      </trkpt>
      <trkpt lat="44.63865" lon="6.23095">
        <ele>2120.32</ele>
        <time>2019-06-12T10:04:08Z</time>
      </trkpt>
      <trkpt lat="44.63868" lon="6.23098">
        <ele>2118.4</ele>
        <time>2019-06-12T10:04:24Z</time>
      </trkpt>
      <trkpt lat="44.63871" lon="6.23101">
        <ele>2117.92</ele>
        <time>2019-06-12T10:04:40Z</time>
      </trkpt>
      <trkpt lat="44.6387" lon="6.231">
        <ele>2119.36</ele>
        <time>2019-06-12T10:04:50Z</time>
      </trkpt>
      <trkpt lat="44.63869" lon="6.23109">
        <ele>2121.29</ele>
        <time>2019-06-12T10:05:04Z</time>
      </trkpt>
      <trkpt lat="44.63868" lon="6.2311">
        <ele>2121.29</ele>
        <time>2019-06-12T10:05:27Z</time>
      </trkpt>
      <trkpt lat="44.63863" lon="6.2311">
        <ele>2121.29</ele>
        <time>2019-06-12T10:05:48Z</time>
      </trkpt>
      <trkpt lat="44.63871" lon="6.23104">
        <ele>2122.25</ele>
        <time>2019-06-12T10:06:03Z</time>
      </trkpt>
      <trkpt lat="44.63869" lon="6.23105">
        <ele>2122.73</ele>
        <time>2019-06-12T10:06:29Z</time>
      </trkpt>
      <trkpt lat="44.63869" lon="6.23113">
        <ele>2125.13</ele>
        <time>2019-06-12T10:06:41Z</time>
      </trkpt>
      <trkpt lat="44.63865" lon="6.23116">
        <ele>2126.57</ele>
        <time>2019-06-12T10:06:57Z</time>
      </trkpt>
      <trkpt lat="44.63858" lon="6.23115">
        <ele>2128.02</ele>
        <time>2019-06-12T10:07:12Z</time>
      </trkpt>
      <trkpt lat="44.63858" lon="6.23104">
        <ele>2130.9</ele>
        <time>2019-06-12T10:07:23Z</time>
      </trkpt>
      <trkpt lat="44.63858" lon="6.23101">
        <ele>2130.9</ele>
        <time>2019-06-12T10:07:45Z</time>
      </trkpt>
      <trkpt lat="44.63863" lon="6.23104">
        <ele>2130.9</ele>
        <time>2019-06-12T10:08:04Z</time>
      </trkpt>
      <trkpt lat="44.63865" lon="6.23106">
        <ele>2130.9</ele>
        <time>2019-06-12T10:08:33Z</time>
      </trkpt>
      <trkpt lat="44.63859" lon="6.23102">
        <ele>2131.86</ele>
        <time>2019-06-12T10:09:00Z</time>
      </trkpt>
      <trkpt lat="44.63857" lon="6.23105">
        <ele>2131.86</ele>
        <time>2019-06-12T10:09:24Z</time>
      </trkpt>
      <trkpt lat="44.63858" lon="6.23112">
        <ele>2130.42</ele>
        <time>2019-06-12T10:09:44Z</time>
      </trkpt>
      <trkpt lat="44.6386" lon="6.23115">
        <ele>2128.02</ele>
        <time>2019-06-12T10:10:02Z</time>
      </trkpt>
      <trkpt lat="44.63862" lon="6.23115">
        <ele>2127.05</ele>
        <time>2019-06-12T10:10:19Z</time>
      </trkpt>
      <trkpt lat="44.63863" lon="6.23113">
        <ele>2126.57</ele>
        <time>2019-06-12T10:10:41Z</time>
      </trkpt>
      <trkpt lat="44.63868" lon="6.23107">
        <ele>2128.02</ele>
        <time>2019-06-12T10:10:52Z</time>
      </trkpt>
      <trkpt lat="44.63866" lon="6.23102">
        <ele>2128.5</ele>
        <time>2019-06-12T10:11:17Z</time>
      </trkpt>
      <trkpt lat="44.63872" lon="6.23113">
        <ele>2129.94</ele>
        <time>2019-06-12T10:11:31Z</time>
      </trkpt>
      <trkpt lat="44.63872" lon="6.23123">
        <ele>2132.34</ele>
        <time>2019-06-12T10:11:44Z</time>
      </trkpt>
      <trkpt lat="44.63874" lon="6.23136">
        <ele>2134.74</ele>
        <time>2019-06-12T10:11:57Z</time>
      </trkpt>
      <trkpt lat="44.63877" lon="6.23147">
        <ele>2138.11</ele>
        <time>2019-06-12T10:12:09Z</time>
      </trkpt>
      <trkpt lat="44.63873" lon="6.23158">
        <ele>2138.59</ele>
        <time>2019-06-12T10:12:22Z</time>
      </trkpt>
      <trkpt lat="44.63874" lon="6.2317">
        <ele>2138.59</ele>
        <time>2019-06-12T10:12:35Z</time>
      </trkpt>
      <trkpt lat="44.63873" lon="6.23173">
        <ele>2139.07</ele>
        <time>2019-06-12T10:12:54Z</time>
      </trkpt>
      <trkpt lat="44.63872" lon="6.23168">
        <ele>2139.07</ele>
        <time>2019-06-12T10:13:14Z</time>
      </trkpt>
      <trkpt lat="44.63874" lon="6.23157">
        <ele>2140.03</ele>
        <time>2019-06-12T10:13:28Z</time>
      </trkpt>
      <trkpt lat="44.63873" lon="6.23148">
        <ele>2143.4</ele>
        <time>2019-06-12T10:13:41Z</time>
      </trkpt>
      <trkpt lat="44.63869" lon="6.23147">
        <ele>2144.36</ele>
        <time>2019-06-12T10:13:56Z</time>
      </trkpt>
      <trkpt lat="44.63867" lon="6.23149">
        <ele>2144.36</ele>
        <time>2019-06-12T10:14:27Z</time>
      </trkpt>
      <trkpt lat="44.6387" lon="6.23153">
        <ele>2144.36</ele>
        <time>2019-06-12T10:14:49Z</time>
      </trkpt>
      <trkpt lat="44.63872" lon="6.23155">
        <ele>2140.99</ele>
        <time>2019-06-12T10:15:00Z</time>
      </trkpt>
      <trkpt lat="44.63873" lon="6.23159">
        <ele>2139.55</ele>
        <time>2019-06-12T10:15:11Z</time>
      </trkpt>
      <trkpt lat="44.63872" lon="6.23161">
        <ele>2138.59</ele>
        <time>2019-06-12T10:15:14Z</time>
      </trkpt>
      <trkpt lat="44.63874" lon="6.23172">
        <ele>2138.59</ele>
        <time>2019-06-12T10:15:31Z</time>
      </trkpt>
      <trkpt lat="44.6387" lon="6.23185">
        <ele>2140.03</ele>
        <time>2019-06-12T10:15:43Z</time>
      </trkpt>
      <trkpt lat="44.63868" lon="6.23192">
        <ele>2140.99</ele>
        <time>2019-06-12T10:15:48Z</time>
      </trkpt>
      <trkpt lat="44.63868" lon="6.23213">
        <ele>2142.92</ele>
        <time>2019-06-12T10:16:02Z</time>
      </trkpt>
      <trkpt lat="44.63867" lon="6.23217">
        <ele>2144.36</ele>
        <time>2019-06-12T10:16:05Z</time>
      </trkpt>
      <trkpt lat="44.63867" lon="6.23233">
        <ele>2146.28</ele>
        <time>2019-06-12T10:16:22Z</time>
      </trkpt>
      <trkpt lat="44.63865" lon="6.23235">
        <ele>2147.24</ele>
        <time>2019-06-12T10:16:39Z</time>
      </trkpt>
      <trkpt lat="44.63867" lon="6.23232">
        <ele>2147.24</ele>
        <time>2019-06-12T10:17:06Z</time>
      </trkpt>
      <trkpt lat="44.63864" lon="6.23233">
        <ele>2148.2</ele>
        <time>2019-06-12T10:17:22Z</time>
      </trkpt>
      <trkpt lat="44.63864" lon="6.23235">
        <ele>2148.2</ele>
        <time>2019-06-12T10:17:37Z</time>
      </trkpt>
      <trkpt lat="44.63865" lon="6.23237">
        <ele>2148.68</ele>
        <time>2019-06-12T10:17:51Z</time>
      </trkpt>
      <trkpt lat="44.63869" lon="6.23239">
        <ele>2148.68</ele>
        <time>2019-06-12T10:18:11Z</time>
      </trkpt>
      <trkpt lat="44.63868" lon="6.2325">
        <ele>2150.13</ele>
        <time>2019-06-12T10:18:23Z</time>
      </trkpt>
      <trkpt lat="44.63871" lon="6.23267">
        <ele>2152.53</ele>
        <time>2019-06-12T10:18:39Z</time>
      </trkpt>
      <trkpt lat="44.63874" lon="6.23282">
        <ele>2155.41</ele>
        <time>2019-06-12T10:18:53Z</time>
      </trkpt>
      <trkpt lat="44.63879" lon="6.23293">
        <ele>2157.82</ele>
        <time>2019-06-12T10:19:07Z</time>
      </trkpt>
      <trkpt lat="44.63884" lon="6.23305">
        <ele>2161.18</ele>
        <time>2019-06-12T10:19:22Z</time>
      </trkpt>
      <trkpt lat="44.63887" lon="6.23317">
        <ele>2163.58</ele>
        <time>2019-06-12T10:19:35Z</time>
      </trkpt>
      <trkpt lat="44.63894" lon="6.23329">
        <ele>2166.47</ele>
        <time>2019-06-12T10:19:49Z</time>
      </trkpt>
      <trkpt lat="44.63898" lon="6.23345">
        <ele>2168.87</ele>
        <time>2019-06-12T10:20:04Z</time>
      </trkpt>
      <trkpt lat="44.63897" lon="6.2335">
        <ele>2169.35</ele>
        <time>2019-06-12T10:20:19Z</time>
      </trkpt>
      <trkpt lat="44.63899" lon="6.23359">
        <ele>2170.79</ele>
        <time>2019-06-12T10:20:43Z</time>
      </trkpt>
      <trkpt lat="44.63901" lon="6.23374">
        <ele>2172.24</ele>
        <time>2019-06-12T10:20:55Z</time>
      </trkpt>
      <trkpt lat="44.63901" lon="6.23378">
        <ele>2172.72</ele>
        <time>2019-06-12T10:21:10Z</time>
      </trkpt>
      <trkpt lat="44.63902" lon="6.23385">
        <ele>2173.2</ele>
        <time>2019-06-12T10:21:28Z</time>
      </trkpt>
      <trkpt lat="44.63904" lon="6.23396">
        <ele>2174.16</ele>
        <time>2019-06-12T10:21:43Z</time>
      </trkpt>
      <trkpt lat="44.63903" lon="6.23411">
        <ele>2177.04</ele>
        <time>2019-06-12T10:21:57Z</time>
      </trkpt>
      <trkpt lat="44.63909" lon="6.23428">
        <ele>2178.97</ele>
        <time>2019-06-12T10:22:12Z</time>
      </trkpt>
      <trkpt lat="44.63911" lon="6.23444">
        <ele>2181.37</ele>
        <time>2019-06-12T10:22:26Z</time>
      </trkpt>
      <trkpt lat="44.63911" lon="6.23441">
        <ele>2181.85</ele>
        <time>2019-06-12T10:22:58Z</time>
      </trkpt>
      <trkpt lat="44.63913" lon="6.23451">
        <ele>2181.85</ele>
        <time>2019-06-12T10:23:23Z</time>
      </trkpt>
      <trkpt lat="44.63917" lon="6.23468">
        <ele>2183.29</ele>
        <time>2019-06-12T10:23:38Z</time>
      </trkpt>
      <trkpt lat="44.63926" lon="6.2348">
        <ele>2183.29</ele>
        <time>2019-06-12T10:23:51Z</time>
      </trkpt>
      <trkpt lat="44.63931" lon="6.23488">
        <ele>2184.25</ele>
        <time>2019-06-12T10:24:05Z</time>
      </trkpt>
      <trkpt lat="44.63928" lon="6.23488">
        <ele>2184.25</ele>
        <time>2019-06-12T10:24:25Z</time>
      </trkpt>
      <trkpt lat="44.63927" lon="6.23492">
        <ele>2184.25</ele>
        <time>2019-06-12T10:24:39Z</time>
      </trkpt>
      <trkpt lat="44.63932" lon="6.23504">
        <ele>2184.73</ele>
        <time>2019-06-12T10:24:55Z</time>
      </trkpt>
      <trkpt lat="44.63937" lon="6.23514">
        <ele>2187.14</ele>
        <time>2019-06-12T10:25:10Z</time>
      </trkpt>
      <trkpt lat="44.6394" lon="6.23518">
        <ele>2190.02</ele>
        <time>2019-06-12T10:25:26Z</time>
      </trkpt>
      <trkpt lat="44.63945" lon="6.23528">
        <ele>2193.39</ele>
        <time>2019-06-12T10:25:40Z</time>
      </trkpt>
      <trkpt lat="44.63951" lon="6.2354">
        <ele>2194.35</ele>
        <time>2019-06-12T10:25:55Z</time>
      </trkpt>
      <trkpt lat="44.63956" lon="6.23555">
        <ele>2196.27</ele>
        <time>2019-06-12T10:26:10Z</time>
      </trkpt>
      <trkpt lat="44.63957" lon="6.2355">
        <ele>2197.23</ele>
        <time>2019-06-12T10:26:23Z</time>
      </trkpt>
      <trkpt lat="44.63962" lon="6.23553">
        <ele>2198.67</ele>
        <time>2019-06-12T10:26:36Z</time>
      </trkpt>
      <trkpt lat="44.63965" lon="6.23551">
        <ele>2200.11</ele>
        <time>2019-06-12T10:26:50Z</time>
      </trkpt>
      <trkpt lat="44.63966" lon="6.23552">
        <ele>2201.08</ele>
        <time>2019-06-12T10:27:06Z</time>
      </trkpt>
      <trkpt lat="44.63966" lon="6.23553">
        <ele>2200.11</ele>
        <time>2019-06-12T10:27:29Z</time>
      </trkpt>
      <trkpt lat="44.63964" lon="6.23551">
        <ele>2200.11</ele>
        <time>2019-06-12T10:27:43Z</time>
      </trkpt>
      <trkpt lat="44.63963" lon="6.2355">
        <ele>2200.11</ele>
        <time>2019-06-12T10:27:58Z</time>
      </trkpt>
      <trkpt lat="44.63953" lon="6.23537">
        <ele>2199.63</ele>
        <time>2019-06-12T10:28:09Z</time>
      </trkpt>
      <trkpt lat="44.63953" lon="6.23536">
        <ele>2199.63</ele>
        <time>2019-06-12T10:28:10Z</time>
      </trkpt>
      <trkpt lat="44.63952" lon="6.2353">
        <ele>2199.63</ele>
        <time>2019-06-12T10:28:15Z</time>
      </trkpt>
      <trkpt lat="44.63951" lon="6.23528">
        <ele>2199.63</ele>
        <time>2019-06-12T10:28:16Z</time>
      </trkpt>
      <trkpt lat="44.6395" lon="6.23527">
        <ele>2201.08</ele>
        <time>2019-06-12T10:28:18Z</time>
      </trkpt>
      <trkpt lat="44.6395" lon="6.23528">
        <ele>2201.08</ele>
        <time>2019-06-12T10:28:19Z</time>
      </trkpt>
      <trkpt lat="44.63952" lon="6.23528">
        <ele>2201.56</ele>
        <time>2019-06-12T10:28:32Z</time>
      </trkpt>
      <trkpt lat="44.63952" lon="6.23528">
        <ele>2201.56</ele>
        <time>2019-06-12T10:28:51Z</time>
      </trkpt>
      <trkpt lat="44.6396" lon="6.23546">
        <ele>2199.15</ele>
        <time>2019-06-12T10:29:06Z</time>
      </trkpt>
      <trkpt lat="44.63961" lon="6.23546">
        <ele>2199.15</ele>
        <time>2019-06-12T10:29:07Z</time>
      </trkpt>
      <trkpt lat="44.63966" lon="6.23551">
        <ele>2199.15</ele>
        <time>2019-06-12T10:29:23Z</time>
      </trkpt>
      <trkpt lat="44.63966" lon="6.23551">
        <ele>2200.59</ele>
        <time>2019-06-12T10:29:26Z</time>
      </trkpt>
      <trkpt lat="44.63965" lon="6.23552">
        <ele>2201.08</ele>
        <time>2019-06-12T10:29:34Z</time>
      </trkpt>
      <trkpt lat="44.63964" lon="6.23551">
        <ele>2199.63</ele>
        <time>2019-06-12T10:29:37Z</time>
      </trkpt>
      <trkpt lat="44.63964" lon="6.23551">
        <ele>2201.08</ele>
        <time>2019-06-12T10:29:52Z</time>
      </trkpt>
      <trkpt lat="44.63965" lon="6.23551">
        <ele>2200.11</ele>
        <time>2019-06-12T10:30:05Z</time>
      </trkpt>
      <trkpt lat="44.63973" lon="6.23554">
        <ele>2199.15</ele>
        <time>2019-06-12T10:30:14Z</time>
      </trkpt>
      <trkpt lat="44.63984" lon="6.23556">
        <ele>2196.27</ele>
        <time>2019-06-12T10:30:30Z</time>
      </trkpt>
      <trkpt lat="44.63986" lon="6.23557">
        <ele>2195.79</ele>
        <time>2019-06-12T10:30:32Z</time>
      </trkpt>
      <trkpt lat="44.63994" lon="6.23557">
        <ele>2193.87</ele>
        <time>2019-06-12T10:30:42Z</time>
      </trkpt>
      <trkpt lat="44.63999" lon="6.23559">
        <ele>2193.39</ele>
        <time>2019-06-12T10:30:48Z</time>
      </trkpt>
      <trkpt lat="44.64" lon="6.23558">
        <ele>2193.39</ele>
        <time>2019-06-12T10:30:49Z</time>
      </trkpt>
      <trkpt lat="44.6401" lon="6.23559">
        <ele>2190.5</ele>
        <time>2019-06-12T10:31:03Z</time>
      </trkpt>
      <trkpt lat="44.64027" lon="6.2356">
        <ele>2188.1</ele>
        <time>2019-06-12T10:31:19Z</time>
      </trkpt>
      <trkpt lat="44.64036" lon="6.23565">
        <ele>2185.21</ele>
        <time>2019-06-12T10:31:31Z</time>
      </trkpt>
      <trkpt lat="44.6404" lon="6.23565">
        <ele>2185.21</ele>
        <time>2019-06-12T10:31:35Z</time>
      </trkpt>
      <trkpt lat="44.64057" lon="6.23561">
        <ele>2184.25</ele>
        <time>2019-06-12T10:31:51Z</time>
      </trkpt>
      <trkpt lat="44.64071" lon="6.23554">
        <ele>2180.89</ele>
        <time>2019-06-12T10:32:06Z</time>
      </trkpt>
      <trkpt lat="44.64083" lon="6.23548">
        <ele>2177.52</ele>
        <time>2019-06-12T10:32:21Z</time>
      </trkpt>
      <trkpt lat="44.6409" lon="6.23549">
        <ele>2174.64</ele>
        <time>2019-06-12T10:32:32Z</time>
      </trkpt>
      <trkpt lat="44.641" lon="6.23558">
        <ele>2170.79</ele>
        <time>2019-06-12T10:32:47Z</time>
      </trkpt>
      <trkpt lat="44.64108" lon="6.2357">
        <ele>2168.39</ele>
        <time>2019-06-12T10:33:02Z</time>
      </trkpt>
      <trkpt lat="44.64108" lon="6.23574">
        <ele>2168.39</ele>
        <time>2019-06-12T10:33:15Z</time>
      </trkpt>
      <trkpt lat="44.64108" lon="6.23575">
        <ele>2168.39</ele>
        <time>2019-06-12T10:33:39Z</time>
      </trkpt>
      <trkpt lat="44.64116" lon="6.23583">
        <ele>2166.95</ele>
        <time>2019-06-12T10:33:53Z</time>
      </trkpt>
      <trkpt lat="44.64122" lon="6.23592">
        <ele>2165.51</ele>
        <time>2019-06-12T10:34:09Z</time>
      </trkpt>
      <trkpt lat="44.64125" lon="6.23596">
        <ele>2164.55</ele>
        <time>2019-06-12T10:34:24Z</time>
      </trkpt>
      <trkpt lat="44.64123" lon="6.23596">
        <ele>2164.55</ele>
        <time>2019-06-12T10:34:42Z</time>
      </trkpt>
      <trkpt lat="44.64123" lon="6.23596">
        <ele>2164.55</ele>
        <time>2019-06-12T10:34:58Z</time>
      </trkpt>
      <trkpt lat="44.64122" lon="6.23593">
        <ele>2164.55</ele>
        <time>2019-06-12T10:35:13Z</time>
      </trkpt>
      <trkpt lat="44.64123" lon="6.23596">
        <ele>2164.55</ele>
        <time>2019-06-12T10:35:30Z</time>
      </trkpt>
      <trkpt lat="44.64123" lon="6.23596">
        <ele>2164.55</ele>
        <time>2019-06-12T10:35:49Z</time>
      </trkpt>
      <trkpt lat="44.64122" lon="6.23598">
        <ele>2164.55</ele>
        <time>2019-06-12T10:36:05Z</time>
      </trkpt>
      <trkpt lat="44.64121" lon="6.23591">
        <ele>2164.55</ele>
        <time>2019-06-12T10:36:16Z</time>
      </trkpt>
      <trkpt lat="44.64121" lon="6.23588">
        <ele>2165.03</ele>
        <time>2019-06-12T10:36:32Z</time>
      </trkpt>
      <trkpt lat="44.64122" lon="6.23586">
        <ele>2164.06</ele>
        <time>2019-06-12T10:36:40Z</time>
      </trkpt>
      <trkpt lat="44.64122" lon="6.23585">
        <ele>2162.62</ele>
        <time>2019-06-12T10:36:46Z</time>
      </trkpt>
      <trkpt lat="44.64123" lon="6.23584">
        <ele>2162.62</ele>
        <time>2019-06-12T10:36:47Z</time>
      </trkpt>
      <trkpt lat="44.6412" lon="6.23572">
        <ele>2160.7</ele>
        <time>2019-06-12T10:36:57Z</time>
      </trkpt>
      <trkpt lat="44.6412" lon="6.23566">
        <ele>2159.26</ele>
        <time>2019-06-12T10:37:09Z</time>
      </trkpt>
      <trkpt lat="44.64118" lon="6.23555">
        <ele>2156.86</ele>
        <time>2019-06-12T10:37:21Z</time>
      </trkpt>
      <trkpt lat="44.64118" lon="6.23553">
        <ele>2156.37</ele>
        <time>2019-06-12T10:37:23Z</time>
      </trkpt>
      <trkpt lat="44.64119" lon="6.23545">
        <ele>2154.45</ele>
        <time>2019-06-12T10:37:34Z</time>
      </trkpt>
      <trkpt lat="44.64121" lon="6.2355">
        <ele>2152.53</ele>
        <time>2019-06-12T10:37:46Z</time>
      </trkpt>
      <trkpt lat="44.64119" lon="6.2354">
        <ele>2150.13</ele>
        <time>2019-06-12T10:38:01Z</time>
      </trkpt>
      <trkpt lat="44.64121" lon="6.23536">
        <ele>2147.24</ele>
        <time>2019-06-12T10:38:15Z</time>
      </trkpt>
      <trkpt lat="44.64127" lon="6.23544">
        <ele>2144.36</ele>
        <time>2019-06-12T10:38:29Z</time>
      </trkpt>
      <trkpt lat="44.6413" lon="6.23552">
        <ele>2142.92</ele>
        <time>2019-06-12T10:38:42Z</time>
      </trkpt>
      <trkpt lat="44.64129" lon="6.23549">
        <ele>2142.44</ele>
        <time>2019-06-12T10:38:55Z</time>
      </trkpt>
      <trkpt lat="44.64131" lon="6.23548">
        <ele>2141.95</ele>
        <time>2019-06-12T10:39:19Z</time>
      </trkpt>
      <trkpt lat="44.64131" lon="6.23545">
        <ele>2140.99</ele>
        <time>2019-06-12T10:39:42Z</time>
      </trkpt>
      <trkpt lat="44.64131" lon="6.23538">
        <ele>2138.11</ele>
        <time>2019-06-12T10:39:57Z</time>
      </trkpt>
      <trkpt lat="44.64131" lon="6.23529">
        <ele>2135.71</ele>
        <time>2019-06-12T10:40:10Z</time>
      </trkpt>
      <trkpt lat="44.6413" lon="6.23522">
        <ele>2134.26</ele>
        <time>2019-06-12T10:40:24Z</time>
      </trkpt>
      <trkpt lat="44.6413" lon="6.23509">
        <ele>2132.34</ele>
        <time>2019-06-12T10:40:45Z</time>
      </trkpt>
      <trkpt lat="44.64128" lon="6.23495">
        <ele>2128.98</ele>
        <time>2019-06-12T10:40:59Z</time>
      </trkpt>
      <trkpt lat="44.64123" lon="6.23486">
        <ele>2126.09</ele>
        <time>2019-06-12T10:41:12Z</time>
      </trkpt>
      <trkpt lat="44.64115" lon="6.23474">
        <ele>2124.17</ele>
        <time>2019-06-12T10:41:25Z</time>
      </trkpt>
      <trkpt lat="44.64113" lon="6.23471">
        <ele>2123.69</ele>
        <time>2019-06-12T10:41:28Z</time>
      </trkpt>
      <trkpt lat="44.64112" lon="6.23467">
        <ele>2121.77</ele>
        <time>2019-06-12T10:41:42Z</time>
      </trkpt>
      <trkpt lat="44.64113" lon="6.23467">
        <ele>2120.32</ele>
        <time>2019-06-12T10:41:56Z</time>
      </trkpt>
      <trkpt lat="44.64114" lon="6.23466">
        <ele>2120.32</ele>
        <time>2019-06-12T10:42:10Z</time>
      </trkpt>
      <trkpt lat="44.64125" lon="6.23471">
        <ele>2117.44</ele>
        <time>2019-06-12T10:42:23Z</time>
      </trkpt>
      <trkpt lat="44.64125" lon="6.23472">
        <ele>2117.44</ele>
        <time>2019-06-12T10:42:24Z</time>
      </trkpt>
      <trkpt lat="44.64122" lon="6.23465">
        <ele>2115.52</ele>
        <time>2019-06-12T10:42:35Z</time>
      </trkpt>
      <trkpt lat="44.64116" lon="6.23454">
        <ele>2113.12</ele>
        <time>2019-06-12T10:42:48Z</time>
      </trkpt>
      <trkpt lat="44.64111" lon="6.23444">
        <ele>2110.23</ele>
        <time>2019-06-12T10:43:04Z</time>
      </trkpt>
      <trkpt lat="44.6411" lon="6.23442">
        <ele>2109.75</ele>
        <time>2019-06-12T10:43:26Z</time>
      </trkpt>
      <trkpt lat="44.64111" lon="6.23442">
        <ele>2109.27</ele>
        <time>2019-06-12T10:43:28Z</time>
      </trkpt>
      <trkpt lat="44.64125" lon="6.23446">
        <ele>2105.91</ele>
        <time>2019-06-12T10:43:42Z</time>
      </trkpt>
      <trkpt lat="44.6413" lon="6.2345">
        <ele>2103.98</ele>
        <time>2019-06-12T10:43:53Z</time>
      </trkpt>
      <trkpt lat="44.6414" lon="6.23456">
        <ele>2100.62</ele>
        <time>2019-06-12T10:44:07Z</time>
      </trkpt>
      <trkpt lat="44.64144" lon="6.23455">
        <ele>2098.7</ele>
        <time>2019-06-12T10:44:23Z</time>
      </trkpt>
      <trkpt lat="44.64139" lon="6.23442">
        <ele>2095.33</ele>
        <time>2019-06-12T10:44:38Z</time>
      </trkpt>
      <trkpt lat="44.64136" lon="6.23429">
        <ele>2091.97</ele>
        <time>2019-06-12T10:44:51Z</time>
      </trkpt>
      <trkpt lat="44.64127" lon="6.23412">
        <ele>2089.08</ele>
        <time>2019-06-12T10:45:06Z</time>
      </trkpt>
      <trkpt lat="44.64129" lon="6.23406">
        <ele>2087.64</ele>
        <time>2019-06-12T10:45:19Z</time>
      </trkpt>
      <trkpt lat="44.64132" lon="6.23404">
        <ele>2088.12</ele>
        <time>2019-06-12T10:45:34Z</time>
      </trkpt>
      <trkpt lat="44.6413" lon="6.23405">
        <ele>2086.68</ele>
        <time>2019-06-12T10:45:56Z</time>
      </trkpt>
      <trkpt lat="44.6413" lon="6.23403">
        <ele>2086.68</ele>
        <time>2019-06-12T10:46:18Z</time>
      </trkpt>
      <trkpt lat="44.64136" lon="6.23409">
        <ele>2085.72</ele>
        <time>2019-06-12T10:46:34Z</time>
      </trkpt>
      <trkpt lat="44.64144" lon="6.23419">
        <ele>2083.79</ele>
        <time>2019-06-12T10:46:47Z</time>
      </trkpt>
      <trkpt lat="44.6415" lon="6.2343">
        <ele>2080.91</ele>
        <time>2019-06-12T10:47:02Z</time>
      </trkpt>
      <trkpt lat="44.64156" lon="6.23436">
        <ele>2078.99</ele>
        <time>2019-06-12T10:47:15Z</time>
      </trkpt>
      <trkpt lat="44.64155" lon="6.23424">
        <ele>2076.59</ele>
        <time>2019-06-12T10:47:27Z</time>
      </trkpt>
      <trkpt lat="44.64154" lon="6.23411">
        <ele>2074.66</ele>
        <time>2019-06-12T10:47:40Z</time>
      </trkpt>
      <trkpt lat="44.64152" lon="6.234">
        <ele>2072.74</ele>
        <time>2019-06-12T10:47:51Z</time>
      </trkpt>
      <trkpt lat="44.64149" lon="6.2339">
        <ele>2069.86</ele>
        <time>2019-06-12T10:48:04Z</time>
      </trkpt>
      <trkpt lat="44.64147" lon="6.23381">
        <ele>2067.93</ele>
        <time>2019-06-12T10:48:18Z</time>
      </trkpt>
      <trkpt lat="44.64155" lon="6.23386">
        <ele>2064.57</ele>
        <time>2019-06-12T10:48:32Z</time>
      </trkpt>
      <trkpt lat="44.64162" lon="6.234">
        <ele>2062.65</ele>
        <time>2019-06-12T10:48:46Z</time>
      </trkpt>
      <trkpt lat="44.64169" lon="6.23407">
        <ele>2059.28</ele>
        <time>2019-06-12T10:48:56Z</time>
      </trkpt>
      <trkpt lat="44.64174" lon="6.23419">
        <ele>2057.36</ele>
        <time>2019-06-12T10:49:10Z</time>
      </trkpt>
      <trkpt lat="44.6418" lon="6.23428">
        <ele>2055.44</ele>
        <time>2019-06-12T10:49:22Z</time>
      </trkpt>
      <trkpt lat="44.64181" lon="6.2343">
        <ele>2052.55</ele>
        <time>2019-06-12T10:49:36Z</time>
      </trkpt>
      <trkpt lat="44.64177" lon="6.23422">
        <ele>2051.59</ele>
        <time>2019-06-12T10:49:50Z</time>
      </trkpt>
      <trkpt lat="44.64178" lon="6.23413">
        <ele>2049.19</ele>
        <time>2019-06-12T10:50:02Z</time>
      </trkpt>
      <trkpt lat="44.64178" lon="6.23404">
        <ele>2048.23</ele>
        <time>2019-06-12T10:50:13Z</time>
      </trkpt>
      <trkpt lat="44.6418" lon="6.23399">
        <ele>2047.26</ele>
        <time>2019-06-12T10:50:28Z</time>
      </trkpt>
      <trkpt lat="44.64181" lon="6.23387">
        <ele>2044.38</ele>
        <time>2019-06-12T10:50:42Z</time>
      </trkpt>
      <trkpt lat="44.64179" lon="6.23373">
        <ele>2041.98</ele>
        <time>2019-06-12T10:50:57Z</time>
      </trkpt>
      <trkpt lat="44.64179" lon="6.23371">
        <ele>2040.54</ele>
        <time>2019-06-12T10:50:59Z</time>
      </trkpt>
      <trkpt lat="44.6418" lon="6.23356">
        <ele>2037.65</ele>
        <time>2019-06-12T10:51:14Z</time>
      </trkpt>
      <trkpt lat="44.64176" lon="6.23341">
        <ele>2035.25</ele>
        <time>2019-06-12T10:51:30Z</time>
      </trkpt>
      <trkpt lat="44.64171" lon="6.23334">
        <ele>2033.81</ele>
        <time>2019-06-12T10:51:44Z</time>
      </trkpt>
      <trkpt lat="44.64182" lon="6.23337">
        <ele>2032.36</ele>
        <time>2019-06-12T10:51:59Z</time>
      </trkpt>
      <trkpt lat="44.64191" lon="6.23345">
        <ele>2029.48</ele>
        <time>2019-06-12T10:52:12Z</time>
      </trkpt>
      <trkpt lat="44.64192" lon="6.23347">
        <ele>2029.48</ele>
        <time>2019-06-12T10:52:13Z</time>
      </trkpt>
      <trkpt lat="44.64198" lon="6.23361">
        <ele>2026.12</ele>
        <time>2019-06-12T10:52:28Z</time>
      </trkpt>
      <trkpt lat="44.64204" lon="6.23373">
        <ele>2022.75</ele>
        <time>2019-06-12T10:52:43Z</time>
      </trkpt>
      <trkpt lat="44.64215" lon="6.23386">
        <ele>2019.87</ele>
        <time>2019-06-12T10:52:59Z</time>
      </trkpt>
      <trkpt lat="44.64214" lon="6.23368">
        <ele>2016.02</ele>
        <time>2019-06-12T10:53:15Z</time>
      </trkpt>
      <trkpt lat="44.64213" lon="6.23355">
        <ele>2012.66</ele>
        <time>2019-06-12T10:53:28Z</time>
      </trkpt>
      <trkpt lat="44.64211" lon="6.2334">
        <ele>2009.77</ele>
        <time>2019-06-12T10:53:43Z</time>
      </trkpt>
      <trkpt lat="44.64211" lon="6.23326">
        <ele>2006.41</ele>
        <time>2019-06-12T10:53:56Z</time>
      </trkpt>
      <trkpt lat="44.64217" lon="6.23333">
        <ele>2004.01</ele>
        <time>2019-06-12T10:54:09Z</time>
      </trkpt>
      <trkpt lat="44.64227" lon="6.2335">
        <ele>2001.12</ele>
        <time>2019-06-12T10:54:25Z</time>
      </trkpt>
      <trkpt lat="44.64222" lon="6.23344">
        <ele>2001.12</ele>
        <time>2019-06-12T10:54:40Z</time>
      </trkpt>
      <trkpt lat="44.64226" lon="6.2335">
        <ele>1999.68</ele>
        <time>2019-06-12T10:54:54Z</time>
      </trkpt>
      <trkpt lat="44.64234" lon="6.2336">
        <ele>1997.28</ele>
        <time>2019-06-12T10:55:07Z</time>
      </trkpt>
      <trkpt lat="44.64232" lon="6.23349">
        <ele>1994.87</ele>
        <time>2019-06-12T10:55:21Z</time>
      </trkpt>
      <trkpt lat="44.64232" lon="6.23338">
        <ele>1991.51</ele>
        <time>2019-06-12T10:55:32Z</time>
      </trkpt>
      <trkpt lat="44.6423" lon="6.23319">
        <ele>1988.14</ele>
        <time>2019-06-12T10:55:50Z</time>
      </trkpt>
      <trkpt lat="44.64228" lon="6.23306">
        <ele>1985.74</ele>
        <time>2019-06-12T10:56:04Z</time>
      </trkpt>
      <trkpt lat="44.64226" lon="6.23293">
        <ele>1982.38</ele>
        <time>2019-06-12T10:56:19Z</time>
      </trkpt>
      <trkpt lat="44.64226" lon="6.23286">
        <ele>1980.45</ele>
        <time>2019-06-12T10:56:30Z</time>
      </trkpt>
      <trkpt lat="44.6423" lon="6.23288">
        <ele>1978.05</ele>
        <time>2019-06-12T10:56:46Z</time>
      </trkpt>
      <trkpt lat="44.64234" lon="6.23292">
        <ele>1976.61</ele>
        <time>2019-06-12T10:56:51Z</time>
      </trkpt>
      <trkpt lat="44.64242" lon="6.23303">
        <ele>1973.24</ele>
        <time>2019-06-12T10:57:06Z</time>
      </trkpt>
      <trkpt lat="44.64242" lon="6.23301">
        <ele>1972.76</ele>
        <time>2019-06-12T10:57:26Z</time>
      </trkpt>
      <trkpt lat="44.64249" lon="6.23314">
        <ele>1971.32</ele>
        <time>2019-06-12T10:57:51Z</time>
      </trkpt>
      <trkpt lat="44.64255" lon="6.23314">
        <ele>1967.96</ele>
        <time>2019-06-12T10:58:10Z</time>
      </trkpt>
      <trkpt lat="44.64249" lon="6.23299">
        <ele>1965.55</ele>
        <time>2019-06-12T10:58:28Z</time>
      </trkpt>
      <trkpt lat="44.64254" lon="6.23308">
        <ele>1964.11</ele>
        <time>2019-06-12T10:58:46Z</time>
      </trkpt>
      <trkpt lat="44.6426" lon="6.23314">
        <ele>1960.75</ele>
        <time>2019-06-12T10:58:57Z</time>
      </trkpt>
      <trkpt lat="44.64267" lon="6.2332">
        <ele>1957.38</ele>
        <time>2019-06-12T10:59:12Z</time>
      </trkpt>
      <trkpt lat="44.64266" lon="6.23304">
        <ele>1954.98</ele>
        <time>2019-06-12T10:59:31Z</time>
      </trkpt>
      <trkpt lat="44.64271" lon="6.2331">
        <ele>1952.09</ele>
        <time>2019-06-12T10:59:49Z</time>
      </trkpt>
      <trkpt lat="44.64279" lon="6.23319">
        <ele>1949.21</ele>
        <time>2019-06-12T10:59:59Z</time>
      </trkpt>
      <trkpt lat="44.64283" lon="6.23319">
        <ele>1948.25</ele>
        <time>2019-06-12T11:00:18Z</time>
      </trkpt>
      <trkpt lat="44.64279" lon="6.2331">
        <ele>1945.85</ele>
        <time>2019-06-12T11:00:40Z</time>
      </trkpt>
      <trkpt lat="44.64274" lon="6.23293">
        <ele>1942.96</ele>
        <time>2019-06-12T11:00:55Z</time>
      </trkpt>
      <trkpt lat="44.64269" lon="6.23283">
        <ele>1939.6</ele>
        <time>2019-06-12T11:01:09Z</time>
      </trkpt>
      <trkpt lat="44.64263" lon="6.23272">
        <ele>1936.71</ele>
        <time>2019-06-12T11:01:23Z</time>
      </trkpt>
      <trkpt lat="44.64257" lon="6.23262">
        <ele>1934.31</ele>
        <time>2019-06-12T11:01:37Z</time>
      </trkpt>
      <trkpt lat="44.64255" lon="6.23254">
        <ele>1930.95</ele>
        <time>2019-06-12T11:01:51Z</time>
      </trkpt>
      <trkpt lat="44.64259" lon="6.23257">
        <ele>1928.54</ele>
        <time>2019-06-12T11:02:08Z</time>
      </trkpt>
      <trkpt lat="44.64275" lon="6.23266">
        <ele>1926.62</ele>
        <time>2019-06-12T11:02:26Z</time>
      </trkpt>
      <trkpt lat="44.64285" lon="6.2327">
        <ele>1924.7</ele>
        <time>2019-06-12T11:02:42Z</time>
      </trkpt>
      <trkpt lat="44.64289" lon="6.23278">
        <ele>1921.33</ele>
        <time>2019-06-12T11:02:58Z</time>
      </trkpt>
      <trkpt lat="44.64304" lon="6.23291">
        <ele>1917.97</ele>
        <time>2019-06-12T11:03:16Z</time>
      </trkpt>
      <trkpt lat="44.64311" lon="6.23306">
        <ele>1914.6</ele>
        <time>2019-06-12T11:03:33Z</time>
      </trkpt>
      <trkpt lat="44.64314" lon="6.23304">
        <ele>1913.64</ele>
        <time>2019-06-12T11:03:49Z</time>
      </trkpt>
      <trkpt lat="44.64321" lon="6.23309">
        <ele>1913.16</ele>
        <time>2019-06-12T11:04:07Z</time>
      </trkpt>
      <trkpt lat="44.64322" lon="6.2331">
        <ele>1912.68</ele>
        <time>2019-06-12T11:04:29Z</time>
      </trkpt>
      <trkpt lat="44.64322" lon="6.23302">
        <ele>1912.68</ele>
        <time>2019-06-12T11:04:53Z</time>
      </trkpt>
      <trkpt lat="44.64314" lon="6.23285">
        <ele>1909.32</ele>
        <time>2019-06-12T11:05:08Z</time>
      </trkpt>
      <trkpt lat="44.64308" lon="6.23269">
        <ele>1906.91</ele>
        <time>2019-06-12T11:05:22Z</time>
      </trkpt>
      <trkpt lat="44.64304" lon="6.23258">
        <ele>1903.55</ele>
        <time>2019-06-12T11:05:33Z</time>
      </trkpt>
      <trkpt lat="44.643" lon="6.23246">
        <ele>1900.18</ele>
        <time>2019-06-12T11:05:46Z</time>
      </trkpt>
      <trkpt lat="44.64299" lon="6.23245">
        <ele>1900.18</ele>
        <time>2019-06-12T11:05:47Z</time>
      </trkpt>
      <trkpt lat="44.64299" lon="6.23232">
        <ele>1896.82</ele>
        <time>2019-06-12T11:06:01Z</time>
      </trkpt>
      <trkpt lat="44.64294" lon="6.23217">
        <ele>1893.93</ele>
        <time>2019-06-12T11:06:17Z</time>
      </trkpt>
      <trkpt lat="44.64291" lon="6.23206">
        <ele>1890.09</ele>
        <time>2019-06-12T11:06:30Z</time>
      </trkpt>
      <trkpt lat="44.64289" lon="6.23195">
        <ele>1887.21</ele>
        <time>2019-06-12T11:06:44Z</time>
      </trkpt>
      <trkpt lat="44.64279" lon="6.2318">
        <ele>1884.8</ele>
        <time>2019-06-12T11:07:00Z</time>
      </trkpt>
      <trkpt lat="44.64275" lon="6.23175">
        <ele>1882.88</ele>
        <time>2019-06-12T11:07:16Z</time>
      </trkpt>
      <trkpt lat="44.64284" lon="6.23184">
        <ele>1881.44</ele>
        <time>2019-06-12T11:07:38Z</time>
      </trkpt>
      <trkpt lat="44.64304" lon="6.23197">
        <ele>1879.03</ele>
        <time>2019-06-12T11:07:56Z</time>
      </trkpt>
      <trkpt lat="44.64314" lon="6.23201">
        <ele>1875.67</ele>
        <time>2019-06-12T11:08:12Z</time>
      </trkpt>
      <trkpt lat="44.64323" lon="6.23214">
        <ele>1873.75</ele>
        <time>2019-06-12T11:08:30Z</time>
      </trkpt>
      <trkpt lat="44.64321" lon="6.2321">
        <ele>1871.82</ele>
        <time>2019-06-12T11:08:46Z</time>
      </trkpt>
      <trkpt lat="44.64323" lon="6.23201">
        <ele>1868.46</ele>
        <time>2019-06-12T11:08:56Z</time>
      </trkpt>
      <trkpt lat="44.64323" lon="6.232">
        <ele>1868.46</ele>
        <time>2019-06-12T11:08:57Z</time>
      </trkpt>
      <trkpt lat="44.64318" lon="6.23177">
        <ele>1865.09</ele>
        <time>2019-06-12T11:09:13Z</time>
      </trkpt>
      <trkpt lat="44.64311" lon="6.23159">
        <ele>1862.69</ele>
        <time>2019-06-12T11:09:27Z</time>
      </trkpt>
      <trkpt lat="44.64311" lon="6.23147">
        <ele>1858.37</ele>
        <time>2019-06-12T11:09:43Z</time>
      </trkpt>
      <trkpt lat="44.64304" lon="6.23132">
        <ele>1855</ele>
        <time>2019-06-12T11:10:00Z</time>
      </trkpt>
      <trkpt lat="44.64298" lon="6.23121">
        <ele>1852.6</ele>
        <time>2019-06-12T11:10:18Z</time>
      </trkpt>
      <trkpt lat="44.64308" lon="6.23124">
        <ele>1849.23</ele>
        <time>2019-06-12T11:10:33Z</time>
      </trkpt>
      <trkpt lat="44.64322" lon="6.23133">
        <ele>1845.87</ele>
        <time>2019-06-12T11:10:49Z</time>
      </trkpt>
      <trkpt lat="44.64331" lon="6.23137">
        <ele>1843.95</ele>
        <time>2019-06-12T11:10:57Z</time>
      </trkpt>
      <trkpt lat="44.64343" lon="6.23137">
        <ele>1840.58</ele>
        <time>2019-06-12T11:11:13Z</time>
      </trkpt>
      <trkpt lat="44.64349" lon="6.23135">
        <ele>1837.7</ele>
        <time>2019-06-12T11:11:27Z</time>
      </trkpt>
      <trkpt lat="44.64354" lon="6.23147">
        <ele>1834.33</ele>
        <time>2019-06-12T11:11:44Z</time>
      </trkpt>
      <trkpt lat="44.64358" lon="6.23154">
        <ele>1831.45</ele>
        <time>2019-06-12T11:11:59Z</time>
      </trkpt>
      <trkpt lat="44.6436" lon="6.23162">
        <ele>1830.01</ele>
        <time>2019-06-12T11:12:19Z</time>
      </trkpt>
      <trkpt lat="44.64366" lon="6.23166">
        <ele>1826.64</ele>
        <time>2019-06-12T11:12:30Z</time>
      </trkpt>
      <trkpt lat="44.64378" lon="6.23164">
        <ele>1823.76</ele>
        <time>2019-06-12T11:12:45Z</time>
      </trkpt>
      <trkpt lat="44.64382" lon="6.23158">
        <ele>1820.87</ele>
        <time>2019-06-12T11:12:57Z</time>
      </trkpt>
      <trkpt lat="44.64397" lon="6.23148">
        <ele>1817.99</ele>
        <time>2019-06-12T11:13:15Z</time>
      </trkpt>
      <trkpt lat="44.64404" lon="6.2315">
        <ele>1816.55</ele>
        <time>2019-06-12T11:13:20Z</time>
      </trkpt>
      <trkpt lat="44.64407" lon="6.23151">
        <ele>1816.07</ele>
        <time>2019-06-12T11:13:24Z</time>
      </trkpt>
      <trkpt lat="44.64413" lon="6.23158">
        <ele>1813.18</ele>
        <time>2019-06-12T11:13:39Z</time>
      </trkpt>
      <trkpt lat="44.64411" lon="6.23161">
        <ele>1814.15</ele>
        <time>2019-06-12T11:14:02Z</time>
      </trkpt>
      <trkpt lat="44.64411" lon="6.23145">
        <ele>1812.22</ele>
        <time>2019-06-12T11:14:27Z</time>
      </trkpt>
      <trkpt lat="44.64409" lon="6.23123">
        <ele>1809.34</ele>
        <time>2019-06-12T11:14:41Z</time>
      </trkpt>
      <trkpt lat="44.64414" lon="6.23101">
        <ele>1805.97</ele>
        <time>2019-06-12T11:14:57Z</time>
      </trkpt>
      <trkpt lat="44.64418" lon="6.23091">
        <ele>1805.01</ele>
        <time>2019-06-12T11:15:14Z</time>
      </trkpt>
      <trkpt lat="44.64429" lon="6.23079">
        <ele>1802.61</ele>
        <time>2019-06-12T11:15:29Z</time>
      </trkpt>
      <trkpt lat="44.64442" lon="6.23067">
        <ele>1799.73</ele>
        <time>2019-06-12T11:15:44Z</time>
      </trkpt>
      <trkpt lat="44.64446" lon="6.23066">
        <ele>1798.76</ele>
        <time>2019-06-12T11:15:49Z</time>
      </trkpt>
      <trkpt lat="44.64458" lon="6.23048">
        <ele>1795.4</ele>
        <time>2019-06-12T11:16:05Z</time>
      </trkpt>
      <trkpt lat="44.6447" lon="6.2303">
        <ele>1793</ele>
        <time>2019-06-12T11:16:21Z</time>
      </trkpt>
      <trkpt lat="44.64478" lon="6.2302">
        <ele>1791.55</ele>
        <time>2019-06-12T11:16:35Z</time>
      </trkpt>
      <trkpt lat="44.64487" lon="6.23011">
        <ele>1790.11</ele>
        <time>2019-06-12T11:16:48Z</time>
      </trkpt>
      <trkpt lat="44.64495" lon="6.22999">
        <ele>1786.75</ele>
        <time>2019-06-12T11:17:00Z</time>
      </trkpt>
      <trkpt lat="44.6451" lon="6.22979">
        <ele>1784.34</ele>
        <time>2019-06-12T11:17:16Z</time>
      </trkpt>
      <trkpt lat="44.64518" lon="6.2297">
        <ele>1781.46</ele>
        <time>2019-06-12T11:17:29Z</time>
      </trkpt>
      <trkpt lat="44.64526" lon="6.22961">
        <ele>1779.54</ele>
        <time>2019-06-12T11:17:41Z</time>
      </trkpt>
      <trkpt lat="44.64535" lon="6.22947">
        <ele>1775.69</ele>
        <time>2019-06-12T11:17:54Z</time>
      </trkpt>
      <trkpt lat="44.64535" lon="6.2294">
        <ele>1774.25</ele>
        <time>2019-06-12T11:18:05Z</time>
      </trkpt>
      <trkpt lat="44.64531" lon="6.22937">
        <ele>1774.25</ele>
        <time>2019-06-12T11:18:28Z</time>
      </trkpt>
      <trkpt lat="44.64538" lon="6.22936">
        <ele>1773.77</ele>
        <time>2019-06-12T11:18:44Z</time>
      </trkpt>
      <trkpt lat="44.64548" lon="6.22938">
        <ele>1772.33</ele>
        <time>2019-06-12T11:18:58Z</time>
      </trkpt>
      <trkpt lat="44.64555" lon="6.22926">
        <ele>1772.33</ele>
        <time>2019-06-12T11:19:21Z</time>
      </trkpt>
      <trkpt lat="44.64544" lon="6.22918">
        <ele>1772.33</ele>
        <time>2019-06-12T11:19:37Z</time>
      </trkpt>
      <trkpt lat="44.64545" lon="6.22922">
        <ele>1772.33</ele>
        <time>2019-06-12T11:19:53Z</time>
      </trkpt>
      <trkpt lat="44.64545" lon="6.22924">
        <ele>1772.33</ele>
        <time>2019-06-12T11:20:08Z</time>
      </trkpt>
      <trkpt lat="44.64547" lon="6.22922">
        <ele>1772.33</ele>
        <time>2019-06-12T11:20:23Z</time>
      </trkpt>
      <trkpt lat="44.64544" lon="6.22923">
        <ele>1772.33</ele>
        <time>2019-06-12T11:20:43Z</time>
      </trkpt>
      <trkpt lat="44.64539" lon="6.22909">
        <ele>1771.37</ele>
        <time>2019-06-12T11:21:04Z</time>
      </trkpt>
      <trkpt lat="44.64535" lon="6.22913">
        <ele>1772.81</ele>
        <time>2019-06-12T11:21:19Z</time>
      </trkpt>
      <trkpt lat="44.64542" lon="6.22936">
        <ele>1773.77</ele>
        <time>2019-06-12T11:21:32Z</time>
      </trkpt>
      <trkpt lat="44.64541" lon="6.22945">
        <ele>1774.25</ele>
        <time>2019-06-12T11:21:46Z</time>
      </trkpt>
      <trkpt lat="44.64535" lon="6.22938">
        <ele>1774.73</ele>
        <time>2019-06-12T11:21:56Z</time>
      </trkpt>
      <trkpt lat="44.64534" lon="6.22937">
        <ele>1774.73</ele>
        <time>2019-06-12T11:21:59Z</time>
      </trkpt>
      <trkpt lat="44.6453" lon="6.22935">
        <ele>1774.73</ele>
        <time>2019-06-12T11:22:07Z</time>
      </trkpt>
      <trkpt lat="44.64526" lon="6.22934">
        <ele>1774.73</ele>
        <time>2019-06-12T11:22:12Z</time>
      </trkpt>
      <trkpt lat="44.64506" lon="6.22944">
        <ele>1774.73</ele>
        <time>2019-06-12T11:22:24Z</time>
      </trkpt>
      <trkpt lat="44.64499" lon="6.22952">
        <ele>1774.73</ele>
        <time>2019-06-12T11:22:34Z</time>
      </trkpt>
      <trkpt lat="44.64499" lon="6.22953">
        <ele>1774.73</ele>
        <time>2019-06-12T11:22:35Z</time>
      </trkpt>
      <trkpt lat="44.64497" lon="6.22955">
        <ele>1774.73</ele>
        <time>2019-06-12T11:22:36Z</time>
      </trkpt>
      <trkpt lat="44.64496" lon="6.22957">
        <ele>1774.73</ele>
        <time>2019-06-12T11:22:37Z</time>
      </trkpt>
      <trkpt lat="44.64483" lon="6.22963">
        <ele>1774.73</ele>
        <time>2019-06-12T11:22:49Z</time>
      </trkpt>
      <trkpt lat="44.64474" lon="6.22971">
        <ele>1774.73</ele>
        <time>2019-06-12T11:22:59Z</time>
      </trkpt>
      <trkpt lat="44.64462" lon="6.22976">
        <ele>1775.21</ele>
        <time>2019-06-12T11:23:12Z</time>
      </trkpt>
      <trkpt lat="44.6446" lon="6.22976">
        <ele>1775.21</ele>
        <time>2019-06-12T11:23:13Z</time>
      </trkpt>
      <trkpt lat="44.64452" lon="6.22972">
        <ele>1776.17</ele>
        <time>2019-06-12T11:23:24Z</time>
      </trkpt>
      <trkpt lat="44.64441" lon="6.22958">
        <ele>1776.17</ele>
        <time>2019-06-12T11:23:39Z</time>
      </trkpt>
      <trkpt lat="44.64441" lon="6.2295">
        <ele>1776.65</ele>
        <time>2019-06-12T11:23:51Z</time>
      </trkpt>
      <trkpt lat="44.64434" lon="6.22945">
        <ele>1776.65</ele>
        <time>2019-06-12T11:24:09Z</time>
      </trkpt>
      <trkpt lat="44.64423" lon="6.22932">
        <ele>1776.65</ele>
        <time>2019-06-12T11:24:21Z</time>
      </trkpt>
      <trkpt lat="44.64414" lon="6.22927">
        <ele>1776.65</ele>
        <time>2019-06-12T11:24:32Z</time>
      </trkpt>
      <trkpt lat="44.64403" lon="6.22921">
        <ele>1776.65</ele>
        <time>2019-06-12T11:24:42Z</time>
      </trkpt>
      <trkpt lat="44.64392" lon="6.22916">
        <ele>1777.13</ele>
        <time>2019-06-12T11:24:51Z</time>
      </trkpt>
      <trkpt lat="44.64387" lon="6.22911">
        <ele>1777.13</ele>
        <time>2019-06-12T11:25:00Z</time>
      </trkpt>
      <trkpt lat="44.64387" lon="6.2291">
        <ele>1777.13</ele>
        <time>2019-06-12T11:25:01Z</time>
      </trkpt>
      <trkpt lat="44.64384" lon="6.2289">
        <ele>1777.13</ele>
        <time>2019-06-12T11:25:15Z</time>
      </trkpt>
      <trkpt lat="44.6438" lon="6.22875">
        <ele>1777.13</ele>
        <time>2019-06-12T11:25:26Z</time>
      </trkpt>
      <trkpt lat="44.6438" lon="6.22873">
        <ele>1777.13</ele>
        <time>2019-06-12T11:25:27Z</time>
      </trkpt>
      <trkpt lat="44.64378" lon="6.22858">
        <ele>1777.13</ele>
        <time>2019-06-12T11:25:39Z</time>
      </trkpt>
      <trkpt lat="44.64371" lon="6.22836">
        <ele>1775.69</ele>
        <time>2019-06-12T11:25:54Z</time>
      </trkpt>
      <trkpt lat="44.64369" lon="6.22815">
        <ele>1775.21</ele>
        <time>2019-06-12T11:26:10Z</time>
      </trkpt>
      <trkpt lat="44.6437" lon="6.22814">
        <ele>1774.73</ele>
        <time>2019-06-12T11:26:22Z</time>
      </trkpt>
      <trkpt lat="44.6437" lon="6.22814">
        <ele>1774.73</ele>
        <time>2019-06-12T11:26:38Z</time>
      </trkpt>
      <trkpt lat="44.6437" lon="6.22814">
        <ele>1774.73</ele>
        <time>2019-06-12T11:26:40Z</time>
      </trkpt>
      <trkpt lat="44.6437" lon="6.22809">
        <ele>1774.73</ele>
        <time>2019-06-12T11:26:51Z</time>
      </trkpt>
      <trkpt lat="44.6437" lon="6.22814">
        <ele>1774.73</ele>
        <time>2019-06-12T11:27:13Z</time>
      </trkpt>
      <trkpt lat="44.64372" lon="6.22819">
        <ele>1774.73</ele>
        <time>2019-06-12T11:27:49Z</time>
      </trkpt>
      <trkpt lat="44.6437" lon="6.22814">
        <ele>1774.73</ele>
        <time>2019-06-12T11:28:01Z</time>
      </trkpt>
      <trkpt lat="44.64368" lon="6.22809">
        <ele>1774.73</ele>
        <time>2019-06-12T11:28:25Z</time>
      </trkpt>
      <trkpt lat="44.64366" lon="6.22816">
        <ele>1774.73</ele>
        <time>2019-06-12T11:28:45Z</time>
      </trkpt>
      <trkpt lat="44.64369" lon="6.22817">
        <ele>1774.73</ele>
        <time>2019-06-12T11:29:03Z</time>
      </trkpt>
      <trkpt lat="44.64371" lon="6.22834">
        <ele>1774.73</ele>
        <time>2019-06-12T11:29:16Z</time>
      </trkpt>
      <trkpt lat="44.64375" lon="6.2285">
        <ele>1774.73</ele>
        <time>2019-06-12T11:29:26Z</time>
      </trkpt>
      <trkpt lat="44.6438" lon="6.22874">
        <ele>1774.73</ele>
        <time>2019-06-12T11:29:41Z</time>
      </trkpt>
      <trkpt lat="44.64386" lon="6.22894">
        <ele>1776.17</ele>
        <time>2019-06-12T11:29:56Z</time>
      </trkpt>
      <trkpt lat="44.64388" lon="6.22906">
        <ele>1776.17</ele>
        <time>2019-06-12T11:30:03Z</time>
      </trkpt>
      <trkpt lat="44.64387" lon="6.22914">
        <ele>1776.65</ele>
        <time>2019-06-12T11:30:16Z</time>
      </trkpt>
      <trkpt lat="44.64386" lon="6.22913">
        <ele>1777.13</ele>
        <time>2019-06-12T11:30:31Z</time>
      </trkpt>
      <trkpt lat="44.64383" lon="6.22918">
        <ele>1777.13</ele>
        <time>2019-06-12T11:30:51Z</time>
      </trkpt>
      <trkpt lat="44.64382" lon="6.22918">
        <ele>1777.13</ele>
        <time>2019-06-12T11:30:57Z</time>
      </trkpt>
      <trkpt lat="44.64386" lon="6.22913">
        <ele>1771.37</ele>
        <time>2019-06-12T12:27:40Z</time>
      </trkpt>
      <trkpt lat="44.64379" lon="6.22921">
        <ele>1771.37</ele>
        <time>2019-06-12T12:27:41Z</time>
      </trkpt>
      <trkpt lat="44.6438" lon="6.22921">
        <ele>1775.21</ele>
        <time>2019-06-12T12:27:53Z</time>
      </trkpt>
      <trkpt lat="44.64377" lon="6.2292">
        <ele>1778.1</ele>
        <time>2019-06-12T12:28:12Z</time>
      </trkpt>
      <trkpt lat="44.64389" lon="6.2292">
        <ele>1780.98</ele>
        <time>2019-06-12T12:28:24Z</time>
      </trkpt>
      <trkpt lat="44.64391" lon="6.22918">
        <ele>1783.86</ele>
        <time>2019-06-12T12:28:37Z</time>
      </trkpt>
      <trkpt lat="44.64389" lon="6.22906">
        <ele>1785.79</ele>
        <time>2019-06-12T12:29:00Z</time>
      </trkpt>
      <trkpt lat="44.64382" lon="6.22887">
        <ele>1786.75</ele>
        <time>2019-06-12T12:29:16Z</time>
      </trkpt>
      <trkpt lat="44.64382" lon="6.22869">
        <ele>1786.75</ele>
        <time>2019-06-12T12:29:32Z</time>
      </trkpt>
      <trkpt lat="44.64381" lon="6.22867">
        <ele>1786.75</ele>
        <time>2019-06-12T12:29:33Z</time>
      </trkpt>
      <trkpt lat="44.64374" lon="6.22844">
        <ele>1786.75</ele>
        <time>2019-06-12T12:29:49Z</time>
      </trkpt>
      <trkpt lat="44.64366" lon="6.22829">
        <ele>1785.31</ele>
        <time>2019-06-12T12:30:09Z</time>
      </trkpt>
      <trkpt lat="44.64368" lon="6.22812">
        <ele>1784.82</ele>
        <time>2019-06-12T12:30:24Z</time>
      </trkpt>
      <trkpt lat="44.64362" lon="6.22798">
        <ele>1784.82</ele>
        <time>2019-06-12T12:30:38Z</time>
      </trkpt>
      <trkpt lat="44.64357" lon="6.22776">
        <ele>1783.86</ele>
        <time>2019-06-12T12:30:56Z</time>
      </trkpt>
      <trkpt lat="44.64355" lon="6.22772">
        <ele>1783.86</ele>
        <time>2019-06-12T12:30:58Z</time>
      </trkpt>
      <trkpt lat="44.64347" lon="6.22751">
        <ele>1783.86</ele>
        <time>2019-06-12T12:31:15Z</time>
      </trkpt>
      <trkpt lat="44.64338" lon="6.22745">
        <ele>1783.86</ele>
        <time>2019-06-12T12:31:30Z</time>
      </trkpt>
      <trkpt lat="44.64324" lon="6.22745">
        <ele>1783.86</ele>
        <time>2019-06-12T12:31:48Z</time>
      </trkpt>
      <trkpt lat="44.64316" lon="6.22737">
        <ele>1783.86</ele>
        <time>2019-06-12T12:32:01Z</time>
      </trkpt>
      <trkpt lat="44.64305" lon="6.22722">
        <ele>1785.31</ele>
        <time>2019-06-12T12:32:16Z</time>
      </trkpt>
      <trkpt lat="44.64303" lon="6.22703">
        <ele>1783.86</ele>
        <time>2019-06-12T12:32:32Z</time>
      </trkpt>
      <trkpt lat="44.64309" lon="6.22699">
        <ele>1783.38</ele>
        <time>2019-06-12T12:32:40Z</time>
      </trkpt>
      <trkpt lat="44.64315" lon="6.22684">
        <ele>1783.38</ele>
        <time>2019-06-12T12:32:53Z</time>
      </trkpt>
      <trkpt lat="44.64321" lon="6.22683">
        <ele>1783.38</ele>
        <time>2019-06-12T12:33:12Z</time>
      </trkpt>
      <trkpt lat="44.64327" lon="6.22672">
        <ele>1783.38</ele>
        <time>2019-06-12T12:33:24Z</time>
      </trkpt>
      <trkpt lat="44.64329" lon="6.22656">
        <ele>1783.38</ele>
        <time>2019-06-12T12:33:38Z</time>
      </trkpt>
      <trkpt lat="44.6434" lon="6.22642">
        <ele>1782.42</ele>
        <time>2019-06-12T12:33:53Z</time>
      </trkpt>
      <trkpt lat="44.64345" lon="6.22626">
        <ele>1782.42</ele>
        <time>2019-06-12T12:34:09Z</time>
      </trkpt>
      <trkpt lat="44.64356" lon="6.22608">
        <ele>1782.42</ele>
        <time>2019-06-12T12:34:22Z</time>
      </trkpt>
      <trkpt lat="44.64365" lon="6.22592">
        <ele>1782.42</ele>
        <time>2019-06-12T12:34:32Z</time>
      </trkpt>
      <trkpt lat="44.64367" lon="6.22588">
        <ele>1782.42</ele>
        <time>2019-06-12T12:34:42Z</time>
      </trkpt>
      <trkpt lat="44.64371" lon="6.22584">
        <ele>1782.42</ele>
        <time>2019-06-12T12:34:46Z</time>
      </trkpt>
      <trkpt lat="44.64373" lon="6.22581">
        <ele>1782.42</ele>
        <time>2019-06-12T12:34:48Z</time>
      </trkpt>
      <trkpt lat="44.64378" lon="6.22574">
        <ele>1781.94</ele>
        <time>2019-06-12T12:34:52Z</time>
      </trkpt>
      <trkpt lat="44.64387" lon="6.22563">
        <ele>1781.46</ele>
        <time>2019-06-12T12:35:04Z</time>
      </trkpt>
      <trkpt lat="44.64389" lon="6.2256">
        <ele>1781.46</ele>
        <time>2019-06-12T12:35:07Z</time>
      </trkpt>
      <trkpt lat="44.644" lon="6.22544">
        <ele>1781.46</ele>
        <time>2019-06-12T12:35:20Z</time>
      </trkpt>
      <trkpt lat="44.644" lon="6.22543">
        <ele>1781.46</ele>
        <time>2019-06-12T12:35:21Z</time>
      </trkpt>
      <trkpt lat="44.64402" lon="6.2254">
        <ele>1781.46</ele>
        <time>2019-06-12T12:35:23Z</time>
      </trkpt>
      <trkpt lat="44.64406" lon="6.22534">
        <ele>1780.98</ele>
        <time>2019-06-12T12:35:32Z</time>
      </trkpt>
      <trkpt lat="44.64408" lon="6.22531">
        <ele>1780.5</ele>
        <time>2019-06-12T12:35:34Z</time>
      </trkpt>
      <trkpt lat="44.64411" lon="6.22523">
        <ele>1780.02</ele>
        <time>2019-06-12T12:35:43Z</time>
      </trkpt>
      <trkpt lat="44.64414" lon="6.22518">
        <ele>1780.02</ele>
        <time>2019-06-12T12:35:58Z</time>
      </trkpt>
      <trkpt lat="44.64417" lon="6.22511">
        <ele>1779.06</ele>
        <time>2019-06-12T12:36:02Z</time>
      </trkpt>
      <trkpt lat="44.64421" lon="6.22488">
        <ele>1778.1</ele>
        <time>2019-06-12T12:36:15Z</time>
      </trkpt>
      <trkpt lat="44.64422" lon="6.22484">
        <ele>1777.61</ele>
        <time>2019-06-12T12:36:17Z</time>
      </trkpt>
      <trkpt lat="44.64421" lon="6.22481">
        <ele>1777.61</ele>
        <time>2019-06-12T12:36:18Z</time>
      </trkpt>
      <trkpt lat="44.64421" lon="6.22478">
        <ele>1777.61</ele>
        <time>2019-06-12T12:36:19Z</time>
      </trkpt>
      <trkpt lat="44.6442" lon="6.22474">
        <ele>1777.61</ele>
        <time>2019-06-12T12:36:21Z</time>
      </trkpt>
      <trkpt lat="44.64422" lon="6.22469">
        <ele>1776.65</ele>
        <time>2019-06-12T12:36:32Z</time>
      </trkpt>
      <trkpt lat="44.64425" lon="6.22475">
        <ele>1776.65</ele>
        <time>2019-06-12T12:36:52Z</time>
      </trkpt>
      <trkpt lat="44.64433" lon="6.2248">
        <ele>1776.65</ele>
        <time>2019-06-12T12:37:04Z</time>
      </trkpt>
      <trkpt lat="44.64432" lon="6.22482">
        <ele>1776.17</ele>
        <time>2019-06-12T12:37:18Z</time>
      </trkpt>
      <trkpt lat="44.64436" lon="6.22472">
        <ele>1775.69</ele>
        <time>2019-06-12T12:37:31Z</time>
      </trkpt>
      <trkpt lat="44.64446" lon="6.22459">
        <ele>1774.73</ele>
        <time>2019-06-12T12:37:39Z</time>
      </trkpt>
      <trkpt lat="44.64446" lon="6.22456">
        <ele>1774.25</ele>
        <time>2019-06-12T12:37:44Z</time>
      </trkpt>
      <trkpt lat="44.64447" lon="6.22454">
        <ele>1774.25</ele>
        <time>2019-06-12T12:37:45Z</time>
      </trkpt>
      <trkpt lat="44.64447" lon="6.22452">
        <ele>1774.25</ele>
        <time>2019-06-12T12:37:46Z</time>
      </trkpt>
      <trkpt lat="44.64449" lon="6.2245">
        <ele>1774.25</ele>
        <time>2019-06-12T12:37:47Z</time>
      </trkpt>
      <trkpt lat="44.64451" lon="6.22449">
        <ele>1773.77</ele>
        <time>2019-06-12T12:37:48Z</time>
      </trkpt>
      <trkpt lat="44.64453" lon="6.22447">
        <ele>1773.77</ele>
        <time>2019-06-12T12:37:49Z</time>
      </trkpt>
      <trkpt lat="44.64453" lon="6.22446">
        <ele>1773.77</ele>
        <time>2019-06-12T12:37:50Z</time>
      </trkpt>
      <trkpt lat="44.64454" lon="6.22445">
        <ele>1773.77</ele>
        <time>2019-06-12T12:37:51Z</time>
      </trkpt>
      <trkpt lat="44.64454" lon="6.22444">
        <ele>1773.29</ele>
        <time>2019-06-12T12:37:52Z</time>
      </trkpt>
      <trkpt lat="44.64455" lon="6.22443">
        <ele>1773.29</ele>
        <time>2019-06-12T12:37:53Z</time>
      </trkpt>
      <trkpt lat="44.64456" lon="6.22443">
        <ele>1773.29</ele>
        <time>2019-06-12T12:37:54Z</time>
      </trkpt>
      <trkpt lat="44.64457" lon="6.22437">
        <ele>1773.29</ele>
        <time>2019-06-12T12:38:04Z</time>
      </trkpt>
      <trkpt lat="44.64457" lon="6.22436">
        <ele>1772.81</ele>
        <time>2019-06-12T12:38:05Z</time>
      </trkpt>
      <trkpt lat="44.64458" lon="6.22435">
        <ele>1772.81</ele>
        <time>2019-06-12T12:38:06Z</time>
      </trkpt>
      <trkpt lat="44.64463" lon="6.22425">
        <ele>1772.81</ele>
        <time>2019-06-12T12:38:12Z</time>
      </trkpt>
      <trkpt lat="44.64464" lon="6.22423">
        <ele>1772.81</ele>
        <time>2019-06-12T12:38:13Z</time>
      </trkpt>
      <trkpt lat="44.64468" lon="6.22415">
        <ele>1772.33</ele>
        <time>2019-06-12T12:38:19Z</time>
      </trkpt>
      <trkpt lat="44.64475" lon="6.22413">
        <ele>1772.33</ele>
        <time>2019-06-12T12:38:33Z</time>
      </trkpt>
      <trkpt lat="44.64486" lon="6.22403">
        <ele>1770.41</ele>
        <time>2019-06-12T12:38:47Z</time>
      </trkpt>
      <trkpt lat="44.64498" lon="6.22385">
        <ele>1769.92</ele>
        <time>2019-06-12T12:39:03Z</time>
      </trkpt>
      <trkpt lat="44.64507" lon="6.22381">
        <ele>1769.92</ele>
        <time>2019-06-12T12:39:20Z</time>
      </trkpt>
      <trkpt lat="44.64511" lon="6.22379">
        <ele>1769.92</ele>
        <time>2019-06-12T12:39:35Z</time>
      </trkpt>
      <trkpt lat="44.64511" lon="6.2238">
        <ele>1770.89</ele>
        <time>2019-06-12T12:40:02Z</time>
      </trkpt>
      <trkpt lat="44.64513" lon="6.22379">
        <ele>1770.89</ele>
        <time>2019-06-12T12:40:23Z</time>
      </trkpt>
      <trkpt lat="44.64518" lon="6.22378">
        <ele>1770.41</ele>
        <time>2019-06-12T12:40:46Z</time>
      </trkpt>
      <trkpt lat="44.64515" lon="6.22375">
        <ele>1769.44</ele>
        <time>2019-06-12T12:41:03Z</time>
      </trkpt>
      <trkpt lat="44.64515" lon="6.22374">
        <ele>1768.96</ele>
        <time>2019-06-12T12:41:25Z</time>
      </trkpt>
      <trkpt lat="44.64513" lon="6.22377">
        <ele>1768.96</ele>
        <time>2019-06-12T12:41:50Z</time>
      </trkpt>
      <trkpt lat="44.64513" lon="6.22376">
        <ele>1769.92</ele>
        <time>2019-06-12T12:42:10Z</time>
      </trkpt>
      <trkpt lat="44.64514" lon="6.22375">
        <ele>1769.92</ele>
        <time>2019-06-12T12:42:28Z</time>
      </trkpt>
      <trkpt lat="44.64513" lon="6.22376">
        <ele>1770.41</ele>
        <time>2019-06-12T12:42:51Z</time>
      </trkpt>
      <trkpt lat="44.64511" lon="6.22376">
        <ele>1770.41</ele>
        <time>2019-06-12T12:43:06Z</time>
      </trkpt>
      <trkpt lat="44.64512" lon="6.22379">
        <ele>1770.41</ele>
        <time>2019-06-12T12:43:22Z</time>
      </trkpt>
      <trkpt lat="44.64509" lon="6.22373">
        <ele>1770.41</ele>
        <time>2019-06-12T12:43:44Z</time>
      </trkpt>
      <trkpt lat="44.64507" lon="6.22381">
        <ele>1770.41</ele>
        <time>2019-06-12T12:43:56Z</time>
      </trkpt>
      <trkpt lat="44.64505" lon="6.22382">
        <ele>1770.41</ele>
        <time>2019-06-12T12:44:09Z</time>
      </trkpt>
      <trkpt lat="44.64505" lon="6.22382">
        <ele>1770.41</ele>
        <time>2019-06-12T12:44:27Z</time>
      </trkpt>
      <trkpt lat="44.64504" lon="6.22379">
        <ele>1771.37</ele>
        <time>2019-06-12T12:44:41Z</time>
      </trkpt>
      <trkpt lat="44.64499" lon="6.22383">
        <ele>1771.37</ele>
        <time>2019-06-12T12:44:48Z</time>
      </trkpt>
      <trkpt lat="44.64489" lon="6.22396">
        <ele>1769.92</ele>
        <time>2019-06-12T12:45:01Z</time>
      </trkpt>
      <trkpt lat="44.64486" lon="6.22399">
        <ele>1769.92</ele>
        <time>2019-06-12T12:45:05Z</time>
      </trkpt>
      <trkpt lat="44.64472" lon="6.22414">
        <ele>1770.89</ele>
        <time>2019-06-12T12:45:18Z</time>
      </trkpt>
      <trkpt lat="44.64472" lon="6.22416">
        <ele>1770.89</ele>
        <time>2019-06-12T12:45:21Z</time>
      </trkpt>
      <trkpt lat="44.64467" lon="6.22419">
        <ele>1771.85</ele>
        <time>2019-06-12T12:45:27Z</time>
      </trkpt>
      <trkpt lat="44.64467" lon="6.22417">
        <ele>1771.85</ele>
        <time>2019-06-12T12:45:36Z</time>
      </trkpt>
      <trkpt lat="44.64459" lon="6.22422">
        <ele>1771.37</ele>
        <time>2019-06-12T12:45:49Z</time>
      </trkpt>
      <trkpt lat="44.64445" lon="6.22425">
        <ele>1769.92</ele>
        <time>2019-06-12T12:45:59Z</time>
      </trkpt>
      <trkpt lat="44.64436" lon="6.22425">
        <ele>1768</ele>
        <time>2019-06-12T12:46:12Z</time>
      </trkpt>
      <trkpt lat="44.6442" lon="6.2243">
        <ele>1766.08</ele>
        <time>2019-06-12T12:46:25Z</time>
      </trkpt>
      <trkpt lat="44.64403" lon="6.22435">
        <ele>1763.2</ele>
        <time>2019-06-12T12:46:39Z</time>
      </trkpt>
      <trkpt lat="44.6439" lon="6.22436">
        <ele>1761.75</ele>
        <time>2019-06-12T12:46:54Z</time>
      </trkpt>
      <trkpt lat="44.64388" lon="6.22436">
        <ele>1761.27</ele>
        <time>2019-06-12T12:46:56Z</time>
      </trkpt>
      <trkpt lat="44.64387" lon="6.22435">
        <ele>1761.27</ele>
        <time>2019-06-12T12:46:57Z</time>
      </trkpt>
      <trkpt lat="44.64386" lon="6.22434">
        <ele>1760.79</ele>
        <time>2019-06-12T12:46:58Z</time>
      </trkpt>
      <trkpt lat="44.64385" lon="6.22433">
        <ele>1760.79</ele>
        <time>2019-06-12T12:46:59Z</time>
      </trkpt>
      <trkpt lat="44.64384" lon="6.22432">
        <ele>1760.79</ele>
        <time>2019-06-12T12:47:00Z</time>
      </trkpt>
      <trkpt lat="44.64374" lon="6.22432">
        <ele>1758.39</ele>
        <time>2019-06-12T12:47:14Z</time>
      </trkpt>
      <trkpt lat="44.64357" lon="6.22426">
        <ele>1755.02</ele>
        <time>2019-06-12T12:47:28Z</time>
      </trkpt>
      <trkpt lat="44.64356" lon="6.22424">
        <ele>1754.54</ele>
        <time>2019-06-12T12:47:34Z</time>
      </trkpt>
      <trkpt lat="44.64354" lon="6.22424">
        <ele>1754.54</ele>
        <time>2019-06-12T12:47:35Z</time>
      </trkpt>
      <trkpt lat="44.64353" lon="6.22423">
        <ele>1754.54</ele>
        <time>2019-06-12T12:47:36Z</time>
      </trkpt>
      <trkpt lat="44.64352" lon="6.22422">
        <ele>1754.06</ele>
        <time>2019-06-12T12:47:37Z</time>
      </trkpt>
      <trkpt lat="44.64351" lon="6.22421">
        <ele>1754.06</ele>
        <time>2019-06-12T12:47:38Z</time>
      </trkpt>
      <trkpt lat="44.64349" lon="6.2242">
        <ele>1754.06</ele>
        <time>2019-06-12T12:47:39Z</time>
      </trkpt>
      <trkpt lat="44.64348" lon="6.2242">
        <ele>1754.06</ele>
        <time>2019-06-12T12:47:40Z</time>
      </trkpt>
      <trkpt lat="44.64347" lon="6.22419">
        <ele>1754.06</ele>
        <time>2019-06-12T12:47:41Z</time>
      </trkpt>
      <trkpt lat="44.64346" lon="6.22418">
        <ele>1754.06</ele>
        <time>2019-06-12T12:47:42Z</time>
      </trkpt>
      <trkpt lat="44.64345" lon="6.22418">
        <ele>1754.06</ele>
        <time>2019-06-12T12:47:43Z</time>
      </trkpt>
      <trkpt lat="44.64344" lon="6.22417">
        <ele>1753.58</ele>
        <time>2019-06-12T12:47:44Z</time>
      </trkpt>
      <trkpt lat="44.64343" lon="6.22416">
        <ele>1753.58</ele>
        <time>2019-06-12T12:47:45Z</time>
      </trkpt>
      <trkpt lat="44.64342" lon="6.22416">
        <ele>1753.58</ele>
        <time>2019-06-12T12:47:46Z</time>
      </trkpt>
      <trkpt lat="44.64341" lon="6.22415">
        <ele>1753.1</ele>
        <time>2019-06-12T12:47:47Z</time>
      </trkpt>
      <trkpt lat="44.6434" lon="6.22415">
        <ele>1752.14</ele>
        <time>2019-06-12T12:47:48Z</time>
      </trkpt>
      <trkpt lat="44.64338" lon="6.22414">
        <ele>1752.14</ele>
        <time>2019-06-12T12:47:49Z</time>
      </trkpt>
      <trkpt lat="44.64322" lon="6.22401">
        <ele>1749.74</ele>
        <time>2019-06-12T12:48:02Z</time>
      </trkpt>
      <trkpt lat="44.6431" lon="6.224">
        <ele>1747.81</ele>
        <time>2019-06-12T12:48:13Z</time>
      </trkpt>
      <trkpt lat="44.64298" lon="6.22388">
        <ele>1744.45</ele>
        <time>2019-06-12T12:48:28Z</time>
      </trkpt>
      <trkpt lat="44.64297" lon="6.22387">
        <ele>1744.45</ele>
        <time>2019-06-12T12:48:29Z</time>
      </trkpt>
      <trkpt lat="44.64291" lon="6.22379">
        <ele>1743.97</ele>
        <time>2019-06-12T12:48:36Z</time>
      </trkpt>
      <trkpt lat="44.64291" lon="6.22377">
        <ele>1743.97</ele>
        <time>2019-06-12T12:48:37Z</time>
      </trkpt>
      <trkpt lat="44.64286" lon="6.22371">
        <ele>1742.53</ele>
        <time>2019-06-12T12:48:53Z</time>
      </trkpt>
      <trkpt lat="44.64283" lon="6.2235">
        <ele>1739.16</ele>
        <time>2019-06-12T12:49:04Z</time>
      </trkpt>
      <trkpt lat="44.6428" lon="6.22332">
        <ele>1736.28</ele>
        <time>2019-06-12T12:49:16Z</time>
      </trkpt>
      <trkpt lat="44.64274" lon="6.22312">
        <ele>1733.39</ele>
        <time>2019-06-12T12:49:27Z</time>
      </trkpt>
      <trkpt lat="44.6427" lon="6.22304">
        <ele>1731.47</ele>
        <time>2019-06-12T12:49:35Z</time>
      </trkpt>
      <trkpt lat="44.64265" lon="6.22303">
        <ele>1730.51</ele>
        <time>2019-06-12T12:49:50Z</time>
      </trkpt>
      <trkpt lat="44.64265" lon="6.22295">
        <ele>1729.55</ele>
        <time>2019-06-12T12:50:07Z</time>
      </trkpt>
      <trkpt lat="44.64264" lon="6.22288">
        <ele>1729.55</ele>
        <time>2019-06-12T12:50:15Z</time>
      </trkpt>
      <trkpt lat="44.64262" lon="6.22285">
        <ele>1729.07</ele>
        <time>2019-06-12T12:50:17Z</time>
      </trkpt>
      <trkpt lat="44.64256" lon="6.2227">
        <ele>1726.67</ele>
        <time>2019-06-12T12:50:27Z</time>
      </trkpt>
      <trkpt lat="44.64258" lon="6.22264">
        <ele>1725.22</ele>
        <time>2019-06-12T12:50:32Z</time>
      </trkpt>
      <trkpt lat="44.64258" lon="6.22261">
        <ele>1724.26</ele>
        <time>2019-06-12T12:50:33Z</time>
      </trkpt>
      <trkpt lat="44.64257" lon="6.22252">
        <ele>1724.26</ele>
        <time>2019-06-12T12:50:46Z</time>
      </trkpt>
      <trkpt lat="44.64254" lon="6.22237">
        <ele>1720.9</ele>
        <time>2019-06-12T12:50:57Z</time>
      </trkpt>
      <trkpt lat="44.64255" lon="6.22237">
        <ele>1719.94</ele>
        <time>2019-06-12T12:51:11Z</time>
      </trkpt>
      <trkpt lat="44.64247" lon="6.22231">
        <ele>1718.01</ele>
        <time>2019-06-12T12:51:31Z</time>
      </trkpt>
      <trkpt lat="44.64241" lon="6.22219">
        <ele>1715.13</ele>
        <time>2019-06-12T12:51:44Z</time>
      </trkpt>
      <trkpt lat="44.64236" lon="6.22208">
        <ele>1711.76</ele>
        <time>2019-06-12T12:51:55Z</time>
      </trkpt>
      <trkpt lat="44.64229" lon="6.22198">
        <ele>1710.8</ele>
        <time>2019-06-12T12:52:09Z</time>
      </trkpt>
      <trkpt lat="44.64219" lon="6.2219">
        <ele>1709.84</ele>
        <time>2019-06-12T12:52:26Z</time>
      </trkpt>
      <trkpt lat="44.64219" lon="6.22191">
        <ele>1709.84</ele>
        <time>2019-06-12T12:52:52Z</time>
      </trkpt>
      <trkpt lat="44.64215" lon="6.22191">
        <ele>1709.84</ele>
        <time>2019-06-12T12:53:13Z</time>
      </trkpt>
      <trkpt lat="44.64222" lon="6.22173">
        <ele>1708.4</ele>
        <time>2019-06-12T12:53:33Z</time>
      </trkpt>
      <trkpt lat="44.64221" lon="6.2215">
        <ele>1706</ele>
        <time>2019-06-12T12:53:45Z</time>
      </trkpt>
      <trkpt lat="44.64219" lon="6.22128">
        <ele>1702.63</ele>
        <time>2019-06-12T12:53:58Z</time>
      </trkpt>
      <trkpt lat="44.64219" lon="6.22114">
        <ele>1699.75</ele>
        <time>2019-06-12T12:54:10Z</time>
      </trkpt>
      <trkpt lat="44.64222" lon="6.22102">
        <ele>1696.38</ele>
        <time>2019-06-12T12:54:22Z</time>
      </trkpt>
      <trkpt lat="44.64222" lon="6.22086">
        <ele>1692.54</ele>
        <time>2019-06-12T12:54:35Z</time>
      </trkpt>
      <trkpt lat="44.6422" lon="6.2207">
        <ele>1689.17</ele>
        <time>2019-06-12T12:54:49Z</time>
      </trkpt>
      <trkpt lat="44.64212" lon="6.22058">
        <ele>1685.81</ele>
        <time>2019-06-12T12:55:02Z</time>
      </trkpt>
      <trkpt lat="44.64199" lon="6.22048">
        <ele>1682.93</ele>
        <time>2019-06-12T12:55:16Z</time>
      </trkpt>
      <trkpt lat="44.64187" lon="6.2205">
        <ele>1680.04</ele>
        <time>2019-06-12T12:55:31Z</time>
      </trkpt>
      <trkpt lat="44.64179" lon="6.22051">
        <ele>1677.16</ele>
        <time>2019-06-12T12:55:46Z</time>
      </trkpt>
      <trkpt lat="44.64168" lon="6.22041">
        <ele>1673.79</ele>
        <time>2019-06-12T12:56:01Z</time>
      </trkpt>
      <trkpt lat="44.64155" lon="6.22026">
        <ele>1670.43</ele>
        <time>2019-06-12T12:56:17Z</time>
      </trkpt>
      <trkpt lat="44.64143" lon="6.22013">
        <ele>1668.51</ele>
        <time>2019-06-12T12:56:29Z</time>
      </trkpt>
      <trkpt lat="44.64138" lon="6.22007">
        <ele>1668.02</ele>
        <time>2019-06-12T12:56:32Z</time>
      </trkpt>
      <trkpt lat="44.64125" lon="6.21987">
        <ele>1666.1</ele>
        <time>2019-06-12T12:56:47Z</time>
      </trkpt>
      <trkpt lat="44.64118" lon="6.21982">
        <ele>1664.18</ele>
        <time>2019-06-12T12:56:57Z</time>
      </trkpt>
      <trkpt lat="44.6411" lon="6.21973">
        <ele>1662.74</ele>
        <time>2019-06-12T12:57:05Z</time>
      </trkpt>
      <trkpt lat="44.64103" lon="6.21958">
        <ele>1660.81</ele>
        <time>2019-06-12T12:57:12Z</time>
      </trkpt>
      <trkpt lat="44.64096" lon="6.21947">
        <ele>1658.41</ele>
        <time>2019-06-12T12:57:19Z</time>
      </trkpt>
      <trkpt lat="44.6409" lon="6.21943">
        <ele>1657.93</ele>
        <time>2019-06-12T12:57:22Z</time>
      </trkpt>
      <trkpt lat="44.64076" lon="6.2193">
        <ele>1655.05</ele>
        <time>2019-06-12T12:57:35Z</time>
      </trkpt>
      <trkpt lat="44.64071" lon="6.21925">
        <ele>1654.57</ele>
        <time>2019-06-12T12:57:40Z</time>
      </trkpt>
      <trkpt lat="44.6407" lon="6.21924">
        <ele>1654.09</ele>
        <time>2019-06-12T12:57:41Z</time>
      </trkpt>
      <trkpt lat="44.64058" lon="6.21913">
        <ele>1651.2</ele>
        <time>2019-06-12T12:57:55Z</time>
      </trkpt>
      <trkpt lat="44.64042" lon="6.21908">
        <ele>1647.84</ele>
        <time>2019-06-12T12:58:13Z</time>
      </trkpt>
      <trkpt lat="44.64028" lon="6.21916">
        <ele>1645.43</ele>
        <time>2019-06-12T12:58:32Z</time>
      </trkpt>
      <trkpt lat="44.64012" lon="6.21919">
        <ele>1643.99</ele>
        <time>2019-06-12T12:58:51Z</time>
      </trkpt>
      <trkpt lat="44.64005" lon="6.21913">
        <ele>1643.03</ele>
        <time>2019-06-12T12:59:12Z</time>
      </trkpt>
      <trkpt lat="44.64003" lon="6.2191">
        <ele>1644.47</ele>
        <time>2019-06-12T12:59:28Z</time>
      </trkpt>
      <trkpt lat="44.64003" lon="6.21914">
        <ele>1644.47</ele>
        <time>2019-06-12T12:59:46Z</time>
      </trkpt>
      <trkpt lat="44.64012" lon="6.21919">
        <ele>1644.47</ele>
        <time>2019-06-12T13:00:04Z</time>
      </trkpt>
      <trkpt lat="44.64013" lon="6.21913">
        <ele>1644.47</ele>
        <time>2019-06-12T13:00:21Z</time>
      </trkpt>
      <trkpt lat="44.64014" lon="6.21912">
        <ele>1643.99</ele>
        <time>2019-06-12T13:00:37Z</time>
      </trkpt>
      <trkpt lat="44.64009" lon="6.21904">
        <ele>1643.03</ele>
        <time>2019-06-12T13:00:47Z</time>
      </trkpt>
      <trkpt lat="44.64006" lon="6.21899">
        <ele>1642.07</ele>
        <time>2019-06-12T13:00:51Z</time>
      </trkpt>
      <trkpt lat="44.64006" lon="6.21885">
        <ele>1641.11</ele>
        <time>2019-06-12T13:01:02Z</time>
      </trkpt>
      <trkpt lat="44.64007" lon="6.21876">
        <ele>1640.15</ele>
        <time>2019-06-12T13:01:09Z</time>
      </trkpt>
      <trkpt lat="44.64008" lon="6.21856">
        <ele>1639.19</ele>
        <time>2019-06-12T13:01:23Z</time>
      </trkpt>
      <trkpt lat="44.6401" lon="6.21851">
        <ele>1639.19</ele>
        <time>2019-06-12T13:01:26Z</time>
      </trkpt>
      <trkpt lat="44.6401" lon="6.2185">
        <ele>1639.19</ele>
        <time>2019-06-12T13:01:27Z</time>
      </trkpt>
      <trkpt lat="44.64012" lon="6.21827">
        <ele>1638.7</ele>
        <time>2019-06-12T13:01:44Z</time>
      </trkpt>
      <trkpt lat="44.64008" lon="6.21815">
        <ele>1637.26</ele>
        <time>2019-06-12T13:01:58Z</time>
      </trkpt>
      <trkpt lat="44.64003" lon="6.21809">
        <ele>1636.78</ele>
        <time>2019-06-12T13:02:13Z</time>
      </trkpt>
      <trkpt lat="44.63997" lon="6.21809">
        <ele>1636.78</ele>
        <time>2019-06-12T13:02:35Z</time>
      </trkpt>
      <trkpt lat="44.63987" lon="6.21818">
        <ele>1636.78</ele>
        <time>2019-06-12T13:03:00Z</time>
      </trkpt>
      <trkpt lat="44.6399" lon="6.21802">
        <ele>1636.78</ele>
        <time>2019-06-12T13:03:22Z</time>
      </trkpt>
      <trkpt lat="44.63982" lon="6.21788">
        <ele>1636.78</ele>
        <time>2019-06-12T13:03:40Z</time>
      </trkpt>
      <trkpt lat="44.63968" lon="6.21773">
        <ele>1636.78</ele>
        <time>2019-06-12T13:03:56Z</time>
      </trkpt>
      <trkpt lat="44.63957" lon="6.21761">
        <ele>1636.78</ele>
        <time>2019-06-12T13:04:10Z</time>
      </trkpt>
      <trkpt lat="44.63955" lon="6.2176">
        <ele>1636.78</ele>
        <time>2019-06-12T13:04:12Z</time>
      </trkpt>
      <trkpt lat="44.63954" lon="6.2176">
        <ele>1636.78</ele>
        <time>2019-06-12T13:04:13Z</time>
      </trkpt>
      <trkpt lat="44.63946" lon="6.21749">
        <ele>1634.86</ele>
        <time>2019-06-12T13:04:26Z</time>
      </trkpt>
      <trkpt lat="44.63945" lon="6.21735">
        <ele>1633.9</ele>
        <time>2019-06-12T13:04:40Z</time>
      </trkpt>
      <trkpt lat="44.63944" lon="6.21718">
        <ele>1632.94</ele>
        <time>2019-06-12T13:04:52Z</time>
      </trkpt>
      <trkpt lat="44.63937" lon="6.21697">
        <ele>1631.49</ele>
        <time>2019-06-12T13:05:05Z</time>
      </trkpt>
      <trkpt lat="44.63928" lon="6.21675">
        <ele>1629.09</ele>
        <time>2019-06-12T13:05:20Z</time>
      </trkpt>
      <trkpt lat="44.63921" lon="6.21659">
        <ele>1626.69</ele>
        <time>2019-06-12T13:05:33Z</time>
      </trkpt>
      <trkpt lat="44.63916" lon="6.21647">
        <ele>1624.28</ele>
        <time>2019-06-12T13:05:45Z</time>
      </trkpt>
      <trkpt lat="44.63914" lon="6.21636">
        <ele>1621.88</ele>
        <time>2019-06-12T13:05:58Z</time>
      </trkpt>
      <trkpt lat="44.63911" lon="6.2162">
        <ele>1619.48</ele>
        <time>2019-06-12T13:06:11Z</time>
      </trkpt>
      <trkpt lat="44.63905" lon="6.21604">
        <ele>1617.07</ele>
        <time>2019-06-12T13:06:25Z</time>
      </trkpt>
      <trkpt lat="44.63899" lon="6.21592">
        <ele>1613.71</ele>
        <time>2019-06-12T13:06:37Z</time>
      </trkpt>
      <trkpt lat="44.63893" lon="6.21578">
        <ele>1611.31</ele>
        <time>2019-06-12T13:06:50Z</time>
      </trkpt>
      <trkpt lat="44.63889" lon="6.21564">
        <ele>1609.38</ele>
        <time>2019-06-12T13:07:03Z</time>
      </trkpt>
      <trkpt lat="44.63887" lon="6.21552">
        <ele>1606.5</ele>
        <time>2019-06-12T13:07:16Z</time>
      </trkpt>
      <trkpt lat="44.63883" lon="6.21539">
        <ele>1604.58</ele>
        <time>2019-06-12T13:07:27Z</time>
      </trkpt>
      <trkpt lat="44.63881" lon="6.21529">
        <ele>1601.69</ele>
        <time>2019-06-12T13:07:40Z</time>
      </trkpt>
      <trkpt lat="44.63876" lon="6.21517">
        <ele>1599.77</ele>
        <time>2019-06-12T13:07:53Z</time>
      </trkpt>
      <trkpt lat="44.63874" lon="6.21503">
        <ele>1597.37</ele>
        <time>2019-06-12T13:08:05Z</time>
      </trkpt>
      <trkpt lat="44.63871" lon="6.21487">
        <ele>1594.96</ele>
        <time>2019-06-12T13:08:21Z</time>
      </trkpt>
      <trkpt lat="44.63865" lon="6.21474">
        <ele>1593.04</ele>
        <time>2019-06-12T13:08:30Z</time>
      </trkpt>
      <trkpt lat="44.63859" lon="6.21458">
        <ele>1590.64</ele>
        <time>2019-06-12T13:08:42Z</time>
      </trkpt>
      <trkpt lat="44.63854" lon="6.21445">
        <ele>1588.72</ele>
        <time>2019-06-12T13:08:54Z</time>
      </trkpt>
      <trkpt lat="44.6385" lon="6.21431">
        <ele>1585.83</ele>
        <time>2019-06-12T13:09:05Z</time>
      </trkpt>
      <trkpt lat="44.63847" lon="6.2142">
        <ele>1583.91</ele>
        <time>2019-06-12T13:09:16Z</time>
      </trkpt>
      <trkpt lat="44.63848" lon="6.21406">
        <ele>1581.51</ele>
        <time>2019-06-12T13:09:27Z</time>
      </trkpt>
      <trkpt lat="44.63847" lon="6.21391">
        <ele>1578.14</ele>
        <time>2019-06-12T13:09:40Z</time>
      </trkpt>
      <trkpt lat="44.63848" lon="6.21377">
        <ele>1575.26</ele>
        <time>2019-06-12T13:09:54Z</time>
      </trkpt>
      <trkpt lat="44.63848" lon="6.21361">
        <ele>1572.37</ele>
        <time>2019-06-12T13:10:09Z</time>
      </trkpt>
      <trkpt lat="44.63844" lon="6.21348">
        <ele>1569.97</ele>
        <time>2019-06-12T13:10:21Z</time>
      </trkpt>
      <trkpt lat="44.63841" lon="6.21335">
        <ele>1567.09</ele>
        <time>2019-06-12T13:10:35Z</time>
      </trkpt>
      <trkpt lat="44.63836" lon="6.21321">
        <ele>1564.68</ele>
        <time>2019-06-12T13:10:48Z</time>
      </trkpt>
      <trkpt lat="44.63835" lon="6.21318">
        <ele>1564.2</ele>
        <time>2019-06-12T13:10:50Z</time>
      </trkpt>
      <trkpt lat="44.63832" lon="6.21297">
        <ele>1561.32</ele>
        <time>2019-06-12T13:11:03Z</time>
      </trkpt>
      <trkpt lat="44.6383" lon="6.2128">
        <ele>1558.43</ele>
        <time>2019-06-12T13:11:16Z</time>
      </trkpt>
      <trkpt lat="44.63822" lon="6.21262">
        <ele>1556.51</ele>
        <time>2019-06-12T13:11:26Z</time>
      </trkpt>
      <trkpt lat="44.63818" lon="6.21255">
        <ele>1555.55</ele>
        <time>2019-06-12T13:11:32Z</time>
      </trkpt>
      <trkpt lat="44.63816" lon="6.21254">
        <ele>1555.07</ele>
        <time>2019-06-12T13:11:33Z</time>
      </trkpt>
      <trkpt lat="44.63812" lon="6.21238">
        <ele>1553.63</ele>
        <time>2019-06-12T13:11:45Z</time>
      </trkpt>
      <trkpt lat="44.63803" lon="6.21216">
        <ele>1551.22</ele>
        <time>2019-06-12T13:12:01Z</time>
      </trkpt>
      <trkpt lat="44.63793" lon="6.21201">
        <ele>1548.82</ele>
        <time>2019-06-12T13:12:14Z</time>
      </trkpt>
      <trkpt lat="44.63782" lon="6.21187">
        <ele>1545.94</ele>
        <time>2019-06-12T13:12:29Z</time>
      </trkpt>
      <trkpt lat="44.6377" lon="6.21173">
        <ele>1543.05</ele>
        <time>2019-06-12T13:12:47Z</time>
      </trkpt>
      <trkpt lat="44.63757" lon="6.21158">
        <ele>1540.65</ele>
        <time>2019-06-12T13:13:06Z</time>
      </trkpt>
      <trkpt lat="44.63753" lon="6.2115">
        <ele>1538.73</ele>
        <time>2019-06-12T13:13:19Z</time>
      </trkpt>
      <trkpt lat="44.63752" lon="6.21149">
        <ele>1538.73</ele>
        <time>2019-06-12T13:13:20Z</time>
      </trkpt>
      <trkpt lat="44.63749" lon="6.21146">
        <ele>1537.77</ele>
        <time>2019-06-12T13:13:30Z</time>
      </trkpt>
      <trkpt lat="44.63748" lon="6.21145">
        <ele>1537.77</ele>
        <time>2019-06-12T13:13:47Z</time>
      </trkpt>
      <trkpt lat="44.63746" lon="6.21142">
        <ele>1537.77</ele>
        <time>2019-06-12T13:13:53Z</time>
      </trkpt>
      <trkpt lat="44.63743" lon="6.21141">
        <ele>1537.29</ele>
        <time>2019-06-12T13:14:02Z</time>
      </trkpt>
      <trkpt lat="44.63742" lon="6.21134">
        <ele>1536.32</ele>
        <time>2019-06-12T13:14:11Z</time>
      </trkpt>
      <trkpt lat="44.63736" lon="6.21129">
        <ele>1535.84</ele>
        <time>2019-06-12T13:14:24Z</time>
      </trkpt>
      <trkpt lat="44.63734" lon="6.21129">
        <ele>1535.36</ele>
        <time>2019-06-12T13:14:25Z</time>
      </trkpt>
      <trkpt lat="44.63733" lon="6.21127">
        <ele>1535.36</ele>
        <time>2019-06-12T13:14:38Z</time>
      </trkpt>
      <trkpt lat="44.63732" lon="6.21129">
        <ele>1537.29</ele>
        <time>2019-06-12T13:14:45Z</time>
      </trkpt>
      <trkpt lat="44.63732" lon="6.21129">
        <ele>1534.88</ele>
        <time>2019-06-12T13:14:47Z</time>
      </trkpt>
      <trkpt lat="44.63732" lon="6.2113">
        <ele>1536.32</ele>
        <time>2019-06-12T13:14:48Z</time>
      </trkpt>
      <trkpt lat="44.63735" lon="6.21132">
        <ele>1536.32</ele>
        <time>2019-06-12T13:15:07Z</time>
      </trkpt>
      <trkpt lat="44.63731" lon="6.21127">
        <ele>1536.32</ele>
        <time>2019-06-12T13:15:27Z</time>
      </trkpt>
      <trkpt lat="44.63733" lon="6.21129">
        <ele>1536.32</ele>
        <time>2019-06-12T13:15:49Z</time>
      </trkpt>
      <trkpt lat="44.63734" lon="6.21129">
        <ele>1536.32</ele>
        <time>2019-06-12T13:16:10Z</time>
      </trkpt>
      <trkpt lat="44.63734" lon="6.2113">
        <ele>1536.32</ele>
        <time>2019-06-12T13:16:30Z</time>
      </trkpt>
      <trkpt lat="44.63732" lon="6.21128">
        <ele>1536.32</ele>
        <time>2019-06-12T13:16:58Z</time>
      </trkpt>
      <trkpt lat="44.63732" lon="6.21129">
        <ele>1536.32</ele>
        <time>2019-06-12T13:17:22Z</time>
      </trkpt>
      <trkpt lat="44.63732" lon="6.21133">
        <ele>1535.36</ele>
        <time>2019-06-12T13:17:47Z</time>
      </trkpt>
      <trkpt lat="44.63728" lon="6.21131">
        <ele>1535.36</ele>
        <time>2019-06-12T13:18:13Z</time>
      </trkpt>
      <trkpt lat="44.63728" lon="6.21129">
        <ele>1535.36</ele>
        <time>2019-06-12T13:18:44Z</time>
      </trkpt>
      <trkpt lat="44.63729" lon="6.21133">
        <ele>1534.88</ele>
        <time>2019-06-12T13:19:10Z</time>
      </trkpt>
      <trkpt lat="44.63727" lon="6.21133">
        <ele>1534.88</ele>
        <time>2019-06-12T13:19:40Z</time>
      </trkpt>
      <trkpt lat="44.63732" lon="6.21133">
        <ele>1534.88</ele>
        <time>2019-06-12T13:20:00Z</time>
      </trkpt>
      <trkpt lat="44.63732" lon="6.21132">
        <ele>1534.88</ele>
        <time>2019-06-12T13:20:27Z</time>
      </trkpt>
      <trkpt lat="44.63732" lon="6.2113">
        <ele>1534.88</ele>
        <time>2019-06-12T13:20:49Z</time>
      </trkpt>
      <trkpt lat="44.63731" lon="6.2113">
        <ele>1534.88</ele>
        <time>2019-06-12T13:21:10Z</time>
      </trkpt>
      <trkpt lat="44.63731" lon="6.21131">
        <ele>1535.84</ele>
        <time>2019-06-12T13:21:31Z</time>
      </trkpt>
      <trkpt lat="44.63729" lon="6.21122">
        <ele>1534.4</ele>
        <time>2019-06-12T13:21:49Z</time>
      </trkpt>
      <trkpt lat="44.63716" lon="6.21108">
        <ele>1532.48</ele>
        <time>2019-06-12T13:22:03Z</time>
      </trkpt>
      <trkpt lat="44.63698" lon="6.21095">
        <ele>1530.08</ele>
        <time>2019-06-12T13:22:18Z</time>
      </trkpt>
      <trkpt lat="44.63689" lon="6.21088">
        <ele>1529.11</ele>
        <time>2019-06-12T13:22:30Z</time>
      </trkpt>
      <trkpt lat="44.63687" lon="6.21088">
        <ele>1529.11</ele>
        <time>2019-06-12T13:22:32Z</time>
      </trkpt>
      <trkpt lat="44.63685" lon="6.21088">
        <ele>1528.63</ele>
        <time>2019-06-12T13:22:33Z</time>
      </trkpt>
      <trkpt lat="44.63683" lon="6.21088">
        <ele>1528.63</ele>
        <time>2019-06-12T13:22:34Z</time>
      </trkpt>
      <trkpt lat="44.63681" lon="6.21088">
        <ele>1528.63</ele>
        <time>2019-06-12T13:22:35Z</time>
      </trkpt>
      <trkpt lat="44.63679" lon="6.21087">
        <ele>1528.63</ele>
        <time>2019-06-12T13:22:36Z</time>
      </trkpt>
      <trkpt lat="44.63678" lon="6.21086">
        <ele>1528.15</ele>
        <time>2019-06-12T13:22:37Z</time>
      </trkpt>
      <trkpt lat="44.63666" lon="6.21078">
        <ele>1526.23</ele>
        <time>2019-06-12T13:22:46Z</time>
      </trkpt>
      <trkpt lat="44.63664" lon="6.21078">
        <ele>1526.23</ele>
        <time>2019-06-12T13:22:48Z</time>
      </trkpt>
      <trkpt lat="44.63662" lon="6.21076">
        <ele>1526.23</ele>
        <time>2019-06-12T13:22:49Z</time>
      </trkpt>
      <trkpt lat="44.63661" lon="6.21075">
        <ele>1525.27</ele>
        <time>2019-06-12T13:22:50Z</time>
      </trkpt>
      <trkpt lat="44.63659" lon="6.21073">
        <ele>1525.27</ele>
        <time>2019-06-12T13:22:51Z</time>
      </trkpt>
      <trkpt lat="44.63656" lon="6.21071">
        <ele>1526.23</ele>
        <time>2019-06-12T13:22:54Z</time>
      </trkpt>
      <trkpt lat="44.63641" lon="6.2106">
        <ele>1523.83</ele>
        <time>2019-06-12T13:23:04Z</time>
      </trkpt>
      <trkpt lat="44.63639" lon="6.21058">
        <ele>1522.87</ele>
        <time>2019-06-12T13:23:05Z</time>
      </trkpt>
      <trkpt lat="44.63635" lon="6.21053">
        <ele>1521.9</ele>
        <time>2019-06-12T13:23:11Z</time>
      </trkpt>
      <trkpt lat="44.63632" lon="6.21051">
        <ele>1521.9</ele>
        <time>2019-06-12T13:23:12Z</time>
      </trkpt>
      <trkpt lat="44.63629" lon="6.2105">
        <ele>1520.94</ele>
        <time>2019-06-12T13:23:13Z</time>
      </trkpt>
      <trkpt lat="44.63627" lon="6.2105">
        <ele>1520.94</ele>
        <time>2019-06-12T13:23:14Z</time>
      </trkpt>
      <trkpt lat="44.63625" lon="6.21049">
        <ele>1520.46</ele>
        <time>2019-06-12T13:23:15Z</time>
      </trkpt>
      <trkpt lat="44.63624" lon="6.21048">
        <ele>1520.46</ele>
        <time>2019-06-12T13:23:16Z</time>
      </trkpt>
      <trkpt lat="44.63613" lon="6.2104">
        <ele>1519.02</ele>
        <time>2019-06-12T13:23:26Z</time>
      </trkpt>
      <trkpt lat="44.63611" lon="6.2104">
        <ele>1518.06</ele>
        <time>2019-06-12T13:23:27Z</time>
      </trkpt>
      <trkpt lat="44.63609" lon="6.2104">
        <ele>1518.54</ele>
        <time>2019-06-12T13:23:28Z</time>
      </trkpt>
      <trkpt lat="44.63606" lon="6.2104">
        <ele>1518.54</ele>
        <time>2019-06-12T13:23:30Z</time>
      </trkpt>
      <trkpt lat="44.63604" lon="6.21039">
        <ele>1518.54</ele>
        <time>2019-06-12T13:23:31Z</time>
      </trkpt>
      <trkpt lat="44.63603" lon="6.21037">
        <ele>1518.06</ele>
        <time>2019-06-12T13:23:32Z</time>
      </trkpt>
      <trkpt lat="44.63601" lon="6.21035">
        <ele>1517.58</ele>
        <time>2019-06-12T13:23:35Z</time>
      </trkpt>
      <trkpt lat="44.636" lon="6.21034">
        <ele>1517.58</ele>
        <time>2019-06-12T13:23:36Z</time>
      </trkpt>
      <trkpt lat="44.63599" lon="6.21033">
        <ele>1517.58</ele>
        <time>2019-06-12T13:23:37Z</time>
      </trkpt>
      <trkpt lat="44.63597" lon="6.21033">
        <ele>1517.58</ele>
        <time>2019-06-12T13:23:38Z</time>
      </trkpt>
      <trkpt lat="44.63596" lon="6.21032">
        <ele>1517.1</ele>
        <time>2019-06-12T13:23:39Z</time>
      </trkpt>
      <trkpt lat="44.63594" lon="6.21031">
        <ele>1517.1</ele>
        <time>2019-06-12T13:23:40Z</time>
      </trkpt>
      <trkpt lat="44.63592" lon="6.21032">
        <ele>1516.62</ele>
        <time>2019-06-12T13:23:41Z</time>
      </trkpt>
      <trkpt lat="44.6359" lon="6.21032">
        <ele>1516.62</ele>
        <time>2019-06-12T13:23:42Z</time>
      </trkpt>
      <trkpt lat="44.63583" lon="6.2103">
        <ele>1514.69</ele>
        <time>2019-06-12T13:23:50Z</time>
      </trkpt>
      <trkpt lat="44.63581" lon="6.2103">
        <ele>1514.21</ele>
        <time>2019-06-12T13:23:51Z</time>
      </trkpt>
      <trkpt lat="44.63579" lon="6.21029">
        <ele>1514.21</ele>
        <time>2019-06-12T13:23:52Z</time>
      </trkpt>
      <trkpt lat="44.63577" lon="6.21029">
        <ele>1514.21</ele>
        <time>2019-06-12T13:23:53Z</time>
      </trkpt>
      <trkpt lat="44.63575" lon="6.21029">
        <ele>1514.69</ele>
        <time>2019-06-12T13:23:54Z</time>
      </trkpt>
      <trkpt lat="44.63574" lon="6.21029">
        <ele>1514.69</ele>
        <time>2019-06-12T13:23:55Z</time>
      </trkpt>
      <trkpt lat="44.63572" lon="6.21029">
        <ele>1514.21</ele>
        <time>2019-06-12T13:23:56Z</time>
      </trkpt>
      <trkpt lat="44.6357" lon="6.2103">
        <ele>1514.21</ele>
        <time>2019-06-12T13:23:57Z</time>
      </trkpt>
      <trkpt lat="44.63569" lon="6.2103">
        <ele>1513.73</ele>
        <time>2019-06-12T13:23:58Z</time>
      </trkpt>
      <trkpt lat="44.63568" lon="6.2103">
        <ele>1513.73</ele>
        <time>2019-06-12T13:23:59Z</time>
      </trkpt>
      <trkpt lat="44.63566" lon="6.2103">
        <ele>1513.25</ele>
        <time>2019-06-12T13:24:00Z</time>
      </trkpt>
      <trkpt lat="44.63565" lon="6.2103">
        <ele>1513.25</ele>
        <time>2019-06-12T13:24:01Z</time>
      </trkpt>
      <trkpt lat="44.63564" lon="6.2103">
        <ele>1513.25</ele>
        <time>2019-06-12T13:24:02Z</time>
      </trkpt>
      <trkpt lat="44.63564" lon="6.21026">
        <ele>1512.77</ele>
        <time>2019-06-12T13:24:12Z</time>
      </trkpt>
      <trkpt lat="44.63566" lon="6.21023">
        <ele>1512.29</ele>
        <time>2019-06-12T13:24:21Z</time>
      </trkpt>
      <trkpt lat="44.63567" lon="6.21021">
        <ele>1512.29</ele>
        <time>2019-06-12T13:24:22Z</time>
      </trkpt>
      <trkpt lat="44.63567" lon="6.2102">
        <ele>1512.29</ele>
        <time>2019-06-12T13:24:23Z</time>
      </trkpt>
      <trkpt lat="44.63568" lon="6.21018">
        <ele>1512.29</ele>
        <time>2019-06-12T13:24:24Z</time>
      </trkpt>
      <trkpt lat="44.63576" lon="6.21014">
        <ele>1510.85</ele>
        <time>2019-06-12T13:24:35Z</time>
      </trkpt>
      <trkpt lat="44.6358" lon="6.21013">
        <ele>1509.41</ele>
        <time>2019-06-12T13:24:45Z</time>
      </trkpt>
      <trkpt lat="44.63589" lon="6.21009">
        <ele>1508.93</ele>
        <time>2019-06-12T13:24:51Z</time>
      </trkpt>
      <trkpt lat="44.63594" lon="6.21012">
        <ele>1507.48</ele>
        <time>2019-06-12T13:25:02Z</time>
      </trkpt>
      <trkpt lat="44.63598" lon="6.21011">
        <ele>1507.48</ele>
        <time>2019-06-12T13:25:05Z</time>
      </trkpt>
      <trkpt lat="44.63602" lon="6.21009">
        <ele>1507</ele>
        <time>2019-06-12T13:25:07Z</time>
      </trkpt>
      <trkpt lat="44.63604" lon="6.21006">
        <ele>1507</ele>
        <time>2019-06-12T13:25:08Z</time>
      </trkpt>
      <trkpt lat="44.63607" lon="6.21004">
        <ele>1507</ele>
        <time>2019-06-12T13:25:09Z</time>
      </trkpt>
      <trkpt lat="44.63611" lon="6.21001">
        <ele>1506.52</ele>
        <time>2019-06-12T13:25:10Z</time>
      </trkpt>
      <trkpt lat="44.63614" lon="6.20998">
        <ele>1506.52</ele>
        <time>2019-06-12T13:25:11Z</time>
      </trkpt>
      <trkpt lat="44.63623" lon="6.20996">
        <ele>1506.04</ele>
        <time>2019-06-12T13:25:14Z</time>
      </trkpt>
      <trkpt lat="44.63624" lon="6.20993">
        <ele>1506.04</ele>
        <time>2019-06-12T13:25:15Z</time>
      </trkpt>
      <trkpt lat="44.63625" lon="6.2099">
        <ele>1505.56</ele>
        <time>2019-06-12T13:25:16Z</time>
      </trkpt>
      <trkpt lat="44.63625" lon="6.20987">
        <ele>1505.56</ele>
        <time>2019-06-12T13:25:17Z</time>
      </trkpt>
      <trkpt lat="44.63626" lon="6.20985">
        <ele>1505.56</ele>
        <time>2019-06-12T13:25:18Z</time>
      </trkpt>
      <trkpt lat="44.63625" lon="6.20983">
        <ele>1505.08</ele>
        <time>2019-06-12T13:25:19Z</time>
      </trkpt>
      <trkpt lat="44.63624" lon="6.20982">
        <ele>1505.08</ele>
        <time>2019-06-12T13:25:20Z</time>
      </trkpt>
      <trkpt lat="44.63617" lon="6.20978">
        <ele>1503.64</ele>
        <time>2019-06-12T13:25:29Z</time>
      </trkpt>
      <trkpt lat="44.63609" lon="6.20967">
        <ele>1500.76</ele>
        <time>2019-06-12T13:25:39Z</time>
      </trkpt>
      <trkpt lat="44.63603" lon="6.20958">
        <ele>1497.87</ele>
        <time>2019-06-12T13:25:48Z</time>
      </trkpt>
      <trkpt lat="44.63595" lon="6.20946">
        <ele>1494.51</ele>
        <time>2019-06-12T13:26:02Z</time>
      </trkpt>
      <trkpt lat="44.63587" lon="6.20931">
        <ele>1491.14</ele>
        <time>2019-06-12T13:26:16Z</time>
      </trkpt>
      <trkpt lat="44.63579" lon="6.20914">
        <ele>1488.26</ele>
        <time>2019-06-12T13:26:28Z</time>
      </trkpt>
      <trkpt lat="44.63574" lon="6.20898">
        <ele>1484.89</ele>
        <time>2019-06-12T13:26:41Z</time>
      </trkpt>
      <trkpt lat="44.63568" lon="6.20883">
        <ele>1481.53</ele>
        <time>2019-06-12T13:26:54Z</time>
      </trkpt>
      <trkpt lat="44.63558" lon="6.20861">
        <ele>1478.16</ele>
        <time>2019-06-12T13:27:11Z</time>
      </trkpt>
      <trkpt lat="44.63554" lon="6.20844">
        <ele>1474.8</ele>
        <time>2019-06-12T13:27:24Z</time>
      </trkpt>
      <trkpt lat="44.63553" lon="6.20825">
        <ele>1471.92</ele>
        <time>2019-06-12T13:27:38Z</time>
      </trkpt>
      <trkpt lat="44.63563" lon="6.20816">
        <ele>1468.55</ele>
        <time>2019-06-12T13:27:53Z</time>
      </trkpt>
      <trkpt lat="44.63576" lon="6.20815">
        <ele>1467.11</ele>
        <time>2019-06-12T13:28:10Z</time>
      </trkpt>
      <trkpt lat="44.63573" lon="6.20795">
        <ele>1463.74</ele>
        <time>2019-06-12T13:28:25Z</time>
      </trkpt>
      <trkpt lat="44.6357" lon="6.20777">
        <ele>1461.34</ele>
        <time>2019-06-12T13:28:39Z</time>
      </trkpt>
      <trkpt lat="44.6357" lon="6.2077">
        <ele>1459.42</ele>
        <time>2019-06-12T13:28:46Z</time>
      </trkpt>
      <trkpt lat="44.63569" lon="6.20767">
        <ele>1459.42</ele>
        <time>2019-06-12T13:28:48Z</time>
      </trkpt>
      <trkpt lat="44.63569" lon="6.20759">
        <ele>1458.94</ele>
        <time>2019-06-12T13:28:54Z</time>
      </trkpt>
      <trkpt lat="44.63569" lon="6.20758">
        <ele>1458.46</ele>
        <time>2019-06-12T13:28:55Z</time>
      </trkpt>
      <trkpt lat="44.63569" lon="6.20751">
        <ele>1457.02</ele>
        <time>2019-06-12T13:29:00Z</time>
      </trkpt>
      <trkpt lat="44.63567" lon="6.20744">
        <ele>1456.05</ele>
        <time>2019-06-12T13:29:14Z</time>
      </trkpt>
      <trkpt lat="44.63568" lon="6.2074">
        <ele>1455.09</ele>
        <time>2019-06-12T13:29:19Z</time>
      </trkpt>
      <trkpt lat="44.63569" lon="6.20728">
        <ele>1453.65</ele>
        <time>2019-06-12T13:29:33Z</time>
      </trkpt>
      <trkpt lat="44.6357" lon="6.20708">
        <ele>1451.25</ele>
        <time>2019-06-12T13:29:49Z</time>
      </trkpt>
      <trkpt lat="44.63571" lon="6.2069">
        <ele>1448.84</ele>
        <time>2019-06-12T13:30:04Z</time>
      </trkpt>
      <trkpt lat="44.6357" lon="6.20668">
        <ele>1445.96</ele>
        <time>2019-06-12T13:30:18Z</time>
      </trkpt>
      <trkpt lat="44.63572" lon="6.20648">
        <ele>1443.08</ele>
        <time>2019-06-12T13:30:33Z</time>
      </trkpt>
      <trkpt lat="44.63572" lon="6.20641">
        <ele>1442.11</ele>
        <time>2019-06-12T13:30:39Z</time>
      </trkpt>
      <trkpt lat="44.63572" lon="6.20639">
        <ele>1442.11</ele>
        <time>2019-06-12T13:30:40Z</time>
      </trkpt>
      <trkpt lat="44.63573" lon="6.20633">
        <ele>1441.15</ele>
        <time>2019-06-12T13:30:44Z</time>
      </trkpt>
      <trkpt lat="44.63573" lon="6.2063">
        <ele>1441.15</ele>
        <time>2019-06-12T13:30:46Z</time>
      </trkpt>
      <trkpt lat="44.63572" lon="6.20628">
        <ele>1441.15</ele>
        <time>2019-06-12T13:30:47Z</time>
      </trkpt>
      <trkpt lat="44.63572" lon="6.20627">
        <ele>1440.67</ele>
        <time>2019-06-12T13:30:48Z</time>
      </trkpt>
      <trkpt lat="44.63573" lon="6.20622">
        <ele>1440.19</ele>
        <time>2019-06-12T13:30:51Z</time>
      </trkpt>
      <trkpt lat="44.63572" lon="6.2062">
        <ele>1440.19</ele>
        <time>2019-06-12T13:30:52Z</time>
      </trkpt>
      <trkpt lat="44.63572" lon="6.20618">
        <ele>1440.19</ele>
        <time>2019-06-12T13:30:53Z</time>
      </trkpt>
      <trkpt lat="44.63572" lon="6.20616">
        <ele>1439.71</ele>
        <time>2019-06-12T13:30:54Z</time>
      </trkpt>
      <trkpt lat="44.63573" lon="6.20604">
        <ele>1438.27</ele>
        <time>2019-06-12T13:31:03Z</time>
      </trkpt>
      <trkpt lat="44.63573" lon="6.20588">
        <ele>1435.39</ele>
        <time>2019-06-12T13:31:17Z</time>
      </trkpt>
      <trkpt lat="44.63571" lon="6.20582">
        <ele>1433.94</ele>
        <time>2019-06-12T13:31:22Z</time>
      </trkpt>
      <trkpt lat="44.6357" lon="6.20564">
        <ele>1432.5</ele>
        <time>2019-06-12T13:31:34Z</time>
      </trkpt>
      <trkpt lat="44.63571" lon="6.2054">
        <ele>1429.62</ele>
        <time>2019-06-12T13:31:50Z</time>
      </trkpt>
      <trkpt lat="44.6357" lon="6.20515">
        <ele>1426.73</ele>
        <time>2019-06-12T13:32:06Z</time>
      </trkpt>
      <trkpt lat="44.63566" lon="6.2049">
        <ele>1424.81</ele>
        <time>2019-06-12T13:32:19Z</time>
      </trkpt>
      <trkpt lat="44.63567" lon="6.20482">
        <ele>1423.85</ele>
        <time>2019-06-12T13:32:24Z</time>
      </trkpt>
      <trkpt lat="44.63569" lon="6.2048">
        <ele>1423.85</ele>
        <time>2019-06-12T13:32:25Z</time>
      </trkpt>
      <trkpt lat="44.6357" lon="6.20482">
        <ele>1423.85</ele>
        <time>2019-06-12T13:32:32Z</time>
      </trkpt>
      <trkpt lat="44.63569" lon="6.20477">
        <ele>1423.37</ele>
        <time>2019-06-12T13:32:41Z</time>
      </trkpt>
      <trkpt lat="44.63566" lon="6.20471">
        <ele>1422.41</ele>
        <time>2019-06-12T13:32:55Z</time>
      </trkpt>
      <trkpt lat="44.63564" lon="6.20468">
        <ele>1422.41</ele>
        <time>2019-06-12T13:33:26Z</time>
      </trkpt>
      <trkpt lat="44.63562" lon="6.2045">
        <ele>1420.49</ele>
        <time>2019-06-12T13:33:43Z</time>
      </trkpt>
      <trkpt lat="44.63561" lon="6.20443">
        <ele>1420.49</ele>
        <time>2019-06-12T13:33:48Z</time>
      </trkpt>
      <trkpt lat="44.63562" lon="6.20441">
        <ele>1419.04</ele>
        <time>2019-06-12T13:33:56Z</time>
      </trkpt>
      <trkpt lat="44.63562" lon="6.20437">
        <ele>1419.04</ele>
        <time>2019-06-12T13:33:59Z</time>
      </trkpt>
      <trkpt lat="44.63561" lon="6.20434">
        <ele>1419.04</ele>
        <time>2019-06-12T13:34:00Z</time>
      </trkpt>
      <trkpt lat="44.6356" lon="6.20432">
        <ele>1419.04</ele>
        <time>2019-06-12T13:34:01Z</time>
      </trkpt>
      <trkpt lat="44.6355" lon="6.20409">
        <ele>1417.6</ele>
        <time>2019-06-12T13:34:13Z</time>
      </trkpt>
      <trkpt lat="44.63548" lon="6.2041">
        <ele>1415.68</ele>
        <time>2019-06-12T13:34:26Z</time>
      </trkpt>
      <trkpt lat="44.63546" lon="6.20409">
        <ele>1415.2</ele>
        <time>2019-06-12T13:34:27Z</time>
      </trkpt>
      <trkpt lat="44.63545" lon="6.20409">
        <ele>1415.2</ele>
        <time>2019-06-12T13:34:28Z</time>
      </trkpt>
      <trkpt lat="44.63543" lon="6.20409">
        <ele>1414.72</ele>
        <time>2019-06-12T13:34:29Z</time>
      </trkpt>
      <trkpt lat="44.6354" lon="6.20409">
        <ele>1414.72</ele>
        <time>2019-06-12T13:34:30Z</time>
      </trkpt>
      <trkpt lat="44.63523" lon="6.20407">
        <ele>1413.76</ele>
        <time>2019-06-12T13:34:40Z</time>
      </trkpt>
      <trkpt lat="44.63522" lon="6.20407">
        <ele>1412.31</ele>
        <time>2019-06-12T13:34:49Z</time>
      </trkpt>
      <trkpt lat="44.6352" lon="6.20407">
        <ele>1411.83</ele>
        <time>2019-06-12T13:34:51Z</time>
      </trkpt>
      <trkpt lat="44.63517" lon="6.20407">
        <ele>1411.35</ele>
        <time>2019-06-12T13:34:54Z</time>
      </trkpt>
      <trkpt lat="44.63515" lon="6.20407">
        <ele>1411.35</ele>
        <time>2019-06-12T13:34:55Z</time>
      </trkpt>
      <trkpt lat="44.63514" lon="6.20408">
        <ele>1411.35</ele>
        <time>2019-06-12T13:34:56Z</time>
      </trkpt>
      <trkpt lat="44.63512" lon="6.20409">
        <ele>1411.35</ele>
        <time>2019-06-12T13:34:57Z</time>
      </trkpt>
      <trkpt lat="44.6351" lon="6.2041">
        <ele>1411.35</ele>
        <time>2019-06-12T13:34:58Z</time>
      </trkpt>
      <trkpt lat="44.63508" lon="6.2041">
        <ele>1411.35</ele>
        <time>2019-06-12T13:34:59Z</time>
      </trkpt>
      <trkpt lat="44.63506" lon="6.20411">
        <ele>1410.87</ele>
        <time>2019-06-12T13:35:00Z</time>
      </trkpt>
      <trkpt lat="44.63494" lon="6.20414">
        <ele>1409.91</ele>
        <time>2019-06-12T13:35:11Z</time>
      </trkpt>
      <trkpt lat="44.63486" lon="6.20421">
        <ele>1408.95</ele>
        <time>2019-06-12T13:35:21Z</time>
      </trkpt>
      <trkpt lat="44.63473" lon="6.20438">
        <ele>1408.47</ele>
        <time>2019-06-12T13:35:31Z</time>
      </trkpt>
      <trkpt lat="44.63471" lon="6.20439">
        <ele>1408.47</ele>
        <time>2019-06-12T13:35:32Z</time>
      </trkpt>
      <trkpt lat="44.6347" lon="6.20439">
        <ele>1408.47</ele>
        <time>2019-06-12T13:35:33Z</time>
      </trkpt>
      <trkpt lat="44.63465" lon="6.20437">
        <ele>1407.03</ele>
        <time>2019-06-12T13:35:42Z</time>
      </trkpt>
      <trkpt lat="44.63464" lon="6.20436">
        <ele>1407.03</ele>
        <time>2019-06-12T13:35:43Z</time>
      </trkpt>
      <trkpt lat="44.63462" lon="6.20437">
        <ele>1407.03</ele>
        <time>2019-06-12T13:35:45Z</time>
      </trkpt>
      <trkpt lat="44.63461" lon="6.20439">
        <ele>1407.03</ele>
        <time>2019-06-12T13:35:46Z</time>
      </trkpt>
      <trkpt lat="44.63448" lon="6.2045">
        <ele>1406.07</ele>
        <time>2019-06-12T13:35:56Z</time>
      </trkpt>
      <trkpt lat="44.6344" lon="6.20454">
        <ele>1405.1</ele>
        <time>2019-06-12T13:36:06Z</time>
      </trkpt>
      <trkpt lat="44.63424" lon="6.20467">
        <ele>1404.14</ele>
        <time>2019-06-12T13:36:18Z</time>
      </trkpt>
      <trkpt lat="44.63417" lon="6.20471">
        <ele>1403.18</ele>
        <time>2019-06-12T13:36:30Z</time>
      </trkpt>
      <trkpt lat="44.63414" lon="6.20474">
        <ele>1403.18</ele>
        <time>2019-06-12T13:36:32Z</time>
      </trkpt>
      <trkpt lat="44.63397" lon="6.20491">
        <ele>1401.74</ele>
        <time>2019-06-12T13:36:45Z</time>
      </trkpt>
      <trkpt lat="44.63393" lon="6.20486">
        <ele>1398.86</ele>
        <time>2019-06-12T13:37:00Z</time>
      </trkpt>
      <trkpt lat="44.63387" lon="6.20482">
        <ele>1397.41</ele>
        <time>2019-06-12T13:37:10Z</time>
      </trkpt>
      <trkpt lat="44.63383" lon="6.20482">
        <ele>1397.41</ele>
        <time>2019-06-12T13:37:11Z</time>
      </trkpt>
      <trkpt lat="44.63377" lon="6.20481">
        <ele>1396.93</ele>
        <time>2019-06-12T13:37:13Z</time>
      </trkpt>
      <trkpt lat="44.63375" lon="6.20481">
        <ele>1396.93</ele>
        <time>2019-06-12T13:37:14Z</time>
      </trkpt>
      <trkpt lat="44.6337" lon="6.2048">
        <ele>1396.93</ele>
        <time>2019-06-12T13:37:19Z</time>
      </trkpt>
      <trkpt lat="44.63368" lon="6.2048">
        <ele>1396.93</ele>
        <time>2019-06-12T13:37:20Z</time>
      </trkpt>
      <trkpt lat="44.63366" lon="6.20481">
        <ele>1396.93</ele>
        <time>2019-06-12T13:37:21Z</time>
      </trkpt>
      <trkpt lat="44.63365" lon="6.20481">
        <ele>1396.93</ele>
        <time>2019-06-12T13:37:22Z</time>
      </trkpt>
      <trkpt lat="44.63363" lon="6.20482">
        <ele>1396.93</ele>
        <time>2019-06-12T13:37:23Z</time>
      </trkpt>
      <trkpt lat="44.63361" lon="6.20483">
        <ele>1396.93</ele>
        <time>2019-06-12T13:37:24Z</time>
      </trkpt>
      <trkpt lat="44.63359" lon="6.20483">
        <ele>1396.45</ele>
        <time>2019-06-12T13:37:25Z</time>
      </trkpt>
      <trkpt lat="44.63354" lon="6.20486">
        <ele>1396.45</ele>
        <time>2019-06-12T13:37:28Z</time>
      </trkpt>
      <trkpt lat="44.63351" lon="6.20486">
        <ele>1396.45</ele>
        <time>2019-06-12T13:37:29Z</time>
      </trkpt>
      <trkpt lat="44.63342" lon="6.20483">
        <ele>1396.45</ele>
        <time>2019-06-12T13:37:42Z</time>
      </trkpt>
      <trkpt lat="44.6334" lon="6.20483">
        <ele>1396.45</ele>
        <time>2019-06-12T13:37:43Z</time>
      </trkpt>
      <trkpt lat="44.63338" lon="6.20484">
        <ele>1395.97</ele>
        <time>2019-06-12T13:37:44Z</time>
      </trkpt>
      <trkpt lat="44.63336" lon="6.20485">
        <ele>1395.97</ele>
        <time>2019-06-12T13:37:45Z</time>
      </trkpt>
      <trkpt lat="44.63334" lon="6.20485">
        <ele>1395.97</ele>
        <time>2019-06-12T13:37:46Z</time>
      </trkpt>
      <trkpt lat="44.63317" lon="6.2049">
        <ele>1395.97</ele>
        <time>2019-06-12T13:37:59Z</time>
      </trkpt>
      <trkpt lat="44.63315" lon="6.20488">
        <ele>1395.49</ele>
        <time>2019-06-12T13:38:03Z</time>
      </trkpt>
      <trkpt lat="44.63308" lon="6.2049">
        <ele>1395.49</ele>
        <time>2019-06-12T13:38:10Z</time>
      </trkpt>
      <trkpt lat="44.63307" lon="6.20491">
        <ele>1395.49</ele>
        <time>2019-06-12T13:38:11Z</time>
      </trkpt>
      <trkpt lat="44.63305" lon="6.20492">
        <ele>1395.49</ele>
        <time>2019-06-12T13:38:12Z</time>
      </trkpt>
      <trkpt lat="44.63304" lon="6.20493">
        <ele>1395.49</ele>
        <time>2019-06-12T13:38:13Z</time>
      </trkpt>
      <trkpt lat="44.63303" lon="6.20494">
        <ele>1395.01</ele>
        <time>2019-06-12T13:38:14Z</time>
      </trkpt>
      <trkpt lat="44.63285" lon="6.20509">
        <ele>1394.53</ele>
        <time>2019-06-12T13:38:26Z</time>
      </trkpt>
      <trkpt lat="44.63271" lon="6.2052">
        <ele>1392.13</ele>
        <time>2019-06-12T13:38:38Z</time>
      </trkpt>
      <trkpt lat="44.63268" lon="6.20516">
        <ele>1391.65</ele>
        <time>2019-06-12T13:38:45Z</time>
      </trkpt>
      <trkpt lat="44.63267" lon="6.20517">
        <ele>1391.17</ele>
        <time>2019-06-12T13:38:46Z</time>
      </trkpt>
      <trkpt lat="44.63266" lon="6.20518">
        <ele>1391.17</ele>
        <time>2019-06-12T13:38:47Z</time>
      </trkpt>
      <trkpt lat="44.63265" lon="6.2052">
        <ele>1391.17</ele>
        <time>2019-06-12T13:38:48Z</time>
      </trkpt>
      <trkpt lat="44.63264" lon="6.20522">
        <ele>1391.17</ele>
        <time>2019-06-12T13:38:49Z</time>
      </trkpt>
      <trkpt lat="44.63263" lon="6.20524">
        <ele>1391.17</ele>
        <time>2019-06-12T13:38:50Z</time>
      </trkpt>
      <trkpt lat="44.63262" lon="6.20525">
        <ele>1391.17</ele>
        <time>2019-06-12T13:38:51Z</time>
      </trkpt>
      <trkpt lat="44.63261" lon="6.20526">
        <ele>1390.68</ele>
        <time>2019-06-12T13:38:52Z</time>
      </trkpt>
      <trkpt lat="44.6326" lon="6.20527">
        <ele>1390.68</ele>
        <time>2019-06-12T13:38:53Z</time>
      </trkpt>
      <trkpt lat="44.63259" lon="6.20527">
        <ele>1390.2</ele>
        <time>2019-06-12T13:38:54Z</time>
      </trkpt>
      <trkpt lat="44.63258" lon="6.20527">
        <ele>1390.2</ele>
        <time>2019-06-12T13:38:55Z</time>
      </trkpt>
      <trkpt lat="44.63243" lon="6.20528">
        <ele>1388.28</ele>
        <time>2019-06-12T13:39:10Z</time>
      </trkpt>
      <trkpt lat="44.6324" lon="6.20523">
        <ele>1386.36</ele>
        <time>2019-06-12T13:39:21Z</time>
      </trkpt>
      <trkpt lat="44.63225" lon="6.20531">
        <ele>1384.92</ele>
        <time>2019-06-12T13:39:32Z</time>
      </trkpt>
      <trkpt lat="44.63208" lon="6.2054">
        <ele>1382.51</ele>
        <time>2019-06-12T13:39:42Z</time>
      </trkpt>
      <trkpt lat="44.63206" lon="6.20542">
        <ele>1382.51</ele>
        <time>2019-06-12T13:39:43Z</time>
      </trkpt>
      <trkpt lat="44.63205" lon="6.20543">
        <ele>1382.51</ele>
        <time>2019-06-12T13:39:44Z</time>
      </trkpt>
      <trkpt lat="44.63196" lon="6.20544">
        <ele>1382.03</ele>
        <time>2019-06-12T13:39:55Z</time>
      </trkpt>
      <trkpt lat="44.63184" lon="6.20549">
        <ele>1379.63</ele>
        <time>2019-06-12T13:40:06Z</time>
      </trkpt>
      <trkpt lat="44.63165" lon="6.20552">
        <ele>1377.71</ele>
        <time>2019-06-12T13:40:18Z</time>
      </trkpt>
      <trkpt lat="44.6316" lon="6.20552">
        <ele>1377.23</ele>
        <time>2019-06-12T13:40:29Z</time>
      </trkpt>
      <trkpt lat="44.63153" lon="6.20557">
        <ele>1375.78</ele>
        <time>2019-06-12T13:40:40Z</time>
      </trkpt>
      <trkpt lat="44.63143" lon="6.20563">
        <ele>1375.3</ele>
        <time>2019-06-12T13:40:52Z</time>
      </trkpt>
      <trkpt lat="44.63136" lon="6.20565">
        <ele>1374.82</ele>
        <time>2019-06-12T13:41:05Z</time>
      </trkpt>
      <trkpt lat="44.6311" lon="6.20579">
        <ele>1374.34</ele>
        <time>2019-06-12T13:41:16Z</time>
      </trkpt>
      <trkpt lat="44.63092" lon="6.2058">
        <ele>1372.9</ele>
        <time>2019-06-12T13:41:29Z</time>
      </trkpt>
      <trkpt lat="44.63087" lon="6.20585">
        <ele>1371.94</ele>
        <time>2019-06-12T13:41:40Z</time>
      </trkpt>
      <trkpt lat="44.63084" lon="6.20587">
        <ele>1371.94</ele>
        <time>2019-06-12T13:41:42Z</time>
      </trkpt>
      <trkpt lat="44.63083" lon="6.20587">
        <ele>1371.94</ele>
        <time>2019-06-12T13:41:43Z</time>
      </trkpt>
      <trkpt lat="44.6308" lon="6.20588">
        <ele>1371.94</ele>
        <time>2019-06-12T13:41:46Z</time>
      </trkpt>
      <trkpt lat="44.63079" lon="6.20589">
        <ele>1371.94</ele>
        <time>2019-06-12T13:41:47Z</time>
      </trkpt>
      <trkpt lat="44.63076" lon="6.20589">
        <ele>1371.46</ele>
        <time>2019-06-12T13:41:49Z</time>
      </trkpt>
      <trkpt lat="44.63074" lon="6.2059">
        <ele>1371.46</ele>
        <time>2019-06-12T13:41:50Z</time>
      </trkpt>
      <trkpt lat="44.63073" lon="6.2059">
        <ele>1371.46</ele>
        <time>2019-06-12T13:41:51Z</time>
      </trkpt>
      <trkpt lat="44.63057" lon="6.20598">
        <ele>1370.5</ele>
        <time>2019-06-12T13:42:02Z</time>
      </trkpt>
      <trkpt lat="44.63039" lon="6.20609">
        <ele>1369.05</ele>
        <time>2019-06-12T13:42:15Z</time>
      </trkpt>
      <trkpt lat="44.63025" lon="6.2061">
        <ele>1368.57</ele>
        <time>2019-06-12T13:42:26Z</time>
      </trkpt>
      <trkpt lat="44.6302" lon="6.20613">
        <ele>1368.57</ele>
        <time>2019-06-12T13:42:39Z</time>
      </trkpt>
      <trkpt lat="44.63017" lon="6.20615">
        <ele>1368.57</ele>
        <time>2019-06-12T13:42:42Z</time>
      </trkpt>
      <trkpt lat="44.63016" lon="6.20616">
        <ele>1368.57</ele>
        <time>2019-06-12T13:42:43Z</time>
      </trkpt>
      <trkpt lat="44.63014" lon="6.20617">
        <ele>1368.09</ele>
        <time>2019-06-12T13:42:44Z</time>
      </trkpt>
      <trkpt lat="44.63" lon="6.20633">
        <ele>1368.09</ele>
        <time>2019-06-12T13:42:55Z</time>
      </trkpt>
      <trkpt lat="44.62994" lon="6.20639">
        <ele>1367.13</ele>
        <time>2019-06-12T13:43:07Z</time>
      </trkpt>
      <trkpt lat="44.62981" lon="6.20648">
        <ele>1367.13</ele>
        <time>2019-06-12T13:43:17Z</time>
      </trkpt>
      <trkpt lat="44.62969" lon="6.2065">
        <ele>1367.13</ele>
        <time>2019-06-12T13:43:23Z</time>
      </trkpt>
      <trkpt lat="44.62968" lon="6.20651">
        <ele>1367.13</ele>
        <time>2019-06-12T13:43:24Z</time>
      </trkpt>
      <trkpt lat="44.62966" lon="6.20651">
        <ele>1366.65</ele>
        <time>2019-06-12T13:43:25Z</time>
      </trkpt>
      <trkpt lat="44.62959" lon="6.20654">
        <ele>1366.65</ele>
        <time>2019-06-12T13:43:36Z</time>
      </trkpt>
      <trkpt lat="44.62958" lon="6.20654">
        <ele>1366.65</ele>
        <time>2019-06-12T13:43:37Z</time>
      </trkpt>
      <trkpt lat="44.62956" lon="6.20655">
        <ele>1366.65</ele>
        <time>2019-06-12T13:43:38Z</time>
      </trkpt>
      <trkpt lat="44.62954" lon="6.20656">
        <ele>1366.65</ele>
        <time>2019-06-12T13:43:39Z</time>
      </trkpt>
      <trkpt lat="44.62953" lon="6.20657">
        <ele>1366.65</ele>
        <time>2019-06-12T13:43:40Z</time>
      </trkpt>
      <trkpt lat="44.62951" lon="6.20657">
        <ele>1366.65</ele>
        <time>2019-06-12T13:43:41Z</time>
      </trkpt>
      <trkpt lat="44.62949" lon="6.20659">
        <ele>1366.65</ele>
        <time>2019-06-12T13:43:42Z</time>
      </trkpt>
      <trkpt lat="44.62947" lon="6.2066">
        <ele>1366.17</ele>
        <time>2019-06-12T13:43:43Z</time>
      </trkpt>
      <trkpt lat="44.62945" lon="6.20661">
        <ele>1366.17</ele>
        <time>2019-06-12T13:43:44Z</time>
      </trkpt>
      <trkpt lat="44.62943" lon="6.20662">
        <ele>1366.17</ele>
        <time>2019-06-12T13:43:45Z</time>
      </trkpt>
      <trkpt lat="44.62942" lon="6.20663">
        <ele>1366.17</ele>
        <time>2019-06-12T13:43:46Z</time>
      </trkpt>
      <trkpt lat="44.62941" lon="6.20663">
        <ele>1366.17</ele>
        <time>2019-06-12T13:43:47Z</time>
      </trkpt>
      <trkpt lat="44.6294" lon="6.20663">
        <ele>1366.17</ele>
        <time>2019-06-12T13:43:48Z</time>
      </trkpt>
      <trkpt lat="44.62939" lon="6.20664">
        <ele>1366.17</ele>
        <time>2019-06-12T13:43:49Z</time>
      </trkpt>
      <trkpt lat="44.62916" lon="6.20675">
        <ele>1366.17</ele>
        <time>2019-06-12T13:44:01Z</time>
      </trkpt>
      <trkpt lat="44.62904" lon="6.20675">
        <ele>1365.21</ele>
        <time>2019-06-12T13:44:13Z</time>
      </trkpt>
      <trkpt lat="44.62902" lon="6.20674">
        <ele>1365.21</ele>
        <time>2019-06-12T13:44:20Z</time>
      </trkpt>
      <trkpt lat="44.62898" lon="6.20676">
        <ele>1364.25</ele>
        <time>2019-06-12T13:44:30Z</time>
      </trkpt>
      <trkpt lat="44.62874" lon="6.20695">
        <ele>1363.77</ele>
        <time>2019-06-12T13:44:45Z</time>
      </trkpt>
      <trkpt lat="44.62871" lon="6.20697">
        <ele>1363.77</ele>
        <time>2019-06-12T13:44:47Z</time>
      </trkpt>
      <trkpt lat="44.62865" lon="6.20698">
        <ele>1363.77</ele>
        <time>2019-06-12T13:45:00Z</time>
      </trkpt>
      <trkpt lat="44.62863" lon="6.207">
        <ele>1363.29</ele>
        <time>2019-06-12T13:45:15Z</time>
      </trkpt>
      <trkpt lat="44.62858" lon="6.20702">
        <ele>1363.29</ele>
        <time>2019-06-12T13:45:25Z</time>
      </trkpt>
      <trkpt lat="44.62856" lon="6.20703">
        <ele>1363.29</ele>
        <time>2019-06-12T13:45:26Z</time>
      </trkpt>
      <trkpt lat="44.62849" lon="6.20708">
        <ele>1363.29</ele>
        <time>2019-06-12T13:45:31Z</time>
      </trkpt>
      <trkpt lat="44.62844" lon="6.2071">
        <ele>1363.29</ele>
        <time>2019-06-12T13:45:40Z</time>
      </trkpt>
      <trkpt lat="44.62824" lon="6.20727">
        <ele>1362.81</ele>
        <time>2019-06-12T13:45:52Z</time>
      </trkpt>
      <trkpt lat="44.62811" lon="6.20732">
        <ele>1361.36</ele>
        <time>2019-06-12T13:46:06Z</time>
      </trkpt>
      <trkpt lat="44.62809" lon="6.20733">
        <ele>1360.88</ele>
        <time>2019-06-12T13:46:09Z</time>
      </trkpt>
      <trkpt lat="44.62808" lon="6.20734">
        <ele>1360.88</ele>
        <time>2019-06-12T13:46:10Z</time>
      </trkpt>
      <trkpt lat="44.62803" lon="6.20738">
        <ele>1360.4</ele>
        <time>2019-06-12T13:46:15Z</time>
      </trkpt>
      <trkpt lat="44.62802" lon="6.2074">
        <ele>1360.4</ele>
        <time>2019-06-12T13:46:16Z</time>
      </trkpt>
      <trkpt lat="44.62801" lon="6.20741">
        <ele>1359.92</ele>
        <time>2019-06-12T13:46:17Z</time>
      </trkpt>
      <trkpt lat="44.62801" lon="6.20742">
        <ele>1359.92</ele>
        <time>2019-06-12T13:46:18Z</time>
      </trkpt>
      <trkpt lat="44.628" lon="6.20743">
        <ele>1359.92</ele>
        <time>2019-06-12T13:46:19Z</time>
      </trkpt>
      <trkpt lat="44.62798" lon="6.20745">
        <ele>1359.92</ele>
        <time>2019-06-12T13:46:21Z</time>
      </trkpt>
      <trkpt lat="44.62776" lon="6.20755">
        <ele>1358.48</ele>
        <time>2019-06-12T13:46:35Z</time>
      </trkpt>
      <trkpt lat="44.62751" lon="6.2076">
        <ele>1358</ele>
        <time>2019-06-12T13:46:49Z</time>
      </trkpt>
      <trkpt lat="44.62743" lon="6.2076">
        <ele>1357.52</ele>
        <time>2019-06-12T13:47:01Z</time>
      </trkpt>
      <trkpt lat="44.62739" lon="6.20761">
        <ele>1357.52</ele>
        <time>2019-06-12T13:47:13Z</time>
      </trkpt>
      <trkpt lat="44.62735" lon="6.2076">
        <ele>1357.52</ele>
        <time>2019-06-12T13:47:17Z</time>
      </trkpt>
      <trkpt lat="44.62733" lon="6.20761">
        <ele>1357.52</ele>
        <time>2019-06-12T13:47:20Z</time>
      </trkpt>
      <trkpt lat="44.62731" lon="6.20763">
        <ele>1357.52</ele>
        <time>2019-06-12T13:47:21Z</time>
      </trkpt>
      <trkpt lat="44.62724" lon="6.20767">
        <ele>1357.52</ele>
        <time>2019-06-12T13:47:25Z</time>
      </trkpt>
      <trkpt lat="44.62722" lon="6.20768">
        <ele>1357.04</ele>
        <time>2019-06-12T13:47:26Z</time>
      </trkpt>
      <trkpt lat="44.6272" lon="6.20767">
        <ele>1357.04</ele>
        <time>2019-06-12T13:47:27Z</time>
      </trkpt>
      <trkpt lat="44.6272" lon="6.20763">
        <ele>1356.56</ele>
        <time>2019-06-12T13:47:40Z</time>
      </trkpt>
      <trkpt lat="44.62712" lon="6.20766">
        <ele>1358</ele>
        <time>2019-06-12T13:47:55Z</time>
      </trkpt>
      <trkpt lat="44.62711" lon="6.20765">
        <ele>1358</ele>
        <time>2019-06-12T13:47:56Z</time>
      </trkpt>
      <trkpt lat="44.62705" lon="6.20763">
        <ele>1358</ele>
        <time>2019-06-12T13:48:03Z</time>
      </trkpt>
      <trkpt lat="44.62693" lon="6.20763">
        <ele>1358</ele>
        <time>2019-06-12T13:48:15Z</time>
      </trkpt>
      <trkpt lat="44.62682" lon="6.20761">
        <ele>1358.48</ele>
        <time>2019-06-12T13:48:27Z</time>
      </trkpt>
      <trkpt lat="44.62679" lon="6.20762">
        <ele>1358.48</ele>
        <time>2019-06-12T13:48:29Z</time>
      </trkpt>
      <trkpt lat="44.62661" lon="6.20768">
        <ele>1358.48</ele>
        <time>2019-06-12T13:48:41Z</time>
      </trkpt>
      <trkpt lat="44.62656" lon="6.2077">
        <ele>1358.96</ele>
        <time>2019-06-12T13:48:49Z</time>
      </trkpt>
      <trkpt lat="44.62655" lon="6.2077">
        <ele>1358.96</ele>
        <time>2019-06-12T13:48:50Z</time>
      </trkpt>
      <trkpt lat="44.62632" lon="6.20784">
        <ele>1358.96</ele>
        <time>2019-06-12T13:49:05Z</time>
      </trkpt>
      <trkpt lat="44.62629" lon="6.20783">
        <ele>1358.96</ele>
        <time>2019-06-12T13:49:12Z</time>
      </trkpt>
      <trkpt lat="44.62628" lon="6.20784">
        <ele>1358.96</ele>
        <time>2019-06-12T13:49:13Z</time>
      </trkpt>
      <trkpt lat="44.62623" lon="6.20787">
        <ele>1358.96</ele>
        <time>2019-06-12T13:49:16Z</time>
      </trkpt>
      <trkpt lat="44.62621" lon="6.20787">
        <ele>1358.96</ele>
        <time>2019-06-12T13:49:17Z</time>
      </trkpt>
      <trkpt lat="44.62616" lon="6.20786">
        <ele>1358.96</ele>
        <time>2019-06-12T13:49:26Z</time>
      </trkpt>
      <trkpt lat="44.62605" lon="6.20789">
        <ele>1359.44</ele>
        <time>2019-06-12T13:49:36Z</time>
      </trkpt>
      <trkpt lat="44.62604" lon="6.20791">
        <ele>1359.44</ele>
        <time>2019-06-12T13:49:37Z</time>
      </trkpt>
      <trkpt lat="44.62599" lon="6.20794">
        <ele>1359.92</ele>
        <time>2019-06-12T13:49:40Z</time>
      </trkpt>
      <trkpt lat="44.62595" lon="6.20794">
        <ele>1359.92</ele>
        <time>2019-06-12T13:49:45Z</time>
      </trkpt>
      <trkpt lat="44.62591" lon="6.20794">
        <ele>1360.4</ele>
        <time>2019-06-12T13:49:50Z</time>
      </trkpt>
      <trkpt lat="44.62591" lon="6.20794">
        <ele>1360.4</ele>
        <time>2019-06-12T13:49:51Z</time>
      </trkpt>
      <trkpt lat="44.62587" lon="6.20795">
        <ele>1360.4</ele>
        <time>2019-06-12T13:49:56Z</time>
      </trkpt>
      <trkpt lat="44.62579" lon="6.20801">
        <ele>1360.88</ele>
        <time>2019-06-12T13:50:04Z</time>
      </trkpt>
      <trkpt lat="44.62578" lon="6.20804">
        <ele>1361.36</ele>
        <time>2019-06-12T13:50:06Z</time>
      </trkpt>
      <trkpt lat="44.62577" lon="6.20806">
        <ele>1361.36</ele>
        <time>2019-06-12T13:50:07Z</time>
      </trkpt>
      <trkpt lat="44.62576" lon="6.20808">
        <ele>1361.36</ele>
        <time>2019-06-12T13:50:08Z</time>
      </trkpt>
      <trkpt lat="44.62575" lon="6.2081">
        <ele>1361.36</ele>
        <time>2019-06-12T13:50:09Z</time>
      </trkpt>
      <trkpt lat="44.62575" lon="6.20812">
        <ele>1361.84</ele>
        <time>2019-06-12T13:50:10Z</time>
      </trkpt>
      <trkpt lat="44.62567" lon="6.20822">
        <ele>1362.81</ele>
        <time>2019-06-12T13:50:20Z</time>
      </trkpt>
      <trkpt lat="44.62562" lon="6.20827">
        <ele>1363.29</ele>
        <time>2019-06-12T13:50:26Z</time>
      </trkpt>
      <trkpt lat="44.62559" lon="6.20828">
        <ele>1363.29</ele>
        <time>2019-06-12T13:50:31Z</time>
      </trkpt>
      <trkpt lat="44.62558" lon="6.20833">
        <ele>1363.77</ele>
        <time>2019-06-12T13:50:36Z</time>
      </trkpt>
      <trkpt lat="44.62557" lon="6.20835">
        <ele>1363.77</ele>
        <time>2019-06-12T13:50:37Z</time>
      </trkpt>
      <trkpt lat="44.62555" lon="6.20839">
        <ele>1364.25</ele>
        <time>2019-06-12T13:50:42Z</time>
      </trkpt>
      <trkpt lat="44.62554" lon="6.20841">
        <ele>1364.25</ele>
        <time>2019-06-12T13:50:43Z</time>
      </trkpt>
      <trkpt lat="44.62552" lon="6.20842">
        <ele>1364.25</ele>
        <time>2019-06-12T13:50:44Z</time>
      </trkpt>
      <trkpt lat="44.6255" lon="6.20845">
        <ele>1364.25</ele>
        <time>2019-06-12T13:50:49Z</time>
      </trkpt>
      <trkpt lat="44.62549" lon="6.20846">
        <ele>1364.25</ele>
        <time>2019-06-12T13:50:50Z</time>
      </trkpt>
      <trkpt lat="44.62547" lon="6.20848">
        <ele>1364.25</ele>
        <time>2019-06-12T13:50:51Z</time>
      </trkpt>
      <trkpt lat="44.62546" lon="6.20849">
        <ele>1364.25</ele>
        <time>2019-06-12T13:50:52Z</time>
      </trkpt>
      <trkpt lat="44.62544" lon="6.2085">
        <ele>1364.25</ele>
        <time>2019-06-12T13:50:53Z</time>
      </trkpt>
      <trkpt lat="44.62542" lon="6.20852">
        <ele>1364.25</ele>
        <time>2019-06-12T13:50:58Z</time>
      </trkpt>
      <trkpt lat="44.62539" lon="6.20856">
        <ele>1364.25</ele>
        <time>2019-06-12T13:51:01Z</time>
      </trkpt>
      <trkpt lat="44.62536" lon="6.20861">
        <ele>1364.25</ele>
        <time>2019-06-12T13:51:04Z</time>
      </trkpt>
      <trkpt lat="44.62534" lon="6.20862">
        <ele>1364.25</ele>
        <time>2019-06-12T13:51:05Z</time>
      </trkpt>
      <trkpt lat="44.62533" lon="6.20863">
        <ele>1364.25</ele>
        <time>2019-06-12T13:51:06Z</time>
      </trkpt>
      <trkpt lat="44.62528" lon="6.20867">
        <ele>1363.29</ele>
        <time>2019-06-12T13:51:15Z</time>
      </trkpt>
      <trkpt lat="44.62528" lon="6.20869">
        <ele>1363.29</ele>
        <time>2019-06-12T13:51:16Z</time>
      </trkpt>
      <trkpt lat="44.62527" lon="6.20871">
        <ele>1363.29</ele>
        <time>2019-06-12T13:51:17Z</time>
      </trkpt>
      <trkpt lat="44.62526" lon="6.20872">
        <ele>1363.29</ele>
        <time>2019-06-12T13:51:18Z</time>
      </trkpt>
      <trkpt lat="44.62525" lon="6.20874">
        <ele>1363.29</ele>
        <time>2019-06-12T13:51:19Z</time>
      </trkpt>
      <trkpt lat="44.62523" lon="6.20876">
        <ele>1363.29</ele>
        <time>2019-06-12T13:51:20Z</time>
      </trkpt>
      <trkpt lat="44.62518" lon="6.20884">
        <ele>1362.81</ele>
        <time>2019-06-12T13:51:24Z</time>
      </trkpt>
      <trkpt lat="44.62517" lon="6.20884">
        <ele>1362.81</ele>
        <time>2019-06-12T13:51:25Z</time>
      </trkpt>
      <trkpt lat="44.62511" lon="6.20885">
        <ele>1362.81</ele>
        <time>2019-06-12T13:51:35Z</time>
      </trkpt>
      <trkpt lat="44.62498" lon="6.20903">
        <ele>1362.33</ele>
        <time>2019-06-12T13:51:51Z</time>
      </trkpt>
      <trkpt lat="44.62494" lon="6.20907">
        <ele>1361.84</ele>
        <time>2019-06-12T13:52:06Z</time>
      </trkpt>
      <trkpt lat="44.62493" lon="6.20908">
        <ele>1361.84</ele>
        <time>2019-06-12T13:52:07Z</time>
      </trkpt>
      <trkpt lat="44.62492" lon="6.2091">
        <ele>1361.84</ele>
        <time>2019-06-12T13:52:08Z</time>
      </trkpt>
      <trkpt lat="44.62491" lon="6.20911">
        <ele>1361.84</ele>
        <time>2019-06-12T13:52:09Z</time>
      </trkpt>
      <trkpt lat="44.6249" lon="6.20912">
        <ele>1361.84</ele>
        <time>2019-06-12T13:52:10Z</time>
      </trkpt>
      <trkpt lat="44.6247" lon="6.20932">
        <ele>1361.36</ele>
        <time>2019-06-12T13:52:30Z</time>
      </trkpt>
      <trkpt lat="44.62452" lon="6.20946">
        <ele>1360.88</ele>
        <time>2019-06-12T13:52:49Z</time>
      </trkpt>
      <trkpt lat="44.62448" lon="6.20954">
        <ele>1360.88</ele>
        <time>2019-06-12T13:53:07Z</time>
      </trkpt>
      <trkpt lat="44.62453" lon="6.20951">
        <ele>1360.88</ele>
        <time>2019-06-12T13:53:28Z</time>
      </trkpt>
      <trkpt lat="44.62453" lon="6.20955">
        <ele>1360.4</ele>
        <time>2019-06-12T13:53:54Z</time>
      </trkpt>
      <trkpt lat="44.62446" lon="6.2096">
        <ele>1361.36</ele>
        <time>2019-06-12T13:54:05Z</time>
      </trkpt>
      <trkpt lat="44.62448" lon="6.20967">
        <ele>1361.36</ele>
        <time>2019-06-12T13:54:19Z</time>
      </trkpt>
      <trkpt lat="44.62441" lon="6.20968">
        <ele>1361.36</ele>
        <time>2019-06-12T13:54:35Z</time>
      </trkpt>
      <trkpt lat="44.62438" lon="6.20969">
        <ele>1361.36</ele>
        <time>2019-06-12T13:54:40Z</time>
      </trkpt>
      <trkpt lat="44.62436" lon="6.20969">
        <ele>1361.36</ele>
        <time>2019-06-12T13:54:41Z</time>
      </trkpt>
      <trkpt lat="44.62434" lon="6.2097">
        <ele>1361.36</ele>
        <time>2019-06-12T13:54:42Z</time>
      </trkpt>
      <trkpt lat="44.6243" lon="6.20975">
        <ele>1361.36</ele>
        <time>2019-06-12T13:54:50Z</time>
      </trkpt>
      <trkpt lat="44.62428" lon="6.20976">
        <ele>1361.36</ele>
        <time>2019-06-12T13:54:57Z</time>
      </trkpt>
      <trkpt lat="44.62428" lon="6.20977">
        <ele>1361.36</ele>
        <time>2019-06-12T13:54:58Z</time>
      </trkpt>
      <trkpt lat="44.62427" lon="6.2098">
        <ele>1361.36</ele>
        <time>2019-06-12T13:55:08Z</time>
      </trkpt>
      <trkpt lat="44.62426" lon="6.20982">
        <ele>1361.36</ele>
        <time>2019-06-12T13:55:09Z</time>
      </trkpt>
      <trkpt lat="44.62425" lon="6.20983">
        <ele>1361.36</ele>
        <time>2019-06-12T13:55:10Z</time>
      </trkpt>
      <trkpt lat="44.62423" lon="6.20984">
        <ele>1361.36</ele>
        <time>2019-06-12T13:55:14Z</time>
      </trkpt>
      <trkpt lat="44.62422" lon="6.20986">
        <ele>1359.92</ele>
        <time>2019-06-12T13:55:17Z</time>
      </trkpt>
      <trkpt lat="44.62419" lon="6.20993">
        <ele>1359.44</ele>
        <time>2019-06-12T13:55:22Z</time>
      </trkpt>
      <trkpt lat="44.62419" lon="6.20995">
        <ele>1359.44</ele>
        <time>2019-06-12T13:55:23Z</time>
      </trkpt>
      <trkpt lat="44.62414" lon="6.20999">
        <ele>1358.48</ele>
        <time>2019-06-12T13:55:30Z</time>
      </trkpt>
      <trkpt lat="44.62413" lon="6.21">
        <ele>1358.48</ele>
        <time>2019-06-12T13:55:31Z</time>
      </trkpt>
      <trkpt lat="44.62413" lon="6.21003">
        <ele>1358.48</ele>
        <time>2019-06-12T13:55:33Z</time>
      </trkpt>
      <trkpt lat="44.62413" lon="6.21005">
        <ele>1358.48</ele>
        <time>2019-06-12T13:55:34Z</time>
      </trkpt>
      <trkpt lat="44.62413" lon="6.21009">
        <ele>1358.48</ele>
        <time>2019-06-12T13:55:35Z</time>
      </trkpt>
      <trkpt lat="44.62414" lon="6.21012">
        <ele>1358</ele>
        <time>2019-06-12T13:55:36Z</time>
      </trkpt>
      <trkpt lat="44.62414" lon="6.21016">
        <ele>1358</ele>
        <time>2019-06-12T13:55:37Z</time>
      </trkpt>
      <trkpt lat="44.62413" lon="6.21023">
        <ele>1358</ele>
        <time>2019-06-12T13:55:40Z</time>
      </trkpt>
      <trkpt lat="44.6241" lon="6.21023">
        <ele>1357.52</ele>
        <time>2019-06-12T13:55:45Z</time>
      </trkpt>
      <trkpt lat="44.62408" lon="6.21025">
        <ele>1356.56</ele>
        <time>2019-06-12T13:55:47Z</time>
      </trkpt>
      <trkpt lat="44.62408" lon="6.21027">
        <ele>1356.56</ele>
        <time>2019-06-12T13:55:48Z</time>
      </trkpt>
      <trkpt lat="44.62398" lon="6.21048">
        <ele>1355.6</ele>
        <time>2019-06-12T13:55:59Z</time>
      </trkpt>
      <trkpt lat="44.62395" lon="6.21048">
        <ele>1355.12</ele>
        <time>2019-06-12T13:56:07Z</time>
      </trkpt>
      <trkpt lat="44.62394" lon="6.21049">
        <ele>1355.12</ele>
        <time>2019-06-12T13:56:08Z</time>
      </trkpt>
      <trkpt lat="44.62393" lon="6.2105">
        <ele>1355.12</ele>
        <time>2019-06-12T13:56:09Z</time>
      </trkpt>
      <trkpt lat="44.62392" lon="6.21052">
        <ele>1354.63</ele>
        <time>2019-06-12T13:56:10Z</time>
      </trkpt>
      <trkpt lat="44.62391" lon="6.21053">
        <ele>1354.63</ele>
        <time>2019-06-12T13:56:11Z</time>
      </trkpt>
      <trkpt lat="44.6239" lon="6.21056">
        <ele>1354.63</ele>
        <time>2019-06-12T13:56:12Z</time>
      </trkpt>
      <trkpt lat="44.62389" lon="6.21057">
        <ele>1354.63</ele>
        <time>2019-06-12T13:56:13Z</time>
      </trkpt>
      <trkpt lat="44.62387" lon="6.21058">
        <ele>1354.15</ele>
        <time>2019-06-12T13:56:14Z</time>
      </trkpt>
      <trkpt lat="44.62386" lon="6.21057">
        <ele>1354.15</ele>
        <time>2019-06-12T13:56:15Z</time>
      </trkpt>
      <trkpt lat="44.62374" lon="6.21063">
        <ele>1353.19</ele>
        <time>2019-06-12T13:56:28Z</time>
      </trkpt>
      <trkpt lat="44.62365" lon="6.21069">
        <ele>1353.19</ele>
        <time>2019-06-12T13:56:42Z</time>
      </trkpt>
      <trkpt lat="44.62357" lon="6.21076">
        <ele>1353.19</ele>
        <time>2019-06-12T13:56:53Z</time>
      </trkpt>
      <trkpt lat="44.62355" lon="6.21077">
        <ele>1352.71</ele>
        <time>2019-06-12T13:56:55Z</time>
      </trkpt>
      <trkpt lat="44.62353" lon="6.21078">
        <ele>1352.71</ele>
        <time>2019-06-12T13:56:56Z</time>
      </trkpt>
      <trkpt lat="44.62352" lon="6.21079">
        <ele>1352.71</ele>
        <time>2019-06-12T13:56:57Z</time>
      </trkpt>
      <trkpt lat="44.62351" lon="6.21081">
        <ele>1352.71</ele>
        <time>2019-06-12T13:56:58Z</time>
      </trkpt>
      <trkpt lat="44.6235" lon="6.21083">
        <ele>1352.71</ele>
        <time>2019-06-12T13:56:59Z</time>
      </trkpt>
      <trkpt lat="44.62349" lon="6.21084">
        <ele>1352.71</ele>
        <time>2019-06-12T13:57:00Z</time>
      </trkpt>
      <trkpt lat="44.62347" lon="6.21086">
        <ele>1352.71</ele>
        <time>2019-06-12T13:57:01Z</time>
      </trkpt>
      <trkpt lat="44.62345" lon="6.21088">
        <ele>1352.71</ele>
        <time>2019-06-12T13:57:02Z</time>
      </trkpt>
      <trkpt lat="44.62344" lon="6.21089">
        <ele>1352.71</ele>
        <time>2019-06-12T13:57:03Z</time>
      </trkpt>
      <trkpt lat="44.62342" lon="6.21089">
        <ele>1352.71</ele>
        <time>2019-06-12T13:57:04Z</time>
      </trkpt>
      <trkpt lat="44.6234" lon="6.21089">
        <ele>1352.71</ele>
        <time>2019-06-12T13:57:05Z</time>
      </trkpt>
      <trkpt lat="44.62339" lon="6.2109">
        <ele>1352.71</ele>
        <time>2019-06-12T13:57:06Z</time>
      </trkpt>
      <trkpt lat="44.62338" lon="6.21091">
        <ele>1352.23</ele>
        <time>2019-06-12T13:57:07Z</time>
      </trkpt>
      <trkpt lat="44.62335" lon="6.21096">
        <ele>1352.23</ele>
        <time>2019-06-12T13:57:14Z</time>
      </trkpt>
      <trkpt lat="44.6233" lon="6.211">
        <ele>1352.23</ele>
        <time>2019-06-12T13:57:20Z</time>
      </trkpt>
      <trkpt lat="44.62329" lon="6.21101">
        <ele>1352.23</ele>
        <time>2019-06-12T13:57:21Z</time>
      </trkpt>
      <trkpt lat="44.62328" lon="6.21103">
        <ele>1352.23</ele>
        <time>2019-06-12T13:57:22Z</time>
      </trkpt>
      <trkpt lat="44.62327" lon="6.21104">
        <ele>1352.23</ele>
        <time>2019-06-12T13:57:23Z</time>
      </trkpt>
      <trkpt lat="44.62326" lon="6.21109">
        <ele>1352.23</ele>
        <time>2019-06-12T13:57:31Z</time>
      </trkpt>
      <trkpt lat="44.62327" lon="6.21113">
        <ele>1352.23</ele>
        <time>2019-06-12T13:57:42Z</time>
      </trkpt>
      <trkpt lat="44.62325" lon="6.21115">
        <ele>1352.23</ele>
        <time>2019-06-12T13:57:55Z</time>
      </trkpt>
      <trkpt lat="44.62322" lon="6.21116">
        <ele>1352.23</ele>
        <time>2019-06-12T13:57:57Z</time>
      </trkpt>
      <trkpt lat="44.62316" lon="6.21114">
        <ele>1351.75</ele>
        <time>2019-06-12T13:58:08Z</time>
      </trkpt>
      <trkpt lat="44.62302" lon="6.21108">
        <ele>1350.79</ele>
        <time>2019-06-12T13:58:20Z</time>
      </trkpt>
      <trkpt lat="44.62295" lon="6.2109">
        <ele>1350.31</ele>
        <time>2019-06-12T13:58:31Z</time>
      </trkpt>
      <trkpt lat="44.62292" lon="6.21074">
        <ele>1349.35</ele>
        <time>2019-06-12T13:58:44Z</time>
      </trkpt>
      <trkpt lat="44.62294" lon="6.21063">
        <ele>1348.39</ele>
        <time>2019-06-12T13:58:56Z</time>
      </trkpt>
      <trkpt lat="44.62293" lon="6.21055">
        <ele>1348.39</ele>
        <time>2019-06-12T13:59:02Z</time>
      </trkpt>
      <trkpt lat="44.62291" lon="6.21042">
        <ele>1348.87</ele>
        <time>2019-06-12T13:59:13Z</time>
      </trkpt>
      <trkpt lat="44.62291" lon="6.2104">
        <ele>1347.91</ele>
        <time>2019-06-12T13:59:14Z</time>
      </trkpt>
      <trkpt lat="44.62297" lon="6.20995">
        <ele>1347.43</ele>
        <time>2019-06-12T13:59:28Z</time>
      </trkpt>
      <trkpt lat="44.62303" lon="6.20985">
        <ele>1348.87</ele>
        <time>2019-06-12T13:59:40Z</time>
      </trkpt>
      <trkpt lat="44.62306" lon="6.20966">
        <ele>1349.35</ele>
        <time>2019-06-12T13:59:51Z</time>
      </trkpt>
      <trkpt lat="44.62304" lon="6.20957">
        <ele>1349.35</ele>
        <time>2019-06-12T13:59:54Z</time>
      </trkpt>
      <trkpt lat="44.62297" lon="6.20944">
        <ele>1347.91</ele>
        <time>2019-06-12T13:59:59Z</time>
      </trkpt>
      <trkpt lat="44.62296" lon="6.20939">
        <ele>1347.91</ele>
        <time>2019-06-12T14:00:01Z</time>
      </trkpt>
      <trkpt lat="44.62295" lon="6.20938">
        <ele>1347.91</ele>
        <time>2019-06-12T14:00:02Z</time>
      </trkpt>
      <trkpt lat="44.62295" lon="6.20939">
        <ele>1349.35</ele>
        <time>2019-06-12T14:00:10Z</time>
      </trkpt>
      <trkpt lat="44.6229" lon="6.2094">
        <ele>1349.35</ele>
        <time>2019-06-12T14:00:16Z</time>
      </trkpt>
      <trkpt lat="44.62288" lon="6.20941">
        <ele>1349.35</ele>
        <time>2019-06-12T14:00:17Z</time>
      </trkpt>
      <trkpt lat="44.62271" lon="6.20942">
        <ele>1347.91</ele>
        <time>2019-06-12T14:00:27Z</time>
      </trkpt>
      <trkpt lat="44.62269" lon="6.20942">
        <ele>1347.91</ele>
        <time>2019-06-12T14:00:35Z</time>
      </trkpt>
      <trkpt lat="44.62268" lon="6.20942">
        <ele>1347.91</ele>
        <time>2019-06-12T14:00:36Z</time>
      </trkpt>
      <trkpt lat="44.62266" lon="6.20942">
        <ele>1347.91</ele>
        <time>2019-06-12T14:00:37Z</time>
      </trkpt>
      <trkpt lat="44.62265" lon="6.20941">
        <ele>1347.91</ele>
        <time>2019-06-12T14:00:38Z</time>
      </trkpt>
      <trkpt lat="44.62256" lon="6.20941">
        <ele>1349.35</ele>
        <time>2019-06-12T14:00:49Z</time>
      </trkpt>
      <trkpt lat="44.62247" lon="6.2094">
        <ele>1349.35</ele>
        <time>2019-06-12T14:01:05Z</time>
      </trkpt>
      <trkpt lat="44.62243" lon="6.20939">
        <ele>1349.35</ele>
        <time>2019-06-12T14:01:10Z</time>
      </trkpt>
      <trkpt lat="44.62234" lon="6.20946">
        <ele>1347.43</ele>
        <time>2019-06-12T14:01:22Z</time>
      </trkpt>
      <trkpt lat="44.62234" lon="6.20948">
        <ele>1347.91</ele>
        <time>2019-06-12T14:01:34Z</time>
      </trkpt>
      <trkpt lat="44.62232" lon="6.20954">
        <ele>1347.91</ele>
        <time>2019-06-12T14:01:50Z</time>
      </trkpt>
      <trkpt lat="44.62232" lon="6.20956">
        <ele>1347.91</ele>
        <time>2019-06-12T14:01:51Z</time>
      </trkpt>
      <trkpt lat="44.62232" lon="6.20957">
        <ele>1347.91</ele>
        <time>2019-06-12T14:01:52Z</time>
      </trkpt>
      <trkpt lat="44.62233" lon="6.20974">
        <ele>1347.91</ele>
        <time>2019-06-12T14:02:02Z</time>
      </trkpt>
      <trkpt lat="44.6223" lon="6.20996">
        <ele>1347.91</ele>
        <time>2019-06-12T14:02:19Z</time>
      </trkpt>
      <trkpt lat="44.62233" lon="6.20998">
        <ele>1347.91</ele>
        <time>2019-06-12T14:02:33Z</time>
      </trkpt>
      <trkpt lat="44.62232" lon="6.20998">
        <ele>1348.87</ele>
        <time>2019-06-12T14:02:52Z</time>
      </trkpt>
    </trkseg>
  </trk>
</gpx>